GFSCGP_sfc_temp_000.txt.gz
Temp
65 57 53 59 63 64 61 57 56 65 71 65 65 67 72 73 70 72 70 69 68 67 65 66 66 65 64 63 63 63 63 62 61 60 60 59 59 60 61 62 62 63 61 62
58 55 64 68 67 62 60 58 58 65 70 65 65 64 72 71 68 69 69 69 66 61 64 64 63 63 63 62 63 62 63 62 61 60 61 60 60 60 61 61 62 63 62 62
56 62 70 66 62 60 59 58 59 59 66 68 63 60 62 69 68 70 70 68 64 64 63 63 64 61 61 61 62 63 63 63 62 63 61 60 60 60 60 60 61 62 63 64
59 68 65 62 60 62 55 66 66 63 58 49 63 46 55 65 66 68 69 66 63 65 65 65 63 60 61 62 63 63 63 63 64 63 61 61 58 57 59 59 59 60 62 63
57 62 61 59 61 66 60 68 64 63 59 54 58 48 55 60 62 67 67 64 62 66 65 63 63 64 63 64 62 62 63 63 64 63 62 60 59 59 59 58 59 59 61 63
62 69 66 64 69 68 70 63 62 61 56 46 56 52 56 56 63 65 65 65 64 61 61 61 64 64 63 62 61 62 62 62 63 63 63 61 59 59 57 57 57 58 58 61
60 60 67 70 62 68 64 55 43 36 40 42 55 50 53 61 65 69 68 64 61 62 61 62 62 62 61 61 61 61 62 62 63 63 62 61 60 59 58 57 57 56 56 57
49 47 61 68 64 60 60 57 47 36 36 44 57 49 58 66 69 70 69 65 62 59 62 63 63 62 61 62 61 63 62 62 62 63 61 61 60 58 57 58 58 57 57 57
50 50 66 69 70 67 59 55 64 49 48 45 48 56 63 66 64 64 62 63 60 60 60 61 63 61 61 60 61 62 61 62 62 63 61 61 61 60 59 58 58 57 58 59
54 46 63 67 69 68 64 65 52 46 39 36 45 49 50 58 60 62 60 59 58 59 61 62 63 61 61 61 61 61 62 63 63 64 62 63 66 61 60 59 58 58 58 59
59 51 53 64 59 59 58 56 54 53 47 40 36 46 57 63 62 62 62 62 61 61 62 63 63 61 61 61 61 61 61 62 62 63 63 65 63 62 61 60 59 59 59 59
63 50 48 54 62 69 65 60 55 52 45 47 45 48 62 63 64 66 63 65 63 64 63 64 62 61 60 60 61 62 62 62 63 64 64 66 64 62 61 60 60 60 60 60
60 53 42 46 53 61 60 63 58 52 49 46 46 47 66 63 65 67 64 63 63 61 62 63 60 62 62 61 62 63 63 63 63 65 64 64 63 62 61 60 60 60 60 60
52 51 53 46 53 57 54 62 62 54 45 46 52 53 60 59 64 63 64 64 64 64 65 64 63 62 63 63 63 64 63 63 63 64 63 62 63 63 62 61 60 60 61 61
45 49 56 60 61 60 61 64 62 61 57 54 54 55 61 62 65 66 65 64 65 64 65 65 64 63 62 60 63 65 64 63 63 64 63 63 63 63 64 62 62 61 61 62
44 38 55 54 62 63 59 63 65 64 59 58 60 57 65 70 68 64 65 66 66 66 67 67 67 65 64 64 65 66 64 63 64 63 63 64 64 68 65 64 62 63 61 61
39 40 41 49 59 59 52 61 64 64 64 61 57 60 63 63 67 66 65 68 68 68 69 68 68 68 67 66 68 65 63 63 64 63 64 65 65 68 63 64 62 61 60 58
40 39 40 45 52 39 56 66 70 67 65 64 61 66 65 70 70 71 72 70 70 71 71 70 70 70 68 68 67 68 64 66 66 64 65 66 66 68 64 62 61 59 58 58
48 41 36 37 45 52 58 62 64 59 58 64 68 66 70 67 65 64 74 75 73 73 74 73 73 72 69 68 68 68 66 66 67 66 65 66 66 64 64 61 58 59 57 56
50 48 41 39 38 38 53 66 73 68 57 65 67 66 67 66 57 61 72 76 75 75 76 74 73 72 70 70 68 68 67 66 66 67 68 67 66 64 63 61 60 59 58 58
40 43 38 38 34 48 53 57 70 54 51 61 69 69 66 64 64 70 75 73 76 76 75 75 72 72 72 72 70 68 68 68 69 70 70 67 65 64 63 61 60 60 59 59
35 35 35 36 36 38 54 56 48 49 56 59 65 65 66 69 67 68 75 74 74 75 73 74 73 72 72 72 72 68 68 71 71 69 70 68 64 70 65 63 60 61 59 57
34 38 35 38 40 47 52 52 54 53 55 57 55 63 69 68 69 70 72 74 75 76 75 76 75 72 71 73 74 69 70 71 72 67 68 66 65 66 65 65 60 58 59 57
39 44 40 39 47 48 51 54 54 56 56 59 61 59 67 70 70 70 70 74 76 77 75 76 75 72 70 73 75 74 70 73 72 67 66 65 65 63 65 67 65 63 57 57
40 43 39 41 47 48 53 52 54 55 58 58 62 62 62 66 70 71 70 74 76 76 77 77 74 73 72 73 73 74 73 74 73 67 66 65 66 65 64 65 64 65 63 63
44 41 37 36 47 44 47 52 56 54 54 58 58 60 61 65 68 70 72 76 77 77 77 76 75 74 74 73 74 73 75 74 73 67 66 67 65 64 65 61 54 44 48 49

GFSCGP_sfc_temp_006.txt.gz
Temp
55 51 48 54 56 56 54 53 52 54 63 59 56 56 61 67 64 63 66 68 67 66 64 61 59 59 60 60 60 60 59 58 58 58 58 58 58 59 60 61 62 62 63 63
53 49 58 60 58 55 53 51 51 56 62 59 56 56 62 65 66 64 67 69 69 61 59 58 57 59 62 61 61 59 59 58 59 58 58 59 59 59 60 61 62 63 63 62
52 57 63 59 55 52 52 51 52 51 60 59 55 53 56 64 64 65 65 64 63 62 59 57 57 58 61 60 60 60 59 59 59 60 59 58 58 59 59 59 60 61 62 62
54 62 59 56 54 56 48 58 57 55 53 44 53 37 52 57 62 63 65 64 64 62 58 56 56 56 60 60 60 60 59 59 60 60 59 59 58 57 57 58 59 60 62 62
50 55 56 54 56 60 53 63 57 57 50 43 48 41 50 53 55 62 64 65 64 60 57 56 56 58 60 59 59 59 59 59 60 60 60 59 58 57 58 58 59 60 60 63
55 61 61 59 62 62 63 56 52 49 44 38 48 45 44 50 58 60 62 64 61 56 55 55 57 60 57 58 58 58 59 59 59 60 60 60 59 58 57 57 57 57 58 60
50 53 57 62 56 57 56 46 34 29 29 34 50 44 52 56 60 63 65 64 56 53 53 56 58 58 56 57 57 58 59 59 59 60 60 60 59 59 58 58 57 57 57 59
41 38 53 60 56 53 54 50 36 30 31 40 48 42 52 60 65 64 65 62 55 52 54 57 59 58 58 58 57 59 58 58 59 60 60 60 60 58 57 58 57 56 57 58
42 43 56 62 64 62 53 45 54 42 45 38 42 50 59 61 63 63 59 56 53 51 53 56 58 58 57 57 57 59 58 59 59 61 59 59 59 58 58 58 58 57 58 59
47 40 55 59 61 63 54 57 43 44 32 30 41 44 48 54 59 60 56 55 51 51 54 56 57 56 57 58 58 58 59 59 60 60 60 60 60 59 59 58 58 58 58 60
47 44 47 53 51 51 48 47 44 48 39 34 32 41 53 58 61 61 59 56 52 53 55 57 56 57 58 57 57 58 58 60 60 60 60 62 60 60 59 59 58 58 59 59
43 39 40 47 55 62 60 54 48 45 37 43 40 42 58 59 59 59 59 56 53 54 56 57 58 56 56 56 57 58 58 60 60 61 61 62 62 60 58 59 58 59 59 60
43 36 34 40 47 50 53 56 57 46 42 43 42 43 60 58 59 58 57 55 54 54 54 55 55 57 57 56 57 58 59 60 61 62 61 61 61 59 58 58 58 59 59 60
44 35 35 39 44 48 46 53 56 51 40 42 48 48 55 57 58 57 56 54 54 55 56 58 56 56 56 57 58 59 59 60 61 61 61 61 60 60 59 59 59 59 60 60
38 30 38 40 48 51 51 53 54 51 54 47 50 51 55 60 58 56 55 54 56 56 57 58 58 56 56 56 58 60 60 60 60 61 61 61 60 60 59 59 59 60 60 61
37 30 36 36 47 50 50 53 55 56 56 55 51 53 61 59 58 57 58 57 57 58 59 60 60 58 57 58 58 60 60 60 60 60 62 61 61 61 60 59 60 60 60 61
35 34 32 29 40 46 42 52 53 53 57 58 51 62 57 56 59 58 57 59 60 60 61 61 61 61 60 60 61 59 60 60 60 61 63 62 62 62 61 60 60 60 59 60
37 36 37 29 36 32 47 51 58 56 49 49 57 57 59 63 65 64 65 62 62 62 63 63 63 62 60 61 60 60 60 60 61 61 63 63 63 63 61 60 60 58 58 59
44 38 33 27 28 43 43 44 41 41 41 46 46 49 51 55 61 59 64 65 66 65 66 65 65 63 59 61 62 60 60 60 61 61 62 63 63 62 60 60 58 58 57 57
42 41 35 30 27 32 39 46 51 50 40 47 47 47 48 50 55 60 63 65 64 64 67 65 65 63 61 61 61 60 60 59 61 62 63 63 64 62 61 59 58 58 58 58
34 35 30 29 26 38 46 49 52 40 38 47 48 48 48 46 56 55 60 65 68 67 67 65 64 64 63 61 62 61 59 60 64 65 64 62 62 62 61 58 58 58 57 57
33 31 34 36 33 34 49 48 39 45 46 48 49 49 49 50 54 56 61 64 64 65 66 66 65 64 63 63 64 62 60 64 64 64 64 62 60 65 62 60 58 58 57 56
32 35 33 36 36 47 52 50 53 52 46 49 49 52 52 51 53 55 60 63 67 67 68 68 67 64 63 64 66 63 63 62 63 62 62 60 60 62 61 60 58 58 56 57
38 42 37 37 41 43 48 54 55 54 50 52 53 53 54 51 55 55 59 63 66 68 69 69 67 64 62 65 67 68 64 65 64 62 60 59 59 59 60 62 61 60 58 57
36 38 37 37 42 45 52 53 53 54 53 54 55 55 55 54 56 55 57 64 68 68 69 69 67 65 65 65 67 66 65 66 64 62 61 59 60 60 60 61 60 62 61 61
39 37 36 35 43 42 46 52 55 53 52 53 53 53 57 57 57 58 58 62 68 67 69 69 68 66 66 67 68 66 68 67 64 62 61 60 61 60 61 60 56 44 47 48

GFSCGP_sfc_temp_009.txt.gz
Temp
63 58 55 60 62 63 64 61 61 67 71 67 67 66 69 74 75 74 75 76 77 79 83 76 74 71 70 71 70 70 70 70 71 72 72 72 72 73 73 73 72 72 72 71
58 53 63 67 65 61 60 58 59 64 67 66 65 64 70 72 73 76 75 76 77 79 81 73 69 69 69 69 70 70 71 69 71 73 72 74 73 74 74 73 72 72 72 71
56 61 64 62 61 58 58 57 58 59 65 67 64 61 66 74 74 76 77 77 78 77 76 73 68 68 70 69 69 70 70 70 71 72 71 70 71 71 72 72 72 72 71 69
59 67 63 61 59 60 54 63 62 60 57 52 64 49 62 68 69 74 76 77 78 79 75 71 68 67 68 70 71 72 71 70 71 71 72 70 72 72 72 72 71 71 70 70
55 59 59 58 59 63 59 66 61 61 57 57 58 52 60 67 65 70 75 79 79 76 74 70 69 69 70 70 71 71 71 71 71 71 72 72 70 72 71 71 68 68 70 70
61 68 65 64 65 64 67 63 62 60 58 46 56 53 55 62 66 72 76 79 76 71 68 68 69 69 69 72 72 71 71 70 71 72 71 71 70 69 70 69 69 70 71 67
56 58 64 67 61 65 62 57 47 44 44 44 59 54 55 68 72 73 75 80 73 67 66 67 67 69 70 71 72 72 72 70 71 71 72 72 70 69 68 68 69 68 67 65
47 45 59 66 63 59 58 57 50 40 43 50 56 50 56 71 75 76 78 77 72 67 67 68 69 70 71 71 71 72 72 71 71 72 72 72 70 72 72 70 70 69 69 69
49 50 63 65 68 67 59 54 64 53 53 50 54 58 64 71 72 74 74 70 68 67 67 68 69 71 72 71 71 72 72 72 72 72 71 71 70 69 69 67 67 69 68 69
49 47 60 63 68 68 64 67 51 55 42 40 51 53 58 66 70 73 72 70 67 67 67 68 70 70 71 72 72 72 72 72 73 72 72 72 71 70 69 68 67 68 68 69
50 50 54 61 58 58 58 57 59 59 54 46 45 54 68 70 75 75 75 71 68 67 68 69 71 71 72 72 72 71 72 72 72 72 72 72 71 71 70 69 68 69 69 69
47 46 48 54 66 68 65 61 59 52 46 55 52 55 70 71 74 72 73 70 68 69 70 71 72 71 72 72 73 71 72 73 74 74 73 73 71 70 69 69 68 69 69 70
43 45 44 49 56 62 59 62 62 60 58 50 47 56 71 72 72 72 70 68 67 68 69 70 71 71 72 72 73 73 73 74 75 74 74 72 70 70 69 68 68 69 70 70
45 42 44 47 51 57 54 58 61 59 53 53 53 61 68 72 73 72 69 68 69 68 68 69 71 72 72 73 74 74 74 75 74 75 74 72 70 70 70 69 69 69 70 70
43 37 43 47 49 52 57 58 59 56 58 52 58 59 67 71 73 72 70 68 67 68 68 69 70 71 72 72 73 74 75 74 74 74 74 71 71 71 70 69 70 70 70 71
46 38 42 44 52 53 52 57 60 59 59 59 61 62 73 76 76 69 69 68 68 69 70 71 71 72 72 72 73 73 74 74 75 74 74 72 72 71 70 69 70 70 70 70
41 41 39 41 47 51 47 56 58 60 62 61 57 65 73 72 73 73 70 69 70 71 71 71 71 72 72 73 73 72 74 75 74 74 74 73 72 72 71 71 71 70 69 70
40 37 40 42 45 39 52 56 60 61 52 52 60 66 59 61 65 70 78 73 73 73 72 72 73 72 73 75 74 75 76 75 75 75 75 75 75 73 72 71 70 68 69 69
45 37 36 39 43 49 48 49 47 54 47 52 52 55 58 61 65 71 77 78 76 74 74 75 76 74 73 74 75 75 75 75 75 75 75 75 76 73 72 71 69 68 68 68
40 40 36 40 38 41 44 51 55 55 47 54 54 54 54 58 66 74 63 68 75 77 76 75 75 75 73 73 74 74 74 74 74 76 77 77 77 75 73 72 70 69 69 69
36 35 33 39 39 40 49 54 57 46 46 54 55 55 55 53 61 59 65 67 74 76 76 76 75 74 73 74 73 73 74 74 77 78 78 76 76 74 74 71 70 69 69 68
34 34 34 40 37 34 52 53 46 49 54 55 56 57 56 58 60 62 65 66 72 74 75 75 74 74 74 73 74 74 72 77 79 78 77 76 74 76 74 71 70 70 69 67
33 36 34 36 36 48 53 51 55 56 55 56 56 58 58 59 60 63 64 66 72 75 76 77 76 74 73 74 76 74 74 77 77 76 74 74 74 75 73 72 70 71 69 71
40 44 37 38 42 46 51 56 55 56 57 59 60 60 61 59 62 63 65 68 72 75 76 76 77 75 72 74 76 77 77 77 77 74 73 73 72 72 73 75 74 74 72 72
42 45 39 38 43 48 53 52 53 54 59 61 62 62 62 62 62 64 65 68 71 75 77 77 76 76 74 74 76 78 78 78 75 74 73 72 74 72 72 74 74 75 74 72
43 40 37 36 44 44 47 52 55 54 55 60 61 61 63 65 63 65 66 68 70 76 77 76 76 76 77 76 77 78 79 77 75 73 74 74 75 74 76 74 70 44 49 49

GFSCGP_sfc_temp_012.txt.gz
Temp
68 64 62 67 69 71 71 70 69 75 81 76 74 74 79 84 84 82 84 85 86 87 93 94 88 85 83 81 80 80 79 78 79 80 81 81 81 82 82 82 80 79 79 76
65 60 70 73 73 69 68 67 68 74 78 76 73 71 77 81 82 82 83 85 87 88 91 92 85 81 79 78 78 78 78 76 79 82 82 83 83 84 84 84 80 79 78 75
61 66 73 72 69 67 67 65 66 66 71 74 70 66 70 78 82 84 86 87 87 87 89 89 83 79 79 78 77 77 77 76 79 80 80 79 80 80 80 80 80 78 78 76
63 73 71 69 67 70 62 72 68 65 64 58 72 56 68 74 76 80 83 85 88 90 91 88 82 78 78 78 79 78 77 77 79 78 79 78 80 79 82 81 82 78 77 76
60 64 65 66 68 72 66 70 68 67 64 63 64 60 66 74 72 76 81 85 88 91 88 87 82 80 80 78 78 77 77 77 77 78 79 79 78 81 81 80 75 75 75 76
63 74 71 70 73 73 74 68 68 68 64 53 62 62 63 70 73 78 84 86 89 87 83 83 81 79 78 80 79 78 77 76 77 78 78 78 76 76 78 77 76 75 69 71
59 62 70 74 69 73 69 63 55 50 51 50 66 62 65 75 79 81 82 85 84 82 80 79 78 78 78 79 79 79 78 76 78 78 78 78 76 75 74 74 77 73 70 69
49 49 62 71 69 65 65 64 58 46 49 57 68 57 66 78 83 85 86 86 85 81 80 79 79 79 80 79 79 80 78 77 78 78 78 78 77 80 80 76 79 78 69 74
49 53 69 71 73 73 65 61 72 62 62 59 65 67 73 78 79 82 83 84 83 80 79 79 79 80 80 80 79 79 79 78 78 79 78 77 77 77 76 73 75 76 73 76
53 48 66 68 74 74 70 73 59 64 49 48 59 60 65 72 76 81 83 83 81 80 80 79 80 80 80 80 80 80 80 78 79 79 79 79 77 77 76 75 74 74 74 76
54 53 59 67 63 64 67 65 66 67 64 53 53 59 73 74 80 81 84 83 80 79 80 79 80 81 81 81 80 78 79 79 78 79 79 78 78 77 76 75 75 75 74 75
51 51 47 59 70 74 72 68 66 59 54 62 60 60 79 79 81 80 83 82 82 82 81 82 81 80 81 80 80 79 79 80 80 81 80 79 78 77 74 75 75 75 75 76
44 49 47 55 64 69 66 68 69 67 67 57 55 60 82 81 81 81 80 80 80 81 81 81 81 80 81 80 80 80 80 81 82 81 80 78 76 75 74 74 74 76 76 76
45 48 50 51 57 64 61 65 69 65 60 60 62 65 75 78 79 80 79 79 81 81 80 80 80 81 81 81 81 81 81 82 82 82 80 78 76 75 76 75 75 76 77 76
46 46 52 56 57 58 64 64 67 63 65 61 64 66 73 80 79 80 81 80 80 80 80 79 80 81 81 80 81 82 82 82 82 81 80 78 77 77 76 76 76 76 76 77
49 45 52 50 58 58 58 65 67 67 67 67 67 67 80 82 82 81 80 80 80 80 80 80 81 81 80 80 81 81 81 82 82 81 80 79 78 77 75 75 75 76 76 77
42 41 48 47 57 56 51 62 65 66 69 69 64 70 78 77 78 79 79 80 81 81 81 81 81 81 81 81 81 80 81 82 81 81 80 79 78 77 76 77 76 76 74 76
42 38 50 51 56 41 59 66 69 68 62 65 66 72 75 71 75 77 80 80 83 84 83 82 83 81 81 83 83 82 83 82 82 81 81 81 81 78 78 77 76 74 74 74
49 39 38 46 48 56 57 58 59 62 55 60 62 66 68 71 72 74 74 78 85 86 86 85 85 83 82 82 83 82 82 82 82 82 81 82 81 79 78 76 74 75 74 74
44 45 37 49 46 42 52 58 62 63 53 60 61 62 63 66 67 75 72 75 78 87 86 86 85 84 82 82 82 81 81 82 81 83 82 83 82 80 78 77 75 75 76 75
37 37 35 43 48 49 54 61 64 51 51 60 62 63 63 62 67 68 73 75 77 81 86 86 85 82 81 82 81 80 81 81 84 85 84 83 82 80 79 77 76 75 76 76
36 36 39 41 44 39 58 59 53 53 60 62 63 64 64 65 68 71 73 75 76 80 85 86 84 83 82 83 81 80 80 83 85 85 84 82 81 82 81 77 76 76 75 73
35 37 36 36 37 52 58 57 61 62 61 63 64 66 66 67 68 71 73 75 77 80 84 86 85 83 83 83 82 80 82 84 85 84 82 81 81 82 80 78 76 77 75 77
40 44 38 37 43 53 56 60 61 62 62 65 68 67 69 67 71 71 74 75 78 81 83 86 85 83 81 83 83 84 84 86 85 82 80 80 80 79 80 81 80 80 78 78
42 43 39 38 48 54 57 58 58 59 63 65 69 69 69 70 71 72 74 76 78 81 84 85 85 85 83 83 84 86 85 86 83 81 80 80 81 78 79 81 82 82 81 77
42 40 37 37 46 48 53 58 59 56 58 63 65 67 70 71 71 73 74 77 78 79 85 85 85 85 86 85 85 86 88 86 82 80 81 82 83 80 82 81 79 44 51 51

GFSCGP_sfc_temp_015.txt.gz
Temp
71 64 62 68 71 74 74 73 71 77 84 79 77 79 84 87 87 86 87 88 90 90 95 97 98 97 91 91 88 86 83 84 83 82 82 83 83 83 85 85 84 83 82 79
66 60 70 75 75 73 71 69 70 76 82 78 77 76 82 85 85 85 85 87 88 90 92 95 97 91 87 85 83 82 82 82 82 83 83 86 85 86 86 86 84 82 81 80
60 67 74 72 71 70 70 68 69 70 77 78 76 71 75 82 84 85 87 88 89 89 90 92 94 88 85 83 81 81 81 80 81 83 85 84 84 84 82 83 82 80 79 77
64 72 71 70 69 72 64 76 73 71 69 62 76 60 71 78 80 83 86 87 89 90 92 93 95 86 83 83 83 81 80 78 82 82 81 79 80 80 84 84 85 82 79 78
60 65 66 67 69 75 70 77 74 73 68 67 67 63 69 78 75 80 84 87 89 91 92 94 93 86 85 83 81 80 79 79 80 80 82 80 81 83 84 83 80 77 78 76
64 74 72 70 75 77 78 74 73 73 69 57 65 64 65 72 77 82 86 89 90 92 93 94 89 85 83 83 81 79 78 78 79 81 81 79 79 80 81 79 79 75 73 74
59 63 72 75 68 75 75 67 57 53 53 53 69 65 68 78 83 84 85 88 91 91 88 87 84 83 81 81 80 80 79 77 79 80 80 80 79 78 76 77 72 74 73 72
50 48 63 72 70 67 69 67 59 47 52 59 69 60 70 83 86 87 89 89 89 86 86 84 83 82 83 81 80 81 79 78 80 80 80 80 80 81 81 77 78 70 75 74
51 53 69 71 74 73 68 65 73 64 68 63 68 73 79 83 83 85 86 88 87 85 84 84 84 83 83 82 81 80 80 80 80 80 80 79 79 80 75 76 76 76 75 74
53 49 65 70 73 74 72 77 62 67 53 52 63 66 67 75 80 84 85 86 87 85 85 84 84 83 83 82 82 82 81 80 80 81 81 80 79 79 78 77 76 72 76 79
54 43 54 65 64 64 68 68 68 69 67 57 56 62 80 78 83 84 87 88 85 84 85 84 84 84 84 84 83 81 81 81 80 81 81 75 77 79 79 76 77 72 75 75
57 47 42 57 71 75 73 69 68 62 59 67 66 66 82 82 84 84 87 87 87 86 85 86 85 84 84 83 82 81 81 82 82 83 82 76 78 78 76 75 76 76 73 77
48 47 40 47 62 70 68 71 72 70 71 62 62 66 83 84 83 85 86 87 85 85 85 86 85 84 84 83 83 83 82 83 84 84 82 78 79 76 74 75 73 78 78 78
43 47 45 41 55 66 63 69 72 69 63 64 66 70 76 79 80 82 83 84 85 85 84 85 84 84 84 84 84 84 83 84 84 84 82 77 75 75 73 73 75 78 79 79
42 42 50 45 51 62 67 68 71 67 69 66 69 71 75 80 80 81 83 84 84 85 84 84 84 84 84 84 84 84 85 85 84 84 82 75 76 78 78 74 78 79 79 80
46 42 47 42 48 56 65 69 71 71 71 73 74 72 81 85 87 83 83 84 83 84 85 85 85 85 84 83 84 84 84 84 84 83 82 80 81 80 78 78 77 78 76 76
43 39 44 34 47 52 55 66 69 71 74 73 68 74 82 82 81 78 80 83 84 86 86 85 85 85 84 84 84 83 84 84 83 83 83 82 80 79 78 79 78 77 73 74
45 41 43 39 45 39 62 74 76 73 74 77 77 77 79 78 80 81 84 83 84 87 87 86 87 85 85 86 85 85 85 84 84 84 83 83 82 80 80 79 77 76 73 73
55 44 40 36 40 53 59 67 68 69 62 69 71 75 75 76 76 77 79 80 82 86 90 89 89 87 85 85 85 85 84 85 84 84 83 83 83 80 79 75 75 76 72 73
52 51 37 42 39 36 50 65 70 70 55 66 68 68 68 71 70 71 76 79 81 84 92 89 89 88 85 85 85 84 84 84 84 85 85 85 84 82 80 78 77 76 76 76
37 38 37 44 44 48 56 67 70 55 51 65 67 68 67 67 70 71 77 79 81 84 90 91 89 86 84 85 84 83 83 83 86 87 87 85 84 81 80 78 77 77 77 77
35 38 44 48 39 37 60 63 56 58 65 66 68 68 68 70 73 75 78 78 81 82 87 91 88 86 85 86 84 83 82 86 88 88 86 85 82 84 82 78 77 78 76 74
36 37 36 37 35 46 58 56 61 66 65 67 68 70 70 71 73 76 77 79 82 84 88 91 89 86 85 85 85 83 84 87 87 86 84 83 83 84 82 78 77 78 76 77
40 44 39 39 43 51 57 59 61 64 66 68 71 71 72 70 75 76 79 80 82 86 87 91 89 86 84 85 85 86 86 88 87 84 83 82 81 81 81 82 81 81 79 79
40 42 39 40 44 51 58 59 61 64 66 68 70 72 72 73 74 76 78 81 84 85 88 89 88 87 85 86 86 87 88 88 85 83 82 81 82 80 80 82 82 83 82 78
46 40 38 37 46 46 53 61 64 63 64 66 67 69 73 75 74 76 77 80 82 84 87 88 88 88 88 88 87 88 90 88 85 82 83 83 84 81 83 82 80 45 51 51

GFSCGP_sfc_temp_018.txt.gz
Temp
68 61 58 62 68 71 70 69 67 74 81 77 75 76 80 86 85 83 83 86 86 87 92 93 92 90 90 88 87 84 82 80 80 79 78 77 77 76 77 78 80 80 79 78
62 57 66 70 70 69 68 66 67 74 80 77 75 75 81 84 84 86 85 86 86 87 88 90 90 88 84 83 83 82 80 79 79 79 78 78 77 77 77 78 77 78 78 77
56 63 70 68 66 66 67 65 66 67 74 77 74 70 74 82 84 86 87 87 87 85 84 86 88 86 82 80 79 79 78 79 78 78 78 78 77 77 76 76 76 76 77 76
61 67 66 66 64 67 61 72 71 69 66 60 74 57 70 77 78 82 84 85 86 87 89 88 88 80 80 79 80 79 79 77 79 78 77 74 73 73 74 75 74 74 76 75
56 62 62 61 66 70 65 73 71 71 67 65 66 61 66 75 73 78 82 85 87 88 88 89 90 82 81 79 78 77 77 76 78 77 76 76 75 75 76 76 73 73 74 75
60 69 67 66 70 72 75 70 70 70 67 55 64 62 63 69 74 79 84 87 89 91 90 90 85 81 79 79 78 76 75 75 76 78 76 74 75 75 74 74 71 71 70 72
57 59 66 70 64 70 69 64 53 51 53 51 67 63 66 74 80 82 83 86 89 88 88 82 80 80 78 77 77 76 75 74 75 76 76 76 75 75 74 74 73 72 68 69
43 43 59 67 64 63 64 63 56 44 48 55 67 58 65 80 84 86 88 87 87 84 85 82 80 78 79 77 76 76 75 74 76 76 76 76 76 75 74 74 72 71 69 69
42 47 65 67 69 69 64 58 69 60 63 58 64 69 75 81 82 85 85 86 83 83 82 81 79 79 78 77 76 76 75 75 76 76 76 75 76 72 73 73 73 71 72 71
48 38 55 62 69 69 66 72 57 62 48 48 60 64 66 74 78 82 82 83 82 83 82 80 79 79 78 78 78 77 76 76 76 76 76 76 73 75 74 74 70 72 71 71
53 43 44 54 58 59 62 62 64 65 63 53 52 62 77 78 81 80 83 85 82 81 81 80 81 80 80 79 78 76 77 77 76 77 77 74 73 73 71 72 70 72 73 72
52 43 37 47 64 70 68 64 64 58 55 62 61 63 81 82 83 84 85 85 83 83 82 82 81 80 80 79 79 77 77 77 78 78 75 72 72 72 71 71 69 72 72 73
43 42 35 44 55 62 60 66 67 66 66 59 57 62 82 83 83 85 84 83 82 81 82 82 81 80 80 79 79 79 78 79 80 80 74 71 71 71 71 71 71 72 71 73
45 38 40 35 46 45 48 62 67 66 58 61 65 67 75 78 79 82 82 82 83 82 81 81 80 81 81 80 80 80 80 80 80 81 74 72 71 71 71 70 71 75 75 74
40 35 43 46 44 42 44 56 66 66 66 61 68 68 74 77 77 80 80 83 82 81 82 80 80 80 81 80 80 81 81 81 81 80 74 72 71 73 72 70 73 74 75 74
44 35 42 40 47 43 43 53 61 69 69 69 71 72 81 80 82 80 81 82 81 81 82 82 82 82 81 81 81 80 81 81 81 77 75 72 72 73 70 71 74 74 73 72
48 38 36 35 39 40 41 55 60 69 74 72 65 74 79 75 76 76 79 82 82 82 83 82 83 82 81 81 80 79 81 81 80 80 77 77 77 76 74 75 73 71 70 70
47 42 39 34 38 32 57 69 71 72 74 77 75 75 76 76 79 80 80 77 82 84 84 83 84 82 82 83 82 81 83 81 81 81 78 80 79 76 76 72 70 69 69 70
55 45 36 34 35 41 52 52 63 68 60 69 68 72 73 75 76 71 78 79 80 82 86 85 86 83 82 82 82 82 82 82 82 82 80 80 79 77 76 71 69 68 68 68
49 50 39 37 30 34 46 56 67 72 52 67 70 68 68 72 68 65 74 78 80 81 83 86 86 84 82 80 80 80 80 81 81 82 82 82 81 74 72 71 71 69 70 69
40 41 37 37 34 40 50 57 66 51 47 66 68 68 67 66 68 71 77 78 81 82 83 87 85 82 80 81 80 79 80 80 83 85 84 82 79 77 75 73 71 71 66 68
35 35 38 40 37 32 50 58 49 51 62 67 68 69 68 71 73 75 77 78 80 82 85 89 85 82 81 82 80 79 78 82 85 85 84 80 77 79 77 73 74 73 68 66
34 37 34 37 35 42 47 54 56 61 62 67 68 70 71 72 73 75 76 79 81 83 85 90 86 82 82 82 81 79 79 83 85 82 80 78 78 77 75 73 72 73 69 67
40 43 38 40 42 44 50 59 62 63 64 68 71 71 72 71 73 75 78 80 81 84 85 89 86 83 80 82 82 82 83 85 85 80 78 77 76 76 75 76 75 74 72 68
42 42 39 40 43 47 51 58 61 62 66 67 70 72 72 73 73 75 76 77 81 85 87 88 87 84 82 83 83 84 85 85 81 79 78 77 78 76 76 76 74 77 72 69
50 44 38 37 46 48 51 58 63 63 64 67 67 69 73 73 73 74 75 77 78 82 86 87 87 85 84 84 84 85 87 85 81 77 79 79 79 77 78 75 71 44 50 48

GFSCGP_sfc_temp_021.txt.gz
Temp
58 50 47 53 57 58 60 59 58 63 71 68 67 68 72 77 75 76 76 76 77 80 79 78 80 80 76 75 73 73 71 71 74 74 72 68 67 69 69 66 71 69 70 70
52 46 57 61 61 59 58 55 56 64 71 67 66 66 73 76 75 77 78 72 74 73 77 80 79 78 75 73 72 71 71 73 72 75 69 69 70 68 72 68 69 70 71 70
48 53 62 60 58 57 56 55 56 57 64 67 64 60 65 72 75 75 76 75 74 73 73 75 77 74 70 70 69 70 70 70 70 71 71 68 68 67 66 66 66 68 70 69
51 60 59 57 56 59 51 63 63 61 57 50 63 48 61 67 70 75 78 77 79 78 81 79 77 67 69 68 69 70 70 70 71 70 69 68 65 63 65 66 66 67 69 69
49 53 54 53 56 63 56 65 62 61 57 55 57 49 59 64 63 66 71 72 72 74 75 74 73 70 69 69 68 68 69 69 69 69 68 67 66 66 66 65 65 65 65 67
54 62 59 57 62 64 66 61 60 59 55 43 54 53 55 59 64 67 71 74 77 76 74 71 72 71 69 69 67 69 68 67 69 68 68 67 66 65 64 63 62 62 62 64
51 53 60 63 54 60 59 51 39 38 40 40 57 53 57 62 69 73 72 73 71 70 70 70 69 69 68 68 68 67 66 65 67 67 67 67 66 66 65 63 62 62 62 62
40 37 52 61 55 50 51 52 41 31 37 44 58 47 57 71 73 73 76 73 70 68 70 69 68 69 69 68 67 66 66 65 66 67 66 67 67 65 64 64 63 62 61 62
36 40 56 56 58 59 52 46 58 48 50 45 50 58 66 72 72 71 74 73 68 69 69 68 68 69 68 68 66 66 66 65 66 67 66 66 65 65 64 64 63 62 62 64
44 34 50 54 57 57 55 59 45 48 36 35 48 52 54 63 68 72 69 69 67 69 68 68 68 68 69 68 68 66 66 66 66 67 66 66 66 67 65 64 63 63 63 64
46 39 41 49 46 45 49 50 50 51 47 40 39 48 65 68 71 68 68 70 69 69 69 69 69 69 69 68 68 66 66 66 66 67 66 69 69 69 65 64 66 63 64 68
42 35 32 40 51 56 52 47 52 43 44 49 46 49 69 69 68 70 70 71 71 71 71 71 70 70 69 69 67 66 66 66 67 67 67 70 69 64 64 63 64 64 64 66
42 33 28 36 45 52 47 53 56 52 49 48 45 50 71 72 72 71 71 72 72 71 71 71 71 70 70 68 69 67 67 67 68 69 70 69 68 63 63 64 67 64 65 66
44 35 33 28 37 42 38 42 46 46 45 48 52 58 63 67 67 70 71 72 72 72 72 71 71 70 71 71 70 69 68 69 68 72 70 68 64 63 63 65 64 68 66 66
40 32 37 40 44 44 41 42 43 41 48 49 56 57 65 64 66 70 71 72 72 72 71 71 70 70 70 68 70 70 69 70 69 72 70 68 64 64 64 66 65 66 67 68
40 34 38 35 44 44 41 44 44 45 46 53 60 62 69 65 70 71 73 73 72 72 73 73 73 72 71 70 70 70 69 70 71 72 70 69 69 69 68 67 67 65 67 68
41 35 33 31 42 41 35 43 45 48 50 53 56 65 68 65 67 64 68 74 74 74 75 74 74 73 71 71 71 68 68 70 71 71 71 71 69 67 68 70 68 65 66 67
40 37 36 33 35 25 44 56 56 51 55 62 66 66 67 68 66 63 64 67 73 76 76 75 74 72 72 69 69 68 70 70 71 73 73 71 70 67 68 69 66 64 62 62
47 40 32 31 31 36 42 46 45 44 49 60 60 60 57 63 65 61 67 67 69 70 74 76 75 73 71 72 70 70 69 70 71 74 72 72 71 68 69 67 63 62 62 62
47 45 36 34 29 28 39 46 50 51 43 55 62 60 62 62 52 54 63 67 69 71 72 76 76 75 72 71 69 69 68 69 70 75 73 73 71 71 69 67 62 62 62 63
34 36 33 33 32 35 44 46 49 42 42 55 62 62 61 55 57 62 65 67 70 72 72 77 76 73 72 73 69 68 68 68 72 78 76 72 70 70 65 63 62 62 62 62
33 32 33 36 32 30 44 46 44 46 50 57 61 63 60 61 64 66 68 70 71 73 74 77 74 73 72 73 71 67 67 71 73 75 74 69 68 72 68 64 62 62 62 60
33 36 32 35 34 43 46 45 50 51 51 59 60 61 62 62 63 66 67 71 72 71 73 77 74 72 72 73 72 67 69 71 73 73 71 70 69 69 66 64 62 62 61 61
40 43 34 38 41 43 46 49 52 59 60 63 62 62 62 61 64 66 68 70 70 68 68 73 75 73 70 73 71 70 71 73 72 69 71 67 68 66 65 65 64 62 61 60
41 41 39 38 44 47 48 48 51 58 63 62 63 63 64 64 64 66 67 67 69 71 71 71 75 74 72 73 71 71 74 73 69 71 71 67 68 68 64 62 60 63 62 67
45 41 37 36 45 46 49 51 55 57 60 63 62 62 64 65 64 66 66 67 66 69 74 72 74 75 75 75 74 73 76 72 69 70 71 69 68 68 66 61 57 45 46 49

GFSCGP_sfc_temp_024.txt.gz
Temp
53 45 44 51 54 54 55 53 52 57 64 62 62 63 67 72 72 69 71 73 77 78 80 78 75 77 75 72 71 69 68 67 70 70 70 69 66 67 64 64 67 67 67 68
47 43 53 57 56 54 52 49 49 56 63 62 61 61 68 71 72 73 74 74 74 75 72 75 75 75 74 74 71 67 68 69 71 73 74 67 69 65 67 66 68 67 67 67
44 48 58 54 52 51 51 49 50 50 58 62 58 55 59 66 68 70 70 73 70 70 71 72 74 73 68 70 68 67 68 69 69 69 69 66 66 65 65 63 63 65 67 67
47 54 53 52 50 53 45 57 56 54 51 44 59 44 57 63 66 69 70 69 70 75 71 72 74 68 67 66 66 67 68 68 69 71 69 71 64 63 63 64 63 64 66 66
45 49 49 48 51 56 50 59 56 55 50 49 51 43 55 59 61 65 68 70 68 70 72 72 72 68 65 66 66 68 68 68 67 67 69 68 64 63 62 62 63 63 63 65
51 58 55 53 57 58 60 55 54 53 46 37 49 47 47 55 61 62 66 69 73 72 71 69 65 66 65 65 67 68 67 66 66 67 66 65 64 62 61 60 61 60 61 62
47 50 56 59 51 55 51 41 33 30 33 36 52 47 52 57 63 67 69 71 73 69 64 62 63 64 64 65 66 66 67 64 65 65 65 64 63 62 62 61 60 60 60 60
37 35 49 57 50 46 45 42 33 26 29 37 53 42 49 65 71 74 75 74 66 61 61 61 62 63 64 65 65 65 66 64 65 64 63 63 64 63 62 61 60 60 60 60
35 38 52 55 55 51 44 41 48 40 45 36 44 51 58 66 68 71 71 65 61 60 60 62 62 63 64 63 64 65 64 63 64 64 63 62 62 62 61 61 61 60 60 62
41 32 48 52 54 53 48 52 39 37 30 28 40 44 47 57 62 66 66 62 60 60 62 62 63 63 63 63 63 63 63 64 63 63 63 64 63 63 62 62 61 61 60 62
40 36 39 46 45 42 42 41 43 42 39 35 31 40 56 58 63 66 62 63 62 62 62 62 63 64 64 65 64 62 63 63 63 63 63 63 63 63 62 61 61 61 61 62
40 34 29 37 49 53 47 43 41 33 35 41 39 44 66 62 66 66 64 65 63 64 63 64 64 65 65 64 63 62 62 64 64 64 63 62 63 62 61 61 61 62 62 62
39 31 25 30 39 47 42 45 44 41 42 40 40 42 67 62 67 64 65 64 65 63 64 64 65 66 65 64 65 63 63 64 64 65 65 67 66 61 61 61 62 62 62 63
44 32 30 22 34 40 37 41 44 39 32 42 45 50 60 63 66 64 64 65 65 64 65 65 65 65 66 67 67 65 64 65 65 67 69 64 62 61 61 61 61 63 63 67
39 31 35 36 39 41 40 41 42 40 40 35 45 48 57 62 63 64 65 66 65 65 66 66 65 66 66 66 66 67 66 65 65 69 68 65 63 62 62 62 63 67 66 67
40 30 36 33 40 41 39 43 44 45 44 43 44 45 59 62 63 65 67 67 65 66 67 68 68 68 67 67 67 67 66 65 66 69 68 67 66 63 64 62 62 62 65 67
35 33 33 28 37 42 33 41 44 46 49 47 41 51 61 59 58 57 66 68 67 68 69 69 69 69 69 69 69 65 65 65 68 70 69 68 65 65 64 66 63 62 65 65
38 33 35 28 32 25 41 47 48 50 54 53 53 56 60 60 62 60 60 67 69 71 71 71 70 70 69 70 67 64 66 66 68 70 70 67 66 65 65 65 62 61 60 60
43 36 32 28 25 37 43 42 42 42 45 52 51 59 58 58 60 59 63 64 69 73 74 72 73 70 68 69 66 68 66 66 67 70 67 67 67 64 65 66 60 60 60 59
45 42 34 32 27 25 37 42 49 48 39 52 52 54 55 58 49 53 59 64 66 71 71 73 72 71 70 66 68 69 66 65 67 72 69 69 67 65 65 66 61 60 60 61
33 35 31 31 24 34 38 42 47 37 42 49 53 54 54 54 56 58 61 64 66 69 71 72 72 71 70 67 70 68 65 65 69 74 72 68 66 65 63 61 60 60 60 60
33 31 32 34 30 29 42 43 42 44 49 50 52 55 56 57 62 61 62 63 66 67 72 73 72 70 69 68 70 67 65 67 71 74 71 67 64 67 64 61 60 60 59 58
32 35 32 33 33 39 44 45 48 48 47 49 51 56 61 58 58 59 61 63 63 65 72 73 69 68 69 68 70 67 68 67 71 70 66 65 65 65 62 60 60 59 58 58
40 41 33 35 41 42 44 48 49 49 49 50 55 61 61 60 59 59 63 64 64 66 67 67 68 68 68 66 69 71 67 69 71 68 65 65 64 61 61 61 61 59 58 58
40 41 38 38 43 45 47 48 49 50 53 53 63 62 60 60 59 59 60 62 66 69 67 67 68 66 67 67 67 68 69 69 69 68 66 66 64 63 60 57 57 61 61 61
42 40 36 36 44 44 45 50 52 50 51 56 59 61 61 61 60 60 60 62 62 66 68 67 65 65 66 68 69 68 70 69 69 67 66 65 65 61 60 57 53 45 47 47

GFSCGP_sfc_temp_027.txt.gz
Temp
51 43 42 48 51 52 49 47 45 53 60 59 58 58 63 67 68 69 71 73 74 74 75 76 76 75 71 69 68 67 66 64 67 66 66 65 65 65 65 66 67 67 67 66
44 42 50 54 53 51 49 45 44 51 58 55 55 55 62 65 66 68 68 68 69 71 73 75 72 71 69 71 68 67 66 64 67 69 69 65 65 63 64 65 66 67 68 67
40 46 56 52 48 47 46 44 46 46 53 57 52 51 55 62 64 68 70 70 69 67 69 71 71 70 69 68 67 66 65 65 66 65 65 64 65 64 62 62 63 65 66 65
43 51 50 48 47 49 41 52 52 50 46 39 53 39 53 60 62 63 66 67 65 68 70 67 71 69 67 67 66 65 65 65 66 67 65 68 66 66 61 64 62 62 65 65
42 46 45 45 48 52 45 53 51 50 45 41 44 38 51 56 56 62 66 66 69 70 67 69 70 69 67 66 64 65 66 66 65 65 68 67 64 62 64 64 62 61 62 64
47 55 51 49 54 54 56 50 48 47 42 31 44 41 46 52 56 58 62 64 67 67 67 67 66 64 60 64 65 66 66 65 65 66 65 66 64 62 61 60 60 60 60 60
45 46 53 55 46 51 49 38 28 27 29 32 47 43 48 53 58 60 61 64 66 66 66 63 56 59 62 65 64 65 65 62 63 64 64 64 63 62 61 61 60 59 58 59
33 32 47 55 49 43 42 39 29 25 28 33 49 39 47 58 63 67 69 68 64 64 60 58 59 60 63 64 63 64 64 62 62 63 62 61 61 60 60 60 60 59 59 60
35 37 50 54 54 50 41 36 46 36 38 33 38 45 55 61 65 63 63 64 63 61 57 58 60 62 63 62 62 63 63 62 62 61 61 60 61 61 60 60 60 59 59 61
40 31 45 51 51 52 46 49 36 32 28 26 35 39 44 51 59 58 60 61 59 56 57 59 61 61 61 61 61 62 64 62 62 61 62 62 60 61 60 60 60 60 59 60
39 33 37 44 41 39 42 38 40 40 35 28 29 35 51 55 56 58 62 63 56 56 58 60 60 61 61 61 61 62 63 62 61 62 61 61 60 61 60 60 60 59 59 60
39 32 28 35 45 49 46 40 40 31 33 35 35 38 61 55 58 61 64 60 56 58 59 60 60 61 61 61 62 61 62 63 62 63 62 60 60 60 59 60 60 60 60 60
37 30 25 29 36 43 39 44 41 37 35 33 32 38 59 59 59 61 59 55 59 58 59 60 60 61 61 62 62 62 62 63 62 62 60 60 59 59 59 60 60 60 60 60
43 31 30 23 31 36 33 40 41 37 29 35 40 44 53 56 53 59 56 58 56 59 60 60 60 61 62 63 63 63 61 63 62 63 62 60 59 59 59 60 59 60 61 62
36 30 33 35 38 38 37 37 40 37 38 33 39 40 52 51 56 58 59 59 59 60 60 61 60 61 62 61 63 63 62 62 62 63 61 60 62 60 60 60 60 61 62 65
40 30 34 33 39 40 34 38 40 42 42 41 42 42 56 59 59 59 61 61 60 61 62 63 63 63 63 63 64 64 62 62 63 63 66 65 65 61 60 60 61 61 62 66
35 33 29 27 38 36 31 38 39 42 45 44 38 49 59 55 56 56 58 63 62 63 64 64 64 65 65 64 65 61 63 62 64 67 67 65 62 62 62 61 61 60 63 63
35 33 32 28 32 22 39 47 47 45 47 49 49 52 55 55 57 57 58 61 65 66 65 66 66 66 65 64 64 61 62 62 67 68 67 64 63 62 62 61 60 59 60 61
40 34 29 26 27 34 40 42 41 38 41 49 49 49 54 56 56 56 61 61 63 67 68 68 68 67 65 63 62 63 61 63 65 68 64 64 64 62 62 60 58 57 57 57
41 40 32 29 25 24 36 41 46 44 35 47 50 49 48 52 49 51 60 62 60 67 67 68 68 68 67 64 63 62 61 62 63 65 65 65 64 63 61 60 58 58 58 58
33 33 29 29 27 33 40 41 45 35 36 48 50 48 48 49 52 57 60 61 62 65 67 68 68 67 67 63 64 62 61 62 65 68 70 64 63 62 61 59 58 59 58 59
32 30 31 31 29 27 41 39 40 43 48 49 48 48 50 53 56 58 61 62 63 65 68 69 68 67 64 66 66 61 62 65 66 68 67 64 62 65 62 59 59 59 58 57
31 33 31 32 32 37 40 40 43 49 47 49 49 50 52 54 55 56 58 61 63 65 69 70 69 65 65 67 68 62 64 64 66 66 63 61 61 62 60 59 58 57 57 56
38 40 33 34 38 38 42 47 49 49 48 50 53 54 55 54 55 56 58 62 63 64 64 68 67 67 64 64 67 68 63 66 67 64 61 60 60 59 59 59 58 58 57 56
40 41 37 35 41 43 46 47 48 49 50 52 55 58 57 56 56 57 58 59 62 62 64 65 68 66 66 66 66 64 65 66 64 64 63 60 59 59 58 56 56 58 58 57
43 38 36 35 43 42 44 47 50 49 48 51 51 55 56 56 56 57 57 58 59 61 62 63 62 63 64 67 67 64 67 66 64 63 62 61 60 58 57 55 53 45 46 46

GFSCGP_sfc_temp_030.txt.gz
Temp
47 41 39 45 50 48 47 44 42 48 55 54 54 56 60 63 62 65 67 69 70 72 76 71 71 71 70 67 66 64 63 63 66 64 63 63 65 64 65 66 67 67 67 66
41 37 47 51 50 48 45 41 41 48 54 51 50 50 55 58 60 63 65 66 65 66 65 69 69 69 66 68 66 64 62 62 66 67 64 65 64 65 65 66 66 67 67 67
37 43 51 50 47 45 43 42 42 43 51 54 49 48 53 57 60 64 66 66 67 67 64 69 71 67 68 65 66 66 62 62 64 64 64 62 63 62 62 63 64 66 68 68
40 47 47 45 45 46 38 48 48 47 43 37 48 35 49 55 57 60 62 64 65 63 66 67 67 67 69 69 65 63 62 63 64 65 64 64 62 61 62 63 64 64 66 66
41 43 42 41 44 49 43 51 48 46 42 37 41 35 48 52 52 55 61 65 67 66 64 64 68 69 67 64 62 62 63 64 64 65 66 65 62 61 64 64 64 62 64 65
44 50 48 46 51 51 53 47 45 42 38 29 40 39 42 49 54 54 60 61 64 64 63 63 64 63 61 62 64 65 64 62 64 65 64 64 63 63 62 62 62 62 61 63
40 42 51 51 43 47 45 36 25 24 25 29 43 39 46 50 55 55 57 60 61 61 61 61 60 59 62 65 66 65 63 62 62 63 64 64 63 63 63 63 61 60 60 60
30 30 43 51 45 40 39 37 27 24 25 30 45 35 43 55 60 61 60 61 61 61 60 59 58 60 66 65 65 63 62 61 62 63 62 63 64 64 64 62 62 61 60 61
33 33 48 47 49 48 40 34 42 33 35 29 35 41 51 59 58 59 59 61 60 60 58 57 60 64 64 63 62 62 62 61 62 61 62 62 62 62 61 60 61 61 61 62
40 32 44 47 49 49 43 46 33 30 26 25 32 36 40 49 50 56 57 57 59 58 56 60 62 63 60 60 61 61 62 62 61 62 62 62 61 62 61 62 61 61 61 62
39 34 36 42 39 38 40 36 37 35 31 27 27 33 46 52 54 54 55 60 59 54 59 61 61 62 59 60 61 61 62 61 61 62 62 62 61 62 61 61 61 61 61 61
38 32 29 34 43 45 40 37 38 30 31 33 30 33 52 52 53 53 57 56 54 55 60 61 61 61 60 60 61 61 61 62 62 62 62 62 61 61 60 60 61 61 61 62
36 30 25 30 36 40 35 39 38 35 32 29 29 35 53 55 53 56 54 55 55 59 59 60 61 60 60 60 61 62 62 62 62 63 61 60 60 60 60 60 61 61 62 62
41 29 28 22 30 34 31 36 38 35 27 32 36 39 50 54 50 56 57 56 55 60 60 60 60 59 60 61 62 62 61 63 62 62 61 60 60 60 60 61 61 61 62 63
35 29 30 33 36 37 35 35 36 35 38 30 36 37 46 49 51 57 57 57 56 58 60 60 59 59 59 60 61 62 62 62 62 62 61 60 60 61 61 61 61 62 63 65
36 29 33 32 36 36 33 38 36 36 37 38 39 39 51 54 55 56 58 59 57 58 60 60 60 60 61 62 62 62 62 61 63 62 62 62 63 61 61 61 61 62 64 66
34 33 30 23 35 34 27 35 36 38 41 41 34 44 53 51 54 53 56 59 59 60 61 61 61 62 62 62 63 61 61 61 63 64 64 64 62 62 62 62 62 61 62 64
35 33 29 24 25 15 35 43 44 42 44 45 46 50 54 52 55 55 56 57 60 62 62 62 63 62 62 62 62 61 61 62 64 65 66 64 63 62 62 62 61 61 62 62
39 35 28 21 23 32 38 40 39 37 38 46 46 51 53 53 54 55 60 60 61 62 64 64 64 62 61 62 61 62 61 62 65 66 64 64 64 62 62 61 59 60 60 59
40 39 31 28 23 21 33 40 44 43 33 49 49 50 50 48 45 51 59 60 60 62 64 64 64 63 61 61 61 61 60 62 63 65 65 65 64 63 62 61 59 60 60 60
32 32 28 28 26 30 39 41 42 33 34 47 49 49 48 46 51 55 59 60 61 62 64 64 64 63 63 60 62 60 60 62 65 67 66 65 64 62 62 60 61 60 60 60
31 30 28 30 27 25 39 38 36 41 48 48 49 50 49 48 54 57 58 59 61 63 64 67 65 62 62 62 63 60 60 63 66 67 66 64 62 65 63 61 60 60 60 59
30 32 30 32 32 37 38 37 41 42 43 49 49 51 50 50 53 55 57 60 60 62 63 68 67 63 62 63 65 61 62 64 65 64 63 62 62 62 61 60 59 59 59 58
36 38 32 33 36 37 41 43 48 49 48 51 53 55 53 51 53 55 57 59 59 62 63 66 65 64 62 64 64 66 62 65 65 63 62 61 61 60 61 62 61 59 59 59
39 41 37 36 39 42 42 45 48 49 50 50 52 54 54 52 53 55 56 58 60 60 63 63 65 65 64 64 64 63 64 66 64 62 62 61 61 61 60 59 59 61 61 60
42 39 36 35 42 41 43 46 49 47 47 49 49 50 54 54 53 55 54 56 58 59 61 61 62 62 63 66 64 63 66 66 63 62 62 62 61 61 60 58 56 43 47 48

GFSCGP_sfc_temp_033.txt.gz
Temp
56 50 46 52 54 55 55 52 53 59 64 63 61 63 67 72 72 72 74 75 76 77 82 84 82 83 83 81 79 79 78 77 76 77 76 76 76 76 75 76 74 75 75 75
50 45 53 55 55 52 52 50 50 55 60 59 61 59 65 67 68 71 71 73 74 77 79 80 81 81 80 79 79 79 78 76 75 77 77 78 78 74 74 74 75 75 75 74
47 51 55 52 51 49 51 48 50 50 56 60 57 54 59 67 69 70 73 74 75 75 75 77 79 79 80 79 78 79 79 75 75 77 76 75 74 70 71 70 69 72 74 74
49 56 51 51 49 52 45 55 54 52 50 45 57 45 58 63 64 67 69 71 73 75 77 77 79 79 79 79 81 78 77 74 75 74 75 73 77 72 74 70 71 70 74 74
46 49 49 48 50 54 48 56 53 52 50 49 51 46 54 63 61 66 69 71 73 75 77 77 79 80 80 80 77 75 75 74 74 74 76 76 76 77 76 75 71 71 73 75
49 57 52 52 55 55 57 53 52 52 49 39 48 47 51 58 62 66 70 74 75 76 76 77 78 77 76 77 76 75 74 73 73 74 74 75 73 73 74 73 73 73 75 75
46 47 53 54 49 54 52 47 38 35 36 36 51 46 51 62 65 67 68 72 75 76 76 76 77 77 77 75 74 71 73 72 73 74 74 74 73 73 72 73 74 70 73 74
33 31 46 53 50 48 49 47 39 30 34 39 50 42 53 64 69 69 71 72 74 74 77 75 75 75 75 73 70 69 73 72 73 74 73 74 74 76 76 76 71 75 76 75
31 37 50 52 54 54 48 43 53 42 45 42 46 52 60 64 66 69 71 72 72 73 73 73 73 72 73 69 68 73 73 73 74 73 73 73 74 75 74 72 73 75 74 74
41 31 46 46 53 53 49 55 41 44 33 33 44 46 51 58 63 65 67 68 70 71 70 69 69 69 67 68 72 73 74 73 73 74 75 75 74 74 73 73 72 73 73 74
45 39 41 47 43 35 42 41 48 48 46 38 39 47 59 59 61 62 66 68 68 67 67 65 65 66 67 72 73 72 73 73 73 74 73 73 73 73 74 73 73 73 72 72
45 39 34 40 50 51 48 44 46 40 40 45 43 45 62 61 63 63 66 68 70 63 63 64 64 66 69 73 73 73 73 74 74 75 74 73 73 73 72 72 73 73 72 73
45 38 32 37 43 47 43 46 46 45 45 40 39 45 62 63 64 63 65 69 71 64 63 63 64 67 70 72 73 73 74 74 75 75 74 73 72 72 71 72 72 73 73 73
47 40 36 31 37 41 39 42 45 42 39 42 43 47 55 59 59 61 65 68 71 67 63 63 64 68 70 72 73 74 74 75 75 76 75 72 72 72 72 72 72 73 74 74
44 34 39 40 41 42 41 41 43 41 43 38 45 47 53 56 57 61 65 67 70 69 63 63 63 67 70 72 73 74 74 75 75 75 74 72 72 73 72 72 72 73 73 75
40 33 38 34 41 42 39 43 44 43 44 44 45 44 56 57 61 63 65 68 69 70 65 64 64 68 70 72 73 73 73 74 76 75 73 73 73 73 72 71 72 72 73 74
35 35 34 31 40 39 34 42 43 45 48 46 41 49 56 55 58 62 64 65 66 69 69 66 66 70 71 72 73 73 74 75 75 75 74 73 73 72 72 72 72 72 72 68
35 36 36 31 32 22 44 49 48 45 48 52 51 52 57 57 63 64 65 65 67 70 70 70 71 71 72 74 74 75 75 75 75 75 75 74 74 73 72 72 72 71 68 66
39 35 32 29 29 36 41 41 39 37 40 52 51 54 57 59 62 60 67 70 69 72 73 73 74 73 73 73 74 75 74 75 76 76 75 74 74 73 72 72 71 71 68 64
37 39 33 33 26 25 38 43 43 43 34 54 55 54 55 58 48 59 69 70 70 73 74 73 74 73 73 73 74 72 73 75 75 76 76 76 76 74 72 72 70 70 71 70
32 32 29 29 27 33 40 41 43 32 39 47 52 53 54 50 54 64 65 68 72 72 73 75 74 73 73 73 73 72 74 74 77 78 77 76 75 74 73 71 70 70 69 69
32 31 31 31 28 27 38 38 34 41 43 44 46 55 55 55 57 59 63 68 69 70 73 75 74 73 73 74 73 73 73 77 77 77 77 75 73 75 73 71 71 70 68 68
32 33 32 32 33 39 40 35 39 41 39 42 45 54 55 58 60 63 66 69 69 69 73 75 75 73 73 74 75 74 75 76 77 76 73 74 74 74 73 71 70 69 68 69
37 38 32 33 38 39 42 44 47 49 47 51 54 55 58 57 59 62 66 68 68 67 71 74 72 73 72 74 75 77 76 78 77 75 69 73 73 72 73 74 73 70 68 68
42 41 37 36 40 42 44 44 46 48 50 50 55 54 54 59 60 61 64 65 65 65 67 73 72 74 74 75 75 78 77 78 75 74 68 73 74 73 72 72 72 71 72 69
47 39 35 35 42 42 44 47 48 47 47 48 48 49 51 54 57 61 61 63 63 65 68 68 69 73 76 75 76 77 79 78 76 74 73 75 75 74 73 71 68 43 46 45

GFSCGP_sfc_temp_036.txt.gz
Temp
66 58 55 60 62 63 62 61 61 66 72 70 69 68 72 79 79 80 82 84 85 87 91 92 92 92 91 89 88 88 88 86 85 88 87 87 87 87 86 87 84 83 82 81
59 53 61 63 61 58 59 56 57 64 66 68 67 66 73 76 78 80 80 81 83 85 87 89 90 90 88 87 87 87 87 87 84 88 86 90 88 89 88 86 80 82 81 80
53 58 63 58 57 54 55 53 55 57 64 66 64 61 66 74 77 79 80 81 82 82 83 85 87 88 89 88 87 87 86 86 84 85 86 84 85 84 82 79 78 78 79 77
56 62 58 57 54 57 50 60 59 57 55 50 64 49 63 69 71 75 78 79 81 83 85 86 86 86 87 89 90 89 86 85 85 83 85 81 83 81 83 81 75 74 76 76
53 56 55 53 55 59 53 61 58 58 55 54 56 53 61 69 67 72 76 79 81 83 85 86 88 89 91 91 89 88 85 84 84 83 84 83 83 86 84 82 70 73 75 76
56 63 59 57 60 60 61 56 55 55 52 43 54 54 57 63 68 73 78 81 82 84 86 88 89 89 88 90 88 86 83 82 83 82 81 81 82 83 83 79 72 76 77 79
53 54 60 61 54 59 57 49 38 36 39 39 56 53 57 68 73 74 75 79 82 84 85 86 87 88 88 86 87 86 84 82 82 82 81 82 81 80 79 79 81 80 78 79
38 37 48 57 55 50 52 48 40 31 37 44 55 47 58 71 75 77 79 80 81 82 85 86 87 87 88 87 86 84 83 82 82 82 81 82 81 84 83 84 82 83 83 82
39 38 53 56 56 57 50 42 55 45 48 45 54 57 65 71 72 74 76 77 79 80 82 83 85 86 86 84 79 81 82 81 81 81 81 80 83 82 82 79 80 83 82 81
46 35 52 49 50 57 52 56 34 46 32 35 49 53 55 64 66 73 73 74 76 78 79 81 82 83 81 78 82 82 82 81 81 81 82 82 81 81 80 80 80 80 80 81
52 44 45 54 48 46 48 44 45 46 47 39 44 52 68 67 70 70 72 74 76 77 75 76 78 74 73 82 82 81 81 81 81 82 81 81 81 80 81 80 80 79 79 79
53 45 40 46 56 57 46 42 39 34 40 49 45 52 70 68 70 69 71 75 78 78 67 68 68 70 81 82 82 81 81 82 82 82 81 80 80 80 79 79 79 80 79 80
50 44 37 44 49 52 48 52 48 47 44 40 45 53 69 71 70 71 70 73 77 79 67 66 67 70 77 81 82 82 82 82 83 82 81 79 79 79 78 78 78 79 79 79
48 44 41 36 43 50 45 48 52 50 42 44 49 53 63 66 67 69 69 71 76 78 72 66 67 70 75 80 82 83 82 83 82 82 81 79 78 78 78 78 78 79 80 79
45 38 44 48 50 50 48 48 49 48 50 45 49 52 61 65 67 68 68 71 74 77 78 66 66 68 73 77 80 82 82 83 82 81 80 78 78 79 79 78 78 79 79 80
42 36 43 41 47 48 46 50 50 51 51 52 52 52 64 66 68 67 69 71 73 75 78 69 67 68 71 75 80 81 81 82 82 81 80 80 79 79 77 77 77 78 79 80
36 36 37 35 46 45 40 49 52 53 55 54 49 57 64 63 64 66 68 70 72 75 77 70 67 71 74 76 77 80 81 82 81 81 81 80 79 79 78 78 78 77 77 76
35 36 39 36 36 27 49 57 55 52 55 58 58 60 63 64 68 70 73 72 73 75 77 73 70 75 75 77 82 82 83 82 82 82 81 81 80 79 78 78 77 76 76 74
38 37 36 33 34 41 46 50 46 37 44 57 59 62 64 67 68 67 72 74 75 78 77 77 74 77 76 79 82 82 82 83 82 82 81 81 79 78 77 77 76 76 75 73
38 39 35 36 27 25 38 43 48 48 37 59 59 60 62 64 57 66 73 74 77 78 80 76 77 81 80 81 81 80 81 81 82 81 80 80 82 79 78 77 76 77 77 76
33 33 31 34 29 35 45 43 43 32 42 50 53 51 55 59 65 71 72 70 71 75 78 78 81 80 79 81 81 79 80 81 81 81 81 81 81 79 79 77 77 76 76 77
33 32 33 35 31 28 41 38 34 47 50 49 51 50 53 62 66 68 69 70 69 74 78 79 80 79 80 81 80 79 78 82 82 82 82 81 79 81 79 76 75 75 73 72
33 34 33 33 34 41 43 38 40 40 39 46 51 52 54 60 65 68 69 72 73 75 78 83 82 80 80 81 81 79 80 83 84 82 80 79 79 80 79 75 74 72 72 70
45 39 33 34 41 41 44 45 46 48 51 52 50 51 58 61 66 66 71 73 75 75 76 83 82 80 79 81 82 82 83 85 83 80 79 79 79 78 78 78 74 72 72 73
46 42 37 38 44 46 44 46 46 47 50 51 54 55 58 59 62 66 70 73 77 74 79 83 82 81 80 82 82 83 84 85 81 77 80 79 80 78 77 75 72 73 72 69
51 42 37 38 46 43 43 47 47 46 48 50 49 51 54 57 59 63 70 74 76 74 72 80 81 81 81 83 83 84 86 84 81 76 80 82 81 80 80 78 73 44 45 44

GFSCGP_sfc_temp_039.txt.gz
Temp
69 63 59 64 67 67 65 63 62 69 78 75 72 74 77 82 81 80 83 87 89 90 96 98 99 98 97 94 91 90 89 88 90 91 90 91 92 92 92 92 91 90 87 83
63 58 66 67 66 63 62 59 60 66 72 72 69 69 76 80 81 81 81 84 87 89 92 94 95 95 93 92 90 89 88 87 88 91 88 92 94 95 93 92 89 87 86 84
57 62 67 65 62 59 60 57 57 58 66 69 67 63 68 78 81 83 83 84 87 87 88 90 92 92 93 92 90 88 88 87 88 87 89 89 90 90 90 89 86 85 84 83
60 66 62 61 59 61 54 63 62 59 57 51 66 52 64 71 74 78 81 83 83 85 88 88 88 89 90 92 93 91 89 88 88 87 86 85 85 85 88 87 86 81 81 79
56 59 60 58 59 63 57 64 61 60 57 56 57 54 61 71 70 74 78 82 84 85 85 86 89 91 93 94 92 91 90 88 87 85 85 88 84 88 88 87 79 75 75 76
61 66 62 61 63 63 65 60 60 59 56 46 54 55 57 64 69 75 81 84 85 87 88 89 90 92 92 94 94 92 88 86 86 86 84 84 83 86 85 82 73 72 73 75
56 57 58 63 55 62 60 53 43 41 42 42 56 52 56 68 74 77 79 83 86 88 89 89 90 90 90 91 92 91 89 85 86 85 85 84 85 85 82 75 74 74 74 76
42 40 53 58 56 53 53 53 44 33 36 42 55 46 56 71 77 81 81 82 84 86 88 88 89 90 92 91 90 89 88 85 85 84 84 84 85 87 85 81 83 81 79 79
42 42 58 60 61 60 53 48 55 44 46 39 45 51 63 71 74 77 78 81 82 84 86 87 89 90 91 92 90 89 87 86 85 85 84 83 83 85 85 83 82 79 80 82
51 41 54 58 61 62 56 57 38 46 35 33 45 49 52 63 67 75 77 78 79 82 83 85 87 89 90 91 87 86 87 85 85 85 84 82 83 84 82 81 81 81 80 83
56 49 48 56 53 50 50 45 52 44 43 38 38 44 64 66 71 72 77 77 79 81 79 81 85 87 85 86 87 84 85 84 80 80 80 77 79 80 80 82 82 81 81 81
56 48 41 49 60 61 58 50 49 38 34 44 45 46 64 63 78 76 75 76 81 82 76 74 74 76 84 87 87 85 84 83 83 78 78 77 78 82 81 81 81 82 81 83
47 47 37 45 53 51 46 51 52 50 43 37 33 38 57 71 72 73 72 74 78 81 76 73 70 78 86 86 86 86 86 86 85 80 79 81 81 81 80 81 81 82 82 81
49 44 41 37 45 37 35 46 53 49 40 42 43 44 40 52 68 73 73 74 77 80 76 70 68 73 81 84 86 85 85 86 86 85 83 81 80 80 81 81 81 81 82 81
42 36 44 48 52 51 51 53 54 51 51 45 49 49 49 51 56 67 73 74 76 79 79 71 65 70 75 78 79 85 86 86 85 84 82 80 81 81 81 81 81 81 81 81
46 37 44 43 51 53 50 54 55 55 55 55 54 53 63 66 69 70 71 73 73 77 80 74 68 71 72 76 82 84 85 85 85 82 81 81 81 81 80 79 75 80 79 75
41 43 40 37 49 48 43 53 55 56 59 58 52 60 67 66 67 69 70 72 74 76 79 73 70 69 71 77 79 83 84 85 83 83 83 83 78 76 77 78 78 79 73 74
37 41 42 36 40 30 52 61 60 56 58 61 62 64 67 68 71 72 75 74 75 77 79 74 71 69 71 79 84 84 85 84 84 84 84 84 80 76 76 75 78 74 71 77
41 38 35 33 33 42 46 47 46 45 49 58 57 62 67 70 71 69 75 77 77 78 81 77 74 76 78 79 84 84 84 85 85 84 84 82 78 76 75 74 74 71 75 75
42 39 35 36 29 26 40 43 50 47 39 54 56 62 63 67 59 66 77 78 76 71 69 74 77 74 76 81 84 83 84 85 84 83 79 80 84 81 75 78 71 72 76 76
35 34 31 35 31 38 45 42 42 33 40 47 54 56 59 58 63 71 76 75 73 68 65 76 78 75 78 84 83 82 83 83 81 81 79 81 83 81 79 77 72 72 75 74
35 33 34 36 32 30 45 41 34 46 49 47 51 56 59 61 65 67 73 73 65 64 76 72 73 78 83 84 83 82 81 81 79 80 80 83 81 83 82 77 71 72 72 74
35 36 33 34 35 48 47 42 44 44 40 44 47 54 59 60 63 66 72 67 65 70 72 76 79 83 83 84 84 81 81 79 78 77 82 81 80 77 78 74 76 72 73 71
49 41 34 36 46 44 45 45 45 45 46 53 57 53 55 52 63 67 69 64 64 71 69 77 84 82 81 84 84 84 81 83 79 82 81 81 77 73 73 78 75 73 71 70
50 45 44 40 44 45 46 48 46 46 48 51 54 56 59 59 64 66 64 66 65 67 71 81 83 82 82 84 84 85 85 82 77 81 81 80 77 74 74 68 67 71 65 62
53 49 42 36 48 43 44 50 49 46 47 49 50 52 55 59 59 65 61 63 65 67 74 84 83 83 83 84 85 86 85 83 79 81 82 81 82 77 74 76 71 43 45 42

GFSCGP_sfc_temp_042.txt.gz
Temp
70 62 58 63 66 66 64 62 60 66 72 69 68 72 76 81 80 79 81 82 82 84 89 93 93 92 91 86 84 82 82 82 83 82 80 80 81 81 83 83 84 84 82 81
62 57 66 69 67 64 61 58 57 63 68 67 65 65 72 78 80 81 81 80 82 85 87 88 89 90 87 84 82 81 81 80 81 82 79 80 81 84 85 84 83 84 82 81
57 61 68 65 62 59 60 57 57 57 63 66 62 59 66 74 78 80 81 84 84 82 82 85 88 88 88 85 82 82 80 79 80 79 80 79 80 81 82 82 81 81 82 80
59 65 63 61 58 61 53 64 62 59 55 48 62 47 60 67 71 75 77 80 83 83 84 84 86 86 86 87 88 85 81 79 80 80 80 76 79 78 80 81 81 80 80 80
55 59 59 56 58 63 57 64 60 59 55 53 54 49 56 65 65 71 76 80 82 83 84 84 84 84 86 86 83 81 81 80 80 79 79 79 78 80 82 81 78 77 77 77
60 68 63 60 62 61 62 57 57 57 54 43 51 51 52 59 64 70 76 81 82 84 85 86 87 84 82 85 87 83 80 78 79 81 79 78 78 78 80 78 75 74 73 72
57 58 61 59 53 60 57 51 39 39 40 40 55 51 55 64 69 72 74 79 82 83 85 85 86 86 84 85 85 85 81 78 80 79 79 78 78 78 79 74 73 71 70 71
44 41 53 57 53 51 51 39 33 29 34 41 54 44 52 66 69 74 76 77 82 82 85 86 86 86 89 86 84 83 81 79 79 78 78 79 79 79 77 75 74 73 71 73
44 44 60 61 62 59 52 48 47 40 45 37 47 53 62 67 67 70 73 76 78 80 82 85 87 85 86 86 83 82 82 79 79 80 79 78 79 80 76 76 75 75 75 76
53 42 55 59 61 54 53 59 44 41 28 30 41 45 49 59 64 68 71 74 77 82 83 84 85 85 85 86 85 82 82 82 82 81 81 81 80 81 78 78 76 76 75 76
56 49 47 53 52 51 52 49 48 43 40 33 33 42 61 53 51 50 64 74 77 79 81 83 84 86 87 86 84 82 83 82 81 80 80 79 80 79 79 77 76 76 76 76
54 46 40 46 58 62 58 53 46 40 37 42 42 42 58 52 48 50 49 68 75 80 78 80 81 80 84 84 84 83 82 79 78 80 78 77 77 77 76 75 75 77 76 77
46 42 33 40 52 52 45 47 51 49 44 38 35 40 59 48 44 49 46 62 72 76 76 76 77 78 81 84 82 79 78 76 76 75 73 74 72 74 75 74 76 77 77 77
46 39 36 32 41 39 33 40 47 48 38 40 42 44 50 44 45 48 51 51 74 75 75 73 71 76 79 81 78 78 74 76 75 75 75 74 75 76 76 76 77 77 78 77
40 36 43 46 48 49 46 43 48 47 49 43 48 48 52 50 49 51 53 57 73 74 75 72 69 73 74 73 76 77 77 76 77 76 77 76 76 77 77 76 76 77 76 76
45 36 43 42 49 50 47 52 53 54 54 53 53 51 62 63 59 58 62 70 71 74 76 74 74 73 68 73 73 76 78 78 82 79 78 78 78 78 76 76 75 73 72 73
38 39 39 35 46 42 39 51 51 54 57 56 50 56 63 62 64 65 68 70 71 74 76 74 74 70 73 75 75 74 80 82 80 80 80 79 78 77 73 75 73 70 71 71
40 40 40 36 40 28 48 56 53 48 52 53 55 57 60 61 68 71 73 72 72 75 77 77 73 71 72 74 75 79 82 81 81 80 80 80 78 75 72 72 69 69 71 70
46 38 35 33 34 40 44 46 44 41 41 53 52 56 61 65 67 67 74 75 75 76 73 73 73 72 71 75 78 81 81 82 82 82 80 77 75 73 72 71 69 70 70 68
47 42 35 34 28 26 38 42 46 48 36 49 51 51 55 59 55 63 69 70 76 73 70 71 72 72 76 74 78 80 81 81 81 82 78 78 76 74 72 70 69 70 70 70
37 35 31 32 31 37 40 44 44 31 39 47 49 50 50 51 54 62 69 67 74 72 67 67 71 71 75 75 79 79 80 80 80 82 81 80 75 75 71 70 71 71 70 70
35 33 33 34 31 29 47 41 34 42 44 44 45 47 49 54 59 65 66 69 70 69 67 67 70 74 77 78 80 80 77 80 81 81 81 77 75 78 75 70 69 71 71 67
37 38 35 35 35 48 47 42 44 45 41 42 44 52 53 55 58 62 64 68 68 66 66 67 72 78 74 81 81 77 77 80 80 79 75 77 76 75 73 69 67 68 68 66
50 44 35 38 45 45 46 47 47 46 44 47 50 55 58 57 60 61 62 65 62 64 64 66 77 74 77 81 80 78 79 81 80 74 75 73 72 73 72 73 69 67 66 66
49 45 44 42 46 46 46 47 46 47 47 48 51 53 56 56 57 59 60 61 61 64 63 69 69 77 80 82 80 79 80 80 76 76 73 72 71 70 64 58 58 63 55 58
53 46 43 38 47 44 45 48 51 46 46 48 49 50 53 55 56 59 58 60 61 62 63 65 75 78 81 82 81 81 83 77 78 76 73 73 73 72 71 67 60 43 43 41

GFSCGP_sfc_temp_045.txt.gz
Temp
60 49 44 52 56 57 57 54 52 57 63 58 57 58 63 69 69 72 74 76 77 80 84 85 83 79 79 76 75 76 75 75 76 71 71 69 71 70 71 73 75 75 76 76
52 45 57 62 61 58 55 51 50 57 62 59 56 55 62 65 66 69 70 74 76 74 77 82 85 86 77 76 75 74 76 75 76 76 72 72 71 71 73 74 76 75 76 76
47 53 63 60 56 54 53 50 50 51 58 59 55 51 56 63 66 70 72 70 71 72 75 79 79 78 78 74 73 75 76 77 77 76 70 69 69 69 70 70 77 73 75 74
51 59 58 55 54 56 47 57 56 53 49 40 53 38 50 57 60 64 68 69 67 70 73 79 78 76 76 75 73 74 73 72 75 74 70 71 76 72 73 71 72 71 74 73
49 53 53 52 53 56 48 57 53 51 46 45 46 39 47 54 55 59 63 69 71 69 70 71 73 75 75 76 73 72 72 73 75 75 76 73 68 69 69 70 70 70 70 72
55 63 58 53 57 56 54 50 50 48 43 33 43 42 44 49 55 60 65 68 72 75 74 73 74 76 73 73 74 72 70 73 75 74 72 70 68 69 69 69 68 67 67 69
51 52 58 57 47 51 49 38 30 25 27 30 47 43 46 54 60 62 62 65 70 72 69 73 77 73 78 71 71 73 70 71 73 73 73 72 70 69 70 69 68 67 66 66
34 34 51 55 48 44 43 39 27 22 27 29 41 37 45 58 63 60 63 65 67 69 71 70 71 78 78 79 76 71 72 69 70 72 72 70 72 70 70 70 69 67 66 66
36 39 56 58 58 55 44 35 45 30 35 29 36 44 52 53 50 51 52 55 53 52 68 73 75 70 74 77 78 78 78 74 71 73 71 69 69 70 69 68 68 67 67 68
45 35 51 55 55 54 46 48 30 33 24 24 34 37 38 43 43 48 49 51 51 54 64 74 71 72 71 72 72 72 71 71 70 69 71 71 70 71 70 69 68 67 67 69
45 39 41 48 45 42 46 36 36 34 32 28 24 31 48 42 44 45 48 53 52 53 60 64 69 71 70 72 70 69 69 71 70 71 70 70 71 72 71 70 69 69 69 69
42 37 33 39 50 54 51 44 36 30 29 32 31 32 48 45 48 48 49 52 52 55 56 59 61 70 70 70 70 71 71 73 73 74 72 70 70 72 71 70 71 70 69 70
40 33 27 34 42 43 38 43 42 39 36 31 28 32 55 48 47 50 48 51 52 55 58 59 60 64 68 70 73 71 73 74 73 75 70 69 69 69 69 69 70 73 71 70
44 37 32 27 34 37 35 40 44 41 29 34 37 40 47 45 47 49 51 51 53 57 58 57 54 60 67 68 69 70 70 72 72 71 69 68 68 69 68 71 71 71 72 72
41 33 37 39 41 43 43 43 45 40 41 35 41 44 48 45 48 51 53 54 55 58 60 62 57 64 64 68 71 71 70 71 72 71 71 70 69 71 71 71 71 70 69 69
41 33 36 34 42 44 42 44 44 46 49 44 45 44 54 52 53 52 55 59 61 61 65 70 66 66 66 66 67 70 72 73 74 73 71 72 71 70 68 68 71 68 66 67
33 34 34 28 43 41 33 43 44 45 45 43 37 43 54 53 54 55 56 58 61 68 68 67 68 66 63 64 69 69 72 73 73 73 73 72 71 70 71 73 68 69 69 69
35 35 35 29 34 23 42 48 49 43 47 47 47 51 53 53 57 58 64 58 62 64 63 65 66 62 62 64 68 71 76 75 74 73 73 72 72 69 71 67 69 67 68 65
41 38 31 25 25 37 43 40 39 36 37 47 44 46 49 51 53 57 59 60 61 61 62 63 65 60 58 61 70 74 72 73 74 73 71 71 70 70 69 67 67 67 64 62
44 42 34 29 24 19 35 43 46 42 31 44 43 42 43 47 38 47 55 58 62 65 61 62 64 63 61 64 73 70 72 73 72 72 72 72 74 71 68 67 67 66 62 63
34 34 30 31 28 32 40 44 45 28 33 41 42 42 42 39 44 50 54 57 63 64 63 64 63 62 65 67 75 71 70 69 73 73 72 70 70 68 69 67 68 62 62 62
33 31 31 33 29 23 44 42 34 40 43 44 44 44 43 46 47 49 53 58 59 60 63 64 61 62 64 68 76 68 71 74 74 73 72 71 70 71 70 69 63 64 61 61
30 36 33 33 33 43 44 42 45 45 43 44 44 45 46 47 49 51 54 57 59 60 62 62 62 64 66 74 73 72 73 73 70 71 72 71 68 68 67 62 64 60 62 61
42 41 35 36 41 42 44 46 45 47 45 46 47 47 49 49 53 55 56 56 57 60 61 62 62 62 65 73 73 73 75 75 72 70 70 69 69 67 64 65 62 60 61 60
42 42 40 39 42 43 45 46 47 47 47 47 48 49 50 51 51 53 53 55 57 60 61 61 62 64 70 73 73 74 73 72 70 71 69 67 65 59 56 54 55 59 57 58
46 42 37 35 42 42 42 47 49 46 45 46 46 47 51 51 50 52 52 55 58 59 61 62 63 66 72 75 74 73 74 73 71 67 69 69 66 62 58 56 54 42 43 42

GFSCGP_sfc_temp_048.txt.gz
Temp
54 46 41 47 49 52 50 48 46 51 58 54 52 53 58 60 61 60 62 66 68 73 80 80 80 77 74 73 74 70 77 81 80 77 74 75 76 76 70 73 74 74 74 72
47 41 51 58 56 53 50 46 44 51 57 55 52 53 59 59 59 60 62 63 65 69 74 79 79 78 73 74 73 77 73 79 77 79 79 79 79 70 77 74 73 73 74 73
42 50 58 56 51 50 47 44 45 45 52 53 50 48 53 60 60 62 63 63 64 64 68 72 75 73 74 73 71 71 76 77 78 79 76 68 69 67 67 68 68 69 72 73
48 55 55 51 50 49 41 51 50 48 43 34 47 33 47 53 56 58 61 60 61 63 66 67 71 71 71 73 73 71 74 75 77 75 76 75 71 68 68 69 68 69 71 72
47 50 49 47 49 53 46 51 48 47 42 37 42 34 44 49 50 55 59 63 62 64 64 66 71 74 75 73 70 69 69 69 72 72 75 75 68 67 65 65 69 67 68 71
51 57 53 51 54 53 53 47 44 40 37 28 39 37 40 46 50 56 58 56 60 60 65 67 68 71 70 70 71 68 68 69 69 69 69 69 68 67 64 65 65 66 67 68
47 48 53 55 46 48 45 35 25 24 24 26 42 36 41 50 50 47 50 52 55 56 55 57 61 67 70 69 68 69 71 73 74 73 72 71 72 71 66 67 66 65 65 65
32 32 47 53 47 42 40 36 23 19 24 28 40 31 38 47 51 53 55 53 56 54 55 56 58 64 69 71 70 70 69 73 72 73 73 72 72 72 68 69 68 69 69 68
33 36 52 54 53 48 40 33 40 26 31 29 31 39 47 50 49 51 52 54 53 55 54 56 59 61 67 71 74 71 72 73 72 72 71 69 70 68 69 67 68 67 66 67
40 32 48 51 53 51 45 46 29 28 22 22 31 34 35 42 44 47 49 50 52 54 55 57 58 60 62 66 70 73 70 72 70 71 70 70 68 69 68 67 66 66 66 67
38 35 38 45 41 40 38 35 35 33 31 26 24 28 42 42 45 43 46 50 51 51 54 55 57 60 63 62 67 68 68 66 65 67 67 67 68 68 67 67 67 67 66 67
39 34 29 37 48 50 44 38 35 27 28 31 30 29 50 45 46 46 47 51 52 53 53 53 55 56 60 62 64 66 63 65 66 67 68 67 68 67 67 66 67 67 67 68
39 31 28 31 39 43 38 41 40 37 33 28 26 30 49 46 45 47 46 49 52 53 53 53 52 57 59 59 63 65 66 67 68 69 68 68 68 68 67 68 68 68 68 67
44 36 31 27 35 40 33 38 40 36 26 30 33 36 43 47 47 47 48 50 53 55 55 55 55 57 60 60 62 66 68 71 70 70 68 67 68 68 68 67 68 68 69 68
40 33 35 38 40 40 38 37 39 37 38 31 37 39 44 44 47 48 51 58 55 56 61 61 58 60 61 60 63 68 67 70 69 68 67 66 66 66 67 67 68 69 71 71
40 33 37 34 40 41 37 41 42 43 43 41 40 38 51 51 51 52 54 58 58 59 62 65 64 63 62 63 65 63 66 67 69 67 66 67 67 69 69 69 68 68 68 65
35 34 31 29 39 38 32 41 42 42 46 40 33 41 47 46 47 49 49 52 54 56 60 60 63 60 61 63 62 61 66 68 68 68 69 70 70 70 69 70 69 64 62 62
36 33 35 29 31 24 37 45 44 40 44 44 43 42 43 43 46 48 53 53 52 54 58 61 61 58 60 60 61 62 65 69 70 69 71 71 71 71 70 68 65 62 64 64
38 35 31 28 24 33 40 41 39 36 35 45 40 41 42 44 44 48 57 53 51 53 58 61 61 59 59 60 61 62 64 68 71 70 71 72 71 69 67 64 65 65 64 63
40 40 33 31 25 19 35 43 46 42 31 43 42 42 43 44 34 40 49 50 51 54 58 60 60 61 60 59 59 58 66 69 69 69 69 70 70 67 64 66 67 65 63 61
34 35 31 30 28 31 40 44 43 27 32 42 42 44 44 39 43 47 50 50 52 54 58 60 61 61 60 60 62 63 67 68 70 70 70 69 68 69 68 68 66 64 61 60
28 29 29 32 28 23 43 39 33 40 43 43 43 45 44 45 47 49 51 51 52 54 58 60 60 59 61 60 62 63 68 70 71 70 69 67 66 69 70 67 64 62 60 59
28 34 32 33 32 42 42 39 43 44 43 44 44 45 46 45 46 50 50 53 53 55 57 59 61 60 59 62 64 67 68 70 69 68 66 67 66 65 68 65 60 60 60 59
38 39 34 36 40 40 42 44 46 45 45 47 47 46 47 45 49 49 50 51 52 54 55 59 61 58 60 63 67 70 71 72 69 66 66 65 64 62 62 64 61 60 59 58
39 42 37 36 41 42 45 46 45 47 49 46 48 47 48 49 49 51 51 52 53 54 56 59 61 62 62 64 70 71 71 72 69 66 65 64 63 59 55 51 53 59 58 59
43 42 37 36 43 41 42 44 48 46 46 46 46 46 49 49 49 50 49 52 54 56 58 60 60 60 62 67 70 71 73 72 67 66 63 61 58 58 56 54 51 41 43 46

GFSCGP_sfc_temp_051.txt.gz
Temp
50 43 39 44 46 48 46 43 41 47 54 48 48 50 55 58 58 58 59 62 62 65 71 73 75 73 71 71 72 73 73 75 73 71 71 73 75 76 75 74 74 72 71 70
45 39 50 54 52 48 45 41 40 47 53 51 48 49 55 55 56 57 59 59 61 63 68 72 72 73 71 72 71 73 74 77 72 73 75 76 78 77 77 75 71 72 71 70
41 48 55 52 48 46 43 40 41 42 48 49 46 46 49 53 55 59 59 60 60 60 62 67 70 69 70 67 69 72 74 76 77 75 72 66 67 66 67 67 67 70 70 70
45 52 52 48 46 47 39 48 47 45 40 32 46 32 46 51 51 54 56 56 57 59 61 62 65 66 66 70 68 71 72 72 76 78 79 75 77 76 73 76 74 67 69 70
46 47 47 43 47 50 44 49 45 44 38 34 37 31 43 47 48 52 56 55 53 54 55 56 59 62 64 68 68 66 68 71 75 74 78 75 76 71 65 64 66 65 66 69
49 54 51 49 52 51 51 44 41 37 34 24 36 34 37 40 45 50 50 53 55 54 56 57 58 60 60 64 64 65 63 66 70 71 72 75 76 69 64 63 63 63 64 66
45 45 50 52 44 47 44 33 24 23 23 25 38 33 37 47 51 49 49 51 53 54 53 54 55 57 59 60 64 64 63 63 65 68 71 72 74 73 71 67 65 63 64 64
31 32 45 50 45 40 37 34 22 16 21 27 38 27 35 47 50 51 52 52 53 53 52 52 55 56 57 60 62 63 62 65 65 68 70 72 73 74 72 68 65 65 65 66
31 34 49 51 51 46 37 31 37 24 28 23 29 36 44 48 49 50 50 52 51 52 54 54 55 56 56 57 59 61 62 65 69 68 71 70 67 65 65 64 66 65 65 66
39 30 44 49 49 49 42 44 27 26 20 20 28 31 34 42 45 48 49 49 50 52 54 56 56 57 57 56 59 60 61 63 68 69 69 68 67 65 64 65 65 65 65 67
37 34 37 42 39 36 36 32 32 32 29 22 24 29 41 42 45 45 48 49 47 51 53 54 55 57 55 55 58 60 61 61 64 67 65 64 63 64 65 66 65 65 66 66
38 33 28 35 46 47 41 37 36 27 25 28 27 30 50 50 47 45 47 50 50 52 52 53 54 54 55 56 57 59 61 60 63 66 65 63 64 65 65 65 65 65 66 66
39 30 28 31 36 41 38 41 41 38 33 28 23 30 49 46 48 51 47 49 51 52 55 55 53 54 54 55 57 59 62 61 62 64 63 64 65 65 65 65 65 66 66 66
44 32 30 28 32 36 33 38 41 36 29 29 30 34 42 45 45 47 47 48 50 53 57 56 55 55 54 55 57 59 61 63 63 65 65 66 66 66 66 66 66 66 67 67
38 32 34 35 38 39 38 38 38 35 35 30 35 35 42 45 43 45 48 51 52 53 52 54 55 54 56 56 56 59 62 65 65 67 67 67 67 67 67 67 67 68 67 68
39 32 34 33 38 38 36 39 40 39 39 38 39 39 46 44 45 45 46 48 50 52 51 52 54 57 58 58 59 61 61 65 66 66 66 68 67 66 66 67 67 67 65 66
31 32 32 28 37 36 30 37 39 40 44 40 32 41 43 40 42 42 43 46 48 50 50 51 52 55 57 58 59 60 62 65 65 65 67 66 67 65 65 65 66 65 65 65
32 34 34 28 29 23 37 44 44 39 42 45 45 46 44 44 45 46 48 48 48 49 51 51 51 54 57 60 61 60 62 62 66 65 66 66 66 66 66 66 64 63 65 63
38 34 32 25 25 32 39 43 39 35 36 44 41 43 45 45 46 44 51 51 50 50 52 52 52 54 58 60 61 60 60 61 63 66 66 67 68 67 66 64 63 63 60 59
40 41 33 28 25 19 33 42 45 42 31 43 44 42 41 42 35 42 48 49 50 52 54 53 54 57 58 59 59 59 59 62 62 66 68 68 69 66 66 65 64 60 61 60
32 32 30 31 28 30 40 44 44 28 32 41 43 42 42 39 43 47 50 50 52 53 54 54 56 57 58 59 60 59 59 63 67 68 68 68 68 66 66 62 61 61 61 59
27 26 30 31 26 21 43 41 34 39 44 44 42 44 43 45 46 47 49 50 51 52 54 55 55 57 59 60 59 59 59 64 66 67 68 67 67 68 65 62 62 61 59 57
28 33 31 32 29 41 44 42 46 45 41 43 44 46 45 45 45 48 48 50 51 52 53 55 56 58 58 59 60 58 61 64 66 65 64 63 66 66 65 63 61 59 58 59
37 37 32 34 40 43 44 46 43 44 44 46 48 46 47 45 47 48 50 50 51 53 53 55 56 58 58 59 60 62 64 67 66 64 62 62 62 64 64 63 61 59 59 58
39 39 37 37 41 43 45 45 44 45 46 45 48 47 46 47 47 48 48 49 51 52 54 56 56 59 60 61 62 63 68 67 65 63 63 60 60 61 55 50 55 59 59 58
39 39 36 36 43 42 44 46 45 43 44 46 45 45 48 48 47 48 47 49 51 52 55 57 59 59 60 62 64 65 70 68 65 62 61 59 57 56 54 54 52 42 44 45

GFSCGP_sfc_temp_054.txt.gz
Temp
48 42 37 42 45 45 42 40 39 44 50 47 45 47 52 55 56 56 58 58 61 63 68 70 71 71 69 67 67 67 67 68 70 69 70 69 71 73 75 74 74 71 71 69
43 38 47 51 48 45 43 39 38 44 50 47 45 46 52 53 54 56 57 58 58 60 63 67 67 68 67 65 64 65 67 67 69 75 72 70 71 72 72 72 71 71 71 70
39 46 53 50 44 44 40 38 38 39 45 46 44 42 44 50 53 56 57 58 58 57 58 59 63 63 63 63 63 64 64 67 67 68 68 67 67 67 68 69 69 71 71 70
43 49 49 44 44 45 36 46 45 43 38 29 44 27 40 45 47 51 54 54 54 56 56 56 58 58 59 63 63 63 63 64 67 67 70 70 75 75 78 79 72 68 70 70
44 45 44 42 45 48 43 47 43 42 35 31 35 28 34 45 43 45 50 53 53 54 54 55 56 57 59 59 58 60 60 61 66 67 70 74 73 78 77 66 68 66 68 70
47 51 48 49 49 48 48 42 38 34 31 24 32 31 29 38 42 46 52 52 54 54 55 55 56 56 56 57 57 58 58 59 62 64 66 70 71 72 65 63 66 65 65 67
44 44 47 50 42 45 41 32 23 23 23 24 35 31 36 44 50 49 49 51 53 52 52 52 53 55 56 56 57 58 59 58 60 62 64 68 71 71 67 68 69 64 64 65
33 34 43 49 44 39 35 33 21 16 20 23 36 27 34 46 50 50 51 50 51 52 51 51 53 54 55 58 58 57 57 57 59 61 63 66 69 72 72 71 71 69 68 67
34 35 48 49 49 46 35 29 34 22 24 22 28 33 42 49 47 48 49 50 49 51 52 54 54 53 54 57 57 56 57 58 58 60 62 64 67 67 69 66 67 66 66 67
40 32 44 47 47 45 40 42 26 24 18 18 26 28 32 40 44 46 47 47 49 51 52 56 56 54 56 57 57 56 56 58 59 60 62 66 66 67 67 64 65 66 66 67
38 33 36 41 38 36 35 31 31 28 26 23 23 29 39 41 44 43 45 49 50 53 53 55 56 56 56 57 56 56 57 58 59 60 60 62 62 64 64 65 65 66 66 67
38 31 28 34 42 44 40 35 32 23 21 28 20 29 47 46 44 45 45 48 51 52 53 52 53 55 55 57 56 56 57 58 60 62 61 60 62 63 64 65 65 66 67 67
38 29 24 29 35 38 35 38 37 36 33 29 25 29 46 46 47 51 47 45 48 51 49 51 52 54 55 57 58 58 59 60 61 62 58 59 62 64 64 65 65 66 67 67
43 30 29 24 31 32 30 36 39 37 29 29 30 33 40 43 44 44 43 44 47 49 52 51 52 54 55 55 57 57 57 60 61 62 60 61 63 65 65 65 65 66 67 67
37 31 32 35 36 36 35 35 37 35 37 30 35 34 40 43 43 42 43 45 47 48 49 51 51 53 53 54 56 59 61 60 63 63 62 63 64 65 65 66 66 67 67 68
37 29 32 30 37 36 33 37 38 38 38 38 38 35 44 46 44 44 44 45 45 47 49 52 52 53 54 54 55 57 60 62 65 64 64 66 66 67 67 66 67 67 67 67
33 29 31 27 34 33 29 36 38 39 43 39 32 39 45 43 44 44 44 46 45 47 50 51 52 52 52 53 55 55 60 62 65 66 69 68 67 67 67 67 67 66 65 66
31 31 32 28 28 21 36 42 43 39 41 43 42 42 43 44 47 48 47 46 46 49 50 50 51 51 52 53 54 57 60 62 65 67 67 68 67 66 67 66 65 64 64 63
37 35 31 28 26 31 37 39 38 35 36 43 42 43 42 42 43 44 50 50 49 50 51 51 52 53 53 53 54 59 60 59 62 65 66 67 67 65 64 63 63 62 62 60
37 38 33 30 24 21 32 40 43 41 31 42 41 41 42 42 32 39 47 49 50 51 52 51 53 54 54 54 56 59 58 59 60 65 65 66 66 65 63 63 62 62 62 59
32 32 30 28 26 29 38 41 41 30 32 41 44 42 42 38 42 46 49 49 51 51 51 53 53 53 54 57 58 58 59 58 63 67 66 65 65 64 63 63 61 60 59 58
25 24 22 26 23 21 42 40 34 39 42 43 43 42 42 44 46 46 49 49 51 51 53 53 52 53 55 57 58 58 58 62 65 66 65 64 63 64 63 62 60 60 58 57
24 31 30 31 27 38 44 42 45 45 43 42 41 44 45 45 45 47 47 49 51 52 52 53 53 54 56 58 59 58 59 63 65 63 62 62 63 64 63 62 59 58 59 58
36 35 30 34 37 39 44 46 47 45 42 44 44 44 46 44 45 46 48 49 49 50 51 52 53 53 54 59 60 60 62 63 63 61 61 62 63 62 62 62 61 60 59 58
36 35 33 34 40 42 45 46 45 44 43 43 46 46 46 45 45 47 47 47 48 49 51 52 53 54 56 59 60 61 62 63 60 61 62 62 62 60 55 51 57 60 60 58
36 37 35 34 41 41 42 45 47 43 43 45 45 44 46 47 45 46 45 47 48 49 51 52 55 57 60 61 60 61 62 64 62 61 61 60 59 58 56 55 53 42 44 45

GFSCGP_sfc_temp_057.txt.gz
Temp
59 56 52 55 55 55 53 50 49 54 58 56 56 56 60 64 63 64 64 64 66 70 76 77 77 77 76 76 74 75 77 78 78 78 76 75 74 77 80 81 79 73 76 76
56 51 57 58 56 53 52 50 49 53 57 55 55 54 59 62 63 64 65 65 65 66 70 73 74 74 73 71 72 72 74 76 77 80 80 81 80 81 83 84 81 79 76 76
51 55 58 56 54 52 52 49 48 48 52 56 52 53 55 63 62 65 66 67 67 66 64 67 69 70 71 71 70 71 71 72 75 77 79 80 80 81 81 82 81 77 76 76
54 58 56 54 52 54 47 55 51 49 48 43 52 42 51 56 59 61 64 65 66 68 68 66 66 67 68 70 70 70 70 70 73 75 77 77 79 79 85 86 87 85 77 76
53 54 53 52 53 56 51 54 51 50 47 44 48 43 50 54 55 58 62 64 66 66 67 67 68 66 68 69 68 68 68 69 71 71 74 77 77 83 85 86 83 80 77 77
55 59 58 57 56 56 54 52 49 46 46 39 43 43 47 52 55 58 63 65 65 67 67 68 69 70 70 70 69 69 67 68 70 71 72 72 74 77 81 81 82 83 80 79
51 52 56 57 52 54 52 47 40 38 38 38 45 42 47 55 58 61 62 65 66 66 66 67 69 70 69 70 70 69 69 67 69 69 70 72 72 73 75 77 79 78 75 76
43 40 51 55 54 50 49 47 39 27 33 39 45 38 50 57 60 62 63 64 65 65 67 67 67 67 69 69 69 70 69 67 68 69 70 72 73 76 77 77 78 76 77 81
41 41 52 54 56 55 46 42 47 37 39 34 42 47 54 59 59 60 61 62 62 63 64 66 67 67 68 68 68 68 68 68 69 70 70 70 72 74 77 78 77 79 77 83
47 38 49 51 54 53 51 52 37 39 28 28 39 41 44 52 54 59 59 60 60 63 65 65 66 65 66 67 68 67 66 66 67 69 70 72 73 74 76 78 76 77 78 79
49 43 44 47 46 47 45 43 41 41 39 32 32 41 53 53 56 55 58 59 60 61 63 64 66 67 67 68 69 68 68 67 67 69 70 70 72 75 76 76 77 77 77 77
47 43 38 42 52 50 49 46 45 35 32 36 34 37 58 57 56 57 59 61 62 61 63 64 65 66 67 67 68 69 68 68 68 70 70 70 72 73 73 74 76 77 77 78
46 40 34 38 43 46 43 45 46 45 37 35 30 38 56 58 56 58 57 59 60 60 61 62 64 65 66 66 67 69 69 68 69 70 70 70 70 71 72 74 75 77 78 78
48 42 38 33 40 43 37 44 46 42 31 38 39 42 49 52 52 55 56 57 58 58 59 59 61 63 65 64 64 67 68 69 68 70 70 68 70 71 72 74 75 76 78 78
46 36 41 42 43 44 42 42 43 41 42 34 41 43 49 53 54 55 55 56 56 56 58 58 59 60 61 62 63 65 67 67 67 68 70 69 71 72 74 75 75 76 77 78
43 34 37 35 42 43 40 44 45 44 44 43 43 42 54 56 56 54 54 53 54 54 56 57 59 59 59 60 61 63 65 65 65 65 67 71 73 73 73 73 72 72 75 76
38 37 35 32 40 40 37 45 46 47 49 47 41 50 55 52 52 51 51 52 52 54 55 56 57 57 57 58 59 60 61 62 61 65 67 69 73 73 72 70 69 69 70 73
38 36 35 32 36 28 46 51 50 47 49 51 50 52 52 51 51 52 53 51 52 54 56 57 58 57 55 56 57 60 61 62 61 64 64 69 72 71 70 67 68 68 71 72
43 38 32 30 32 40 44 44 44 42 41 49 47 49 49 47 50 50 54 54 49 51 54 57 58 57 56 56 57 58 57 60 58 64 62 69 69 68 68 68 68 69 70 69
39 38 33 34 28 26 41 45 48 46 36 48 48 46 43 49 36 43 53 52 50 53 56 57 58 58 57 56 57 54 54 56 61 63 63 68 68 68 69 68 67 68 69 67
32 33 29 31 29 37 46 47 47 32 36 45 45 43 46 44 47 51 51 52 53 54 54 56 56 56 57 57 57 55 57 61 66 65 65 68 67 69 68 67 67 65 65 61
34 31 32 33 30 28 47 46 34 42 44 45 48 50 49 50 51 49 49 51 51 52 54 56 55 56 57 58 56 55 58 65 69 67 67 68 66 65 66 65 64 63 61 61
34 38 34 35 36 48 48 45 47 48 47 49 50 51 50 49 48 49 51 49 52 52 53 55 54 53 56 56 58 57 59 66 68 68 65 65 65 65 66 63 62 60 61 61
43 43 35 37 45 46 49 50 51 52 51 52 53 51 49 45 47 47 48 49 50 50 50 51 52 51 52 56 58 58 62 63 68 65 64 63 63 63 63 63 64 65 64 63
43 41 39 38 43 46 49 50 52 52 53 52 52 48 46 46 45 46 47 47 47 48 49 50 50 51 53 56 57 60 62 63 63 63 62 62 63 63 61 61 67 69 69 66
41 36 34 34 41 42 46 52 54 51 50 50 46 44 46 46 45 46 45 46 46 46 47 49 51 52 53 58 59 61 63 67 65 62 63 60 60 61 62 60 56 42 45 45

GFSCGP_sfc_temp_060.txt.gz
Temp
69 63 60 64 65 63 61 59 58 63 67 63 64 66 69 73 73 72 73 73 74 75 80 83 85 85 84 83 79 76 77 80 80 73 76 76 82 80 80 88 84 83 84 85
63 58 66 65 64 61 60 58 58 62 65 62 62 62 67 71 72 73 72 74 74 74 76 78 80 80 80 80 79 79 79 79 80 84 81 82 81 81 82 86 84 85 81 84
59 62 66 62 61 58 60 57 57 56 61 64 61 60 64 69 71 71 73 74 74 72 72 73 74 75 78 77 76 77 77 77 79 80 84 84 84 85 84 84 83 84 83 80
62 66 61 61 58 61 55 62 58 56 55 52 60 51 61 66 66 68 70 70 72 73 74 74 73 73 74 76 78 77 77 76 81 79 81 80 84 82 82 88 83 89 86 83
58 60 59 58 59 62 57 61 58 57 55 55 56 51 61 65 62 66 69 71 74 75 73 74 74 75 77 78 76 77 76 76 78 77 77 81 80 87 90 92 87 86 88 85
61 68 63 63 64 63 63 59 59 59 56 47 56 53 59 61 63 66 69 71 73 74 75 75 76 77 78 79 79 77 75 74 76 77 77 76 75 79 85 88 89 90 91 87
59 58 64 64 59 61 60 55 47 46 46 48 54 50 59 63 65 67 67 70 73 73 73 73 76 76 76 77 77 76 77 74 76 76 77 77 77 76 77 80 86 86 91 91
47 45 58 63 59 56 57 54 45 34 42 49 55 47 56 65 67 68 69 71 72 72 74 73 75 76 77 77 77 77 76 74 74 75 76 77 77 81 82 81 84 87 90 90
48 48 60 60 61 59 53 49 57 45 48 44 51 56 63 66 65 66 68 68 70 70 72 74 75 76 76 75 75 76 76 76 76 76 74 74 74 75 78 81 81 83 84 86
54 44 54 58 59 59 56 60 45 48 34 37 49 51 55 59 61 64 65 66 68 70 72 73 74 75 75 75 76 76 76 76 77 76 76 77 77 78 76 76 77 81 83 83
58 50 50 54 52 50 49 51 50 49 48 39 40 50 61 59 62 61 64 67 69 70 73 73 74 75 75 77 77 76 76 77 77 77 77 76 77 79 80 80 81 81 82 83
55 51 44 48 58 59 57 53 53 41 39 43 41 44 65 63 65 63 65 67 69 70 71 73 73 74 74 76 77 76 76 76 77 78 77 77 77 77 77 79 81 83 83 84
53 46 40 44 51 54 50 54 54 52 47 41 38 47 65 65 64 67 65 67 68 68 70 70 71 71 72 73 75 76 75 76 78 78 77 76 76 76 76 78 80 82 84 85
51 47 43 38 46 49 43 50 52 47 37 43 47 51 58 61 62 65 66 67 67 67 67 67 68 70 71 71 72 73 74 76 76 77 76 74 76 77 77 78 80 82 84 85
51 41 47 49 51 51 49 49 49 45 45 41 49 51 57 61 62 64 66 66 66 66 66 66 66 68 69 69 70 71 72 74 74 74 74 73 75 77 79 79 80 82 83 85
51 39 45 41 49 49 46 51 52 52 53 53 53 51 63 65 66 62 59 60 62 62 64 64 64 66 67 67 68 68 69 71 72 72 72 74 75 77 78 79 79 80 82 84
42 43 38 38 48 46 42 52 54 55 57 55 49 58 63 61 60 56 58 60 59 62 63 60 58 61 65 66 67 65 67 69 69 70 72 74 75 77 77 81 80 80 80 81
43 42 40 36 40 31 52 59 58 54 56 58 58 60 61 60 61 59 62 61 61 60 59 61 60 59 62 64 66 66 67 67 67 69 71 73 74 76 76 80 79 79 79 79
47 42 34 34 36 45 52 51 50 48 48 57 56 56 57 58 57 51 61 64 60 57 58 59 58 58 56 60 63 63 64 64 67 68 70 71 72 72 70 75 76 74 74 74
43 43 36 38 29 29 48 52 54 53 39 54 53 52 50 48 38 49 61 61 58 59 55 54 57 57 59 60 62 61 60 61 65 68 70 71 74 68 69 70 69 71 72 73
33 34 31 35 31 42 52 53 55 34 42 52 53 49 47 44 54 59 61 57 56 56 56 58 56 56 56 60 61 59 59 61 66 68 68 71 68 65 68 68 69 69 70 72
38 35 34 36 31 30 53 51 39 49 52 52 54 57 56 57 58 56 54 51 52 53 54 56 54 54 56 59 58 58 58 60 62 64 65 67 63 66 67 67 67 68 70 70
38 43 36 40 40 52 54 51 54 55 54 56 57 58 58 55 52 49 48 49 50 51 52 55 54 53 56 58 59 56 62 62 64 65 63 61 65 66 67 65 65 68 70 69
47 48 37 38 49 48 50 54 58 59 57 59 59 57 54 49 47 46 46 48 49 50 51 53 51 50 51 56 58 62 63 66 66 62 62 63 63 63 64 65 69 72 69 70
43 41 38 40 48 47 50 51 57 58 58 58 55 51 47 46 45 45 46 47 47 48 49 50 49 49 51 56 59 64 66 67 61 59 62 63 63 63 64 66 69 70 70 71
39 37 34 33 39 38 42 56 58 55 53 50 45 44 46 46 45 46 45 45 46 46 46 46 47 48 50 55 63 65 65 67 63 61 61 62 61 62 64 63 56 44 46 44

GFSCGP_sfc_temp_063.txt.gz
Temp
74 67 63 68 71 70 68 65 65 70 75 68 68 69 74 79 79 77 78 79 79 80 83 86 86 86 84 83 81 80 79 80 78 75 78 82 82 83 85 85 83 86 87 83
68 62 70 74 70 67 65 63 63 69 73 68 66 66 73 76 77 78 78 79 79 80 81 81 83 83 82 81 77 78 79 80 81 79 75 76 77 80 86 84 84 84 86 86
63 68 72 67 65 63 63 62 63 63 68 68 65 62 67 74 77 79 80 81 81 80 78 78 79 81 80 81 79 78 78 77 79 80 79 79 77 77 81 79 80 82 82 84
67 72 65 65 63 66 58 69 66 61 59 54 66 52 65 70 71 74 75 76 78 79 79 80 79 79 80 80 81 80 79 77 80 81 76 79 80 74 82 83 86 86 82 84
63 65 63 60 64 67 61 66 63 62 59 58 59 56 62 72 67 70 73 76 77 78 78 78 78 79 79 80 81 79 79 79 78 79 77 79 79 80 87 88 85 85 82 83
67 74 69 66 66 68 68 63 62 62 59 49 58 58 60 66 68 71 74 76 77 78 78 78 79 79 80 82 81 80 79 78 78 78 79 77 76 78 81 84 86 87 85 85
64 65 71 70 60 64 63 57 48 47 48 48 62 58 62 68 72 72 72 74 76 78 77 77 77 78 78 79 80 79 79 77 79 78 78 78 78 78 77 78 82 84 91 91
53 50 61 67 63 58 56 53 45 35 42 47 59 51 61 72 74 73 74 75 76 77 78 78 77 78 79 79 79 79 78 77 78 78 78 78 78 81 82 83 84 86 88 91
51 50 61 65 68 65 57 50 59 47 53 49 55 60 66 70 69 70 72 73 73 76 77 76 78 79 78 78 77 78 78 78 78 79 79 77 77 77 78 78 79 85 83 86
58 45 59 62 64 66 60 61 45 49 37 37 49 52 53 62 65 69 69 70 72 74 76 77 78 78 79 79 78 78 77 77 78 79 79 80 80 79 79 79 78 79 81 84
60 53 52 56 53 54 54 53 53 53 50 38 39 48 61 62 66 67 68 71 72 74 75 77 79 80 80 80 80 78 79 79 78 79 79 79 79 79 79 79 80 80 80 81
60 52 46 52 63 64 61 53 53 38 41 48 45 48 66 66 69 68 68 72 75 75 75 76 77 78 78 79 79 79 78 79 80 80 80 79 79 79 78 79 79 80 81 82
53 43 37 45 55 61 55 56 58 52 46 44 40 46 66 67 68 70 70 73 74 75 75 75 75 75 76 76 77 78 78 79 81 80 79 78 78 77 77 78 79 81 82 83
55 50 45 38 43 43 43 51 55 53 42 47 49 52 60 63 64 69 71 72 74 74 74 74 74 75 75 75 75 76 76 78 79 79 78 77 77 77 77 79 80 81 82 84
54 44 48 51 54 54 51 52 54 52 54 46 52 54 59 63 65 68 71 71 71 71 72 72 72 72 73 73 72 73 75 76 77 76 76 75 77 77 77 78 80 82 82 85
55 41 47 45 54 55 51 55 56 56 55 55 55 54 64 68 67 66 65 68 67 68 70 70 70 71 68 68 68 67 72 74 76 73 73 75 76 77 77 77 79 81 82 83
45 45 41 40 52 51 46 54 55 54 56 52 49 60 65 64 66 66 65 65 64 66 66 67 67 67 62 65 65 60 63 68 72 72 73 74 75 76 76 78 79 79 80 81
49 45 44 40 46 34 53 54 57 58 59 62 62 63 64 65 66 66 66 62 64 65 63 64 66 65 63 62 65 66 67 64 67 71 72 74 75 76 77 77 78 77 80 79
51 45 38 36 38 47 54 55 54 51 51 60 59 60 59 59 61 61 64 66 64 65 67 66 66 63 64 62 60 62 61 61 63 67 70 72 73 72 75 76 76 77 78 78
50 46 37 40 31 30 51 56 60 59 45 57 57 55 53 55 44 55 62 66 66 66 65 60 61 61 61 60 60 58 59 60 62 65 69 72 70 68 71 73 74 76 77 77
38 38 35 38 34 44 54 58 59 38 44 55 58 56 54 53 56 60 64 64 64 63 63 59 58 57 56 58 56 56 59 58 63 67 69 68 67 67 70 70 71 72 74 73
41 37 36 40 34 31 57 54 42 50 55 54 55 59 57 58 59 59 61 61 60 59 56 55 54 54 56 57 56 54 54 60 64 66 66 66 68 65 68 68 69 72 72 70
40 43 37 41 42 55 57 52 57 56 52 54 58 56 54 55 55 56 55 56 53 51 51 53 53 54 56 57 57 54 57 61 64 62 63 64 63 65 68 65 67 69 67 65
49 52 40 43 53 50 53 55 57 58 56 58 56 56 52 47 47 46 47 48 48 49 49 51 50 50 52 56 56 56 58 60 60 59 59 59 60 65 68 66 68 65 65 68
41 46 40 43 50 44 50 53 55 59 57 57 53 47 45 45 44 44 43 44 45 46 47 48 47 48 50 54 56 58 60 61 58 58 58 60 60 62 64 64 65 70 73 75
42 37 34 34 42 40 41 50 56 56 55 54 45 44 46 46 44 44 43 45 45 45 47 47 47 48 50 52 56 59 64 62 60 61 62 60 62 61 58 62 55 45 46 48

GFSCGP_sfc_temp_066.txt.gz
Temp
73 65 60 66 69 69 68 65 64 69 76 71 69 69 73 78 78 76 77 78 78 80 84 86 86 82 79 79 77 77 75 78 76 74 75 75 76 77 78 80 79 80 80 80
67 61 70 72 71 69 67 62 61 67 73 71 68 66 71 74 76 78 77 77 78 80 81 82 83 83 80 75 74 73 75 75 77 75 74 75 76 78 78 78 77 78 79 78
62 67 74 70 67 64 63 60 61 62 69 71 67 61 65 72 75 78 80 80 80 79 79 79 80 80 80 78 74 76 74 74 74 76 75 72 74 74 74 75 76 77 78 78
66 73 69 66 63 65 57 68 66 64 60 53 66 50 62 69 71 74 76 78 79 80 82 80 78 77 77 76 79 75 76 72 73 74 74 71 73 71 76 76 77 76 78 78
63 66 65 62 63 67 60 68 65 62 58 57 57 52 58 68 67 70 74 76 77 79 80 79 78 78 79 79 78 77 75 74 74 73 73 73 71 70 69 74 75 75 76 76
66 74 71 67 70 68 68 61 61 61 57 45 54 54 55 62 67 71 73 75 76 78 78 79 79 78 77 78 76 75 75 73 74 73 73 71 71 72 72 71 69 73 76 76
62 64 69 71 63 67 63 54 42 39 43 43 57 52 58 69 74 73 72 74 77 78 76 76 76 76 78 77 77 77 75 73 74 73 73 72 71 71 71 71 71 70 70 71
45 45 58 62 58 52 56 55 43 31 36 40 49 47 60 72 75 75 75 75 76 76 76 76 77 77 78 78 78 74 73 75 76 77 74 73 73 71 72 72 73 75 76 71
49 48 55 60 64 58 52 51 60 45 44 41 47 54 65 71 71 71 72 73 73 75 76 77 77 77 78 78 77 75 75 74 75 75 74 74 73 72 71 71 71 73 73 78
56 48 60 60 61 60 59 63 45 48 35 34 46 49 48 58 65 69 69 71 72 74 75 76 77 77 76 76 77 76 75 73 73 73 74 74 73 74 72 71 71 71 72 74
51 50 53 57 49 44 49 53 55 53 44 33 35 44 56 57 61 63 69 71 72 73 75 75 76 77 78 79 77 74 75 74 73 73 73 72 73 74 75 73 72 72 72 74
53 49 42 48 61 61 56 53 49 36 36 45 43 45 62 62 62 62 66 71 74 75 76 77 76 76 76 76 77 76 74 75 75 75 74 72 72 72 72 73 72 73 72 74
56 47 37 41 51 52 46 49 55 53 50 41 33 41 63 63 59 62 60 65 73 75 76 76 76 75 76 76 76 76 75 75 75 75 74 72 71 71 70 71 72 73 73 74
56 49 43 37 44 42 35 43 49 52 41 43 46 50 57 56 55 58 56 58 70 74 74 74 75 75 76 75 75 75 74 75 74 74 73 71 70 70 71 71 72 73 75 74
55 44 48 50 52 52 47 47 50 49 52 45 49 52 58 60 59 58 55 56 67 69 70 72 71 72 72 72 72 71 72 72 71 68 69 70 71 71 72 71 72 73 74 76
56 42 47 44 51 53 50 54 54 55 55 54 55 54 65 64 61 63 62 61 59 62 67 69 70 70 69 69 69 68 67 68 68 66 64 69 73 73 71 70 71 72 73 74
49 44 41 37 50 49 45 50 52 53 54 51 45 51 58 57 55 55 58 58 55 64 66 67 67 67 66 66 67 65 66 67 66 66 67 66 68 71 71 72 72 71 70 71
48 46 43 37 43 32 49 57 48 47 51 49 55 56 59 58 60 62 64 63 64 65 65 66 67 66 65 66 66 65 66 64 62 64 66 66 66 70 71 71 70 69 70 70
53 47 39 35 37 45 52 52 48 46 48 56 53 55 57 60 60 59 65 66 65 64 66 67 68 64 64 63 63 62 62 62 62 62 64 64 66 65 69 69 68 69 69 69
53 51 39 39 30 30 49 54 59 57 43 53 54 53 53 56 47 54 61 62 62 64 66 65 66 64 62 61 60 59 60 61 59 61 63 65 66 64 64 66 66 67 69 69
40 40 36 37 33 43 50 54 58 39 40 53 54 53 53 50 53 57 61 60 62 62 61 62 61 59 59 59 58 56 57 57 60 62 62 63 63 62 63 66 66 66 67 67
41 38 36 40 33 31 54 52 39 46 52 53 54 55 54 53 53 53 54 55 55 55 57 58 57 57 57 55 55 54 54 57 58 61 61 61 61 62 66 64 64 65 64 64
40 43 38 41 40 53 55 50 54 55 53 51 52 54 54 52 50 49 47 48 50 50 51 53 52 51 52 53 54 52 55 58 58 58 58 59 61 63 64 62 62 62 63 63
51 52 42 44 51 51 50 54 55 53 51 52 52 55 53 48 45 43 45 45 46 47 46 48 48 48 49 53 54 54 56 58 57 56 57 58 59 61 63 65 62 62 62 63
47 49 40 44 51 46 51 49 50 49 50 51 56 53 48 45 43 42 42 43 43 44 45 46 46 46 48 51 53 55 57 57 54 54 56 57 57 59 61 61 60 63 65 65
46 38 35 35 43 40 43 47 48 48 52 54 52 49 46 44 42 42 41 42 42 42 42 42 43 44 46 50 52 55 57 58 56 54 55 57 57 57 59 59 55 46 51 48

GFSCGP_sfc_temp_072.txt.gz
Temp
58 48 44 50 53 55 53 50 49 56 63 55 55 55 59 66 64 62 61 64 65 67 71 69 68 67 66 66 66 66 68 69 70 70 68 67 73 71 72 73 74 77 77 75
51 45 57 60 59 57 54 50 50 55 60 57 55 55 59 62 62 62 63 62 62 60 65 64 64 65 65 64 65 64 66 66 69 69 69 68 67 69 71 70 71 71 74 76
48 54 63 61 57 55 55 51 49 50 55 56 53 50 53 60 62 64 63 64 64 63 62 62 65 63 62 63 64 65 64 65 65 67 68 67 67 68 67 68 69 71 72 73
52 60 59 57 55 57 48 58 57 54 46 38 54 36 47 54 57 60 62 60 61 64 64 65 65 60 63 63 63 64 64 64 65 64 64 65 64 62 65 68 70 71 72 71
52 55 54 53 54 58 51 59 56 53 44 39 45 38 45 52 53 55 60 62 63 64 66 64 62 63 62 62 61 62 63 63 64 63 63 62 62 63 64 65 66 70 71 73
55 60 57 55 59 58 58 52 48 45 40 31 44 40 42 47 51 54 60 65 67 63 61 62 63 62 61 61 61 61 62 62 62 62 62 61 61 62 62 63 63 65 67 68
50 52 56 60 52 55 51 43 32 28 28 32 45 40 46 50 57 57 59 61 62 60 60 62 63 63 60 60 60 60 61 61 61 62 61 61 61 61 62 62 63 64 64 64
38 35 49 55 51 46 42 38 28 27 22 33 42 34 41 56 60 61 63 59 60 59 62 63 64 64 62 63 61 61 59 60 61 61 61 61 61 60 61 62 62 62 62 64
40 41 53 55 55 52 44 35 41 34 35 30 35 42 50 55 56 60 62 61 55 57 60 62 60 59 61 60 60 61 62 62 61 62 61 61 61 60 61 63 62 62 62 66
44 34 49 54 54 52 48 48 31 35 27 25 32 35 36 45 50 55 57 57 59 61 60 59 59 59 60 60 62 62 63 62 62 61 61 62 61 62 62 61 62 62 62 63
43 37 40 46 44 41 41 37 36 36 34 28 25 31 45 46 49 52 56 61 56 57 57 58 58 58 60 60 60 60 60 61 61 61 61 60 60 61 61 61 62 63 63 64
41 35 30 38 50 54 45 38 37 30 29 32 30 30 48 48 51 55 57 61 61 57 55 55 58 57 59 58 58 61 59 59 60 61 60 60 60 61 59 60 61 62 63 64
43 33 26 31 39 44 42 41 39 35 34 30 28 30 52 52 54 52 56 60 59 61 60 57 55 55 57 58 62 60 62 62 63 62 61 59 59 59 59 59 59 61 62 63
49 35 32 27 33 36 34 42 43 36 29 34 34 40 47 47 47 48 52 55 58 61 62 58 57 57 60 59 59 62 62 60 59 59 57 56 55 56 56 57 59 60 62 63
43 33 37 39 43 44 42 43 45 39 39 33 38 41 41 44 44 46 48 51 52 53 56 57 58 58 61 61 61 61 60 60 59 60 58 57 56 56 56 57 58 59 60 63
40 32 36 35 43 44 40 43 44 42 41 40 41 38 44 47 47 48 48 50 51 53 56 59 60 60 59 60 62 63 60 59 59 58 58 58 58 59 58 57 57 57 60 63
36 32 30 28 39 39 32 37 39 40 42 40 33 41 47 45 47 46 47 49 51 53 53 54 55 56 56 56 57 57 59 60 57 58 58 59 58 58 57 58 57 57 57 60
37 34 31 26 31 23 37 44 43 41 43 44 44 45 46 45 46 48 50 49 49 50 51 52 52 53 53 55 55 57 55 55 56 56 57 59 58 58 57 57 58 58 55 55
41 35 28 23 23 34 37 43 43 40 39 42 40 43 45 46 46 46 51 50 49 51 53 53 54 53 53 54 56 55 54 55 57 57 57 58 58 58 57 57 57 57 53 57
44 43 34 30 26 16 38 46 50 48 30 42 42 41 40 42 35 41 49 51 51 52 53 53 54 54 52 52 54 54 55 55 54 56 57 57 57 57 57 58 57 58 56 57
33 32 26 30 23 31 43 47 48 28 31 42 43 42 43 40 43 46 49 50 52 52 51 52 52 52 52 53 51 50 51 52 57 59 59 57 57 56 57 57 56 56 57 58
34 29 26 33 29 24 44 43 33 37 41 42 43 44 43 45 47 48 49 48 48 49 50 49 48 48 51 52 51 50 49 53 55 56 55 54 55 56 58 55 54 54 55 49
29 35 29 33 30 40 42 42 42 42 41 43 43 45 46 46 47 46 44 45 45 45 45 45 43 44 47 50 50 49 51 53 54 54 52 53 55 56 55 54 54 50 50 50
40 42 30 34 39 38 42 43 44 45 43 45 47 47 48 45 44 43 42 42 42 42 42 42 40 40 42 46 48 48 51 53 53 52 52 52 52 53 54 57 54 53 52 52
36 38 33 33 39 40 43 43 44 45 46 48 48 47 47 45 42 41 40 39 39 39 39 39 38 39 39 42 44 48 51 52 50 51 52 51 51 51 52 53 53 53 54 54
38 33 26 27 36 35 39 45 45 43 45 47 47 46 47 44 41 40 38 38 38 37 38 38 39 38 38 39 41 45 49 51 50 49 50 49 50 51 50 51 50 44 44 44

GFSCGP_sfc_temp_075.txt.gz
Temp
54 47 42 48 49 52 49 46 45 52 59 51 53 54 56 59 59 60 60 59 62 64 69 67 67 66 64 64 65 66 67 68 71 69 68 68 68 68 69 69 72 73 74 73
49 43 53 55 54 52 49 46 46 52 57 52 51 51 57 57 59 60 59 58 60 59 60 62 63 63 63 63 63 64 66 67 68 69 68 67 67 67 69 69 71 73 74 72
46 52 59 56 53 51 49 45 47 47 53 53 49 46 50 55 58 62 61 58 60 61 61 60 61 61 61 61 61 62 63 64 64 66 66 65 65 66 65 66 66 68 71 73
49 58 56 53 51 51 43 53 52 51 45 38 50 37 48 50 53 56 59 58 60 61 61 60 60 59 60 62 61 61 62 62 62 63 65 65 64 63 64 65 66 66 69 69
49 52 51 50 52 54 48 54 51 49 43 37 41 34 42 48 49 54 56 59 58 59 61 61 60 64 63 60 59 59 60 60 60 60 61 61 62 63 63 64 65 64 66 68
53 57 53 52 56 56 56 49 45 41 38 30 41 38 41 48 49 52 57 59 60 61 61 61 64 63 59 59 59 58 59 59 59 59 59 60 60 59 60 61 62 63 64 65
48 48 53 56 48 51 47 40 27 27 27 32 43 38 44 49 55 55 55 56 57 59 62 56 56 60 59 58 57 58 59 59 58 59 59 58 59 58 59 59 60 61 62 62
37 36 48 53 49 43 40 39 28 25 25 30 38 32 41 53 56 56 55 54 54 52 53 56 60 63 62 59 58 59 58 59 58 60 60 59 59 58 58 59 59 59 59 61
36 38 51 52 52 49 40 33 43 32 33 28 31 39 50 53 52 54 54 55 53 53 55 54 56 56 58 58 58 58 58 59 60 61 59 58 58 57 58 59 58 59 60 63
43 33 47 51 51 50 42 44 33 33 25 23 29 32 35 45 48 51 51 49 52 53 54 55 56 58 56 56 59 58 59 60 60 59 59 60 59 59 58 58 59 58 59 60
42 37 39 44 40 38 38 38 38 36 33 23 21 30 44 44 47 49 50 54 52 53 54 54 55 56 56 57 56 56 58 59 58 58 58 58 59 59 58 58 58 58 58 59
40 35 30 37 45 48 45 40 39 29 29 33 30 29 47 47 51 49 50 55 58 54 56 54 56 55 56 55 56 57 56 54 58 60 58 58 57 57 57 58 59 59 59 60
42 32 26 30 37 42 38 40 39 36 34 29 24 29 50 51 49 47 47 50 57 59 62 61 56 56 56 57 57 58 58 58 58 57 57 57 57 56 56 57 58 58 59 59
48 33 32 25 32 34 33 38 41 38 30 30 33 37 45 45 45 47 46 47 50 53 56 60 56 58 59 60 58 59 59 57 58 58 56 56 55 56 56 56 56 57 58 58
40 33 34 37 40 40 39 39 40 34 38 32 38 37 41 43 44 45 45 47 49 51 55 57 57 57 57 58 57 58 58 58 57 57 56 55 54 54 55 55 56 57 58 59
38 31 34 33 41 41 38 40 40 42 43 41 41 38 43 46 46 45 45 48 49 51 54 56 56 55 54 55 57 57 57 58 59 58 57 57 56 56 55 54 55 55 55 56
35 31 29 28 37 36 30 36 38 39 42 38 32 37 43 42 44 43 43 47 49 51 53 51 51 52 52 52 54 53 54 56 56 55 57 59 58 58 57 56 56 55 54 54
33 32 30 26 30 23 36 45 43 41 43 41 41 41 44 44 45 46 47 45 47 49 49 50 51 52 52 51 51 53 52 54 55 56 58 60 59 59 56 55 54 53 51 51
39 34 31 24 22 32 37 43 42 40 37 41 40 42 42 43 43 44 48 49 47 46 49 52 53 52 53 53 54 53 53 54 54 55 56 56 57 57 56 55 54 52 50 50
41 42 34 28 25 17 34 44 48 44 31 42 41 39 39 41 34 40 46 49 49 50 51 51 52 52 52 53 54 52 52 52 52 53 56 58 59 58 57 57 55 53 50 53
31 29 26 29 27 29 41 44 46 28 30 40 41 40 40 38 41 45 49 50 51 51 51 51 49 49 51 53 53 49 51 50 52 53 54 56 58 58 58 56 54 53 52 53
31 29 29 32 26 23 43 42 33 36 39 41 41 42 42 44 45 46 47 47 47 46 47 46 45 45 48 50 50 48 47 53 55 54 52 53 55 56 57 52 53 51 51 49
31 35 28 31 29 38 40 40 42 42 40 41 42 44 44 44 45 45 44 44 43 43 43 43 42 42 43 45 46 44 47 51 53 52 52 52 54 54 55 53 50 48 48 50
42 39 29 34 38 37 40 42 44 44 42 44 45 45 45 43 44 42 42 41 40 40 40 41 40 39 40 42 43 43 45 49 52 51 51 52 53 52 53 53 52 51 50 48
36 36 32 32 36 38 40 43 42 43 45 45 47 46 45 45 43 40 39 39 39 39 39 40 39 38 38 39 40 42 44 47 47 50 51 52 52 51 53 54 53 52 53 52
37 33 26 27 33 36 37 41 43 42 44 45 44 44 46 44 40 39 38 39 38 36 38 39 40 41 43 44 40 41 44 45 46 47 49 49 50 49 50 51 50 42 45 45

GFSCGP_sfc_temp_078.txt.gz
Temp
51 46 41 46 47 48 45 42 42 47 55 48 48 51 53 56 56 56 59 57 57 59 68 66 65 65 65 64 64 66 68 68 69 68 68 67 67 68 68 69 72 73 72 72
47 42 50 53 51 49 46 43 42 47 53 49 48 48 52 53 56 57 57 57 56 56 59 63 63 62 62 66 64 64 68 67 69 70 70 68 68 67 68 68 70 71 72 72
44 50 56 53 49 48 45 42 43 44 50 50 47 46 48 53 56 59 60 58 57 57 57 59 60 59 59 61 62 64 66 67 68 67 66 65 66 66 66 68 68 70 71 72
47 53 54 48 48 49 41 50 50 48 42 35 47 36 47 49 51 55 58 56 56 57 59 59 60 59 58 60 60 62 63 64 66 67 66 66 64 63 66 67 68 68 70 70
48 49 47 46 49 52 46 52 48 47 41 35 39 33 43 46 46 50 55 59 57 57 58 61 61 61 61 60 59 59 61 61 62 64 66 66 63 64 64 65 65 66 67 68
49 54 53 52 53 53 53 46 43 39 36 30 40 38 42 48 47 49 53 56 57 57 57 57 62 61 59 57 58 57 58 58 59 60 60 61 62 61 61 62 63 64 65 66
45 47 50 53 46 48 46 38 31 25 25 31 40 35 43 49 53 52 52 53 53 53 52 55 55 58 59 56 58 57 57 57 57 58 59 60 61 60 60 61 61 61 63 64
35 34 46 51 47 43 39 38 28 22 25 31 37 33 39 51 54 53 53 52 52 51 51 52 52 55 60 60 60 60 57 57 57 58 58 58 59 59 59 59 60 61 62 63
35 37 50 51 50 48 37 32 37 26 30 28 30 36 46 49 51 52 52 53 51 51 51 52 54 52 55 57 58 59 57 57 57 58 57 57 58 58 58 59 59 60 60 63
41 33 44 49 49 47 41 43 28 32 24 24 29 30 33 41 43 47 49 49 51 52 52 53 53 53 55 57 56 56 56 58 59 59 58 59 58 58 59 58 58 59 61 62
39 36 37 41 39 37 35 33 35 35 32 26 25 29 41 40 42 47 47 49 49 50 52 53 54 54 55 56 57 57 56 55 56 57 57 58 59 59 59 59 59 59 60 61
40 35 31 37 43 45 40 36 34 25 24 30 30 31 46 45 46 47 49 50 50 51 52 55 58 57 55 55 57 57 57 58 57 57 58 58 59 58 58 58 59 59 60 61
42 33 27 31 36 40 36 37 36 33 33 29 26 27 46 47 47 49 46 49 50 52 53 54 56 56 58 58 59 59 58 57 59 57 57 56 56 55 56 57 58 59 60 61
48 33 32 27 32 33 32 36 37 33 26 30 31 35 43 44 43 45 46 47 47 50 52 53 55 58 58 59 58 59 58 59 58 57 57 56 55 55 56 57 57 58 60 60
41 33 34 35 38 38 37 37 38 33 35 31 36 36 41 42 42 43 45 47 48 49 51 53 53 53 54 55 56 57 58 58 58 57 56 55 57 56 56 56 56 58 58 60
37 32 33 32 39 39 36 38 39 38 38 37 37 35 43 43 44 44 43 45 46 48 50 52 53 54 52 53 53 54 54 55 56 56 56 57 56 56 55 55 56 55 57 57
35 31 29 28 35 34 29 35 36 37 38 37 32 37 40 39 41 42 43 45 45 47 48 49 51 52 51 51 52 52 53 53 54 54 56 57 57 56 56 56 56 55 54 54
31 31 29 25 30 23 35 42 41 38 40 41 40 40 41 43 43 44 46 44 45 47 48 49 51 52 52 54 52 52 52 52 53 54 55 57 58 57 56 56 55 53 53 53
37 35 32 24 22 32 36 40 39 36 35 40 36 39 43 42 42 43 47 48 48 48 49 51 52 52 53 53 54 53 52 52 53 53 54 55 57 57 57 55 55 54 53 52
39 41 34 28 21 17 33 43 45 41 31 40 40 39 39 40 33 39 48 49 50 50 51 52 52 52 52 53 54 52 50 51 51 53 54 55 56 56 55 55 55 54 55 55
31 32 30 28 26 29 39 43 44 29 31 38 40 39 39 37 41 46 49 48 50 49 48 49 49 47 48 49 51 50 50 49 52 55 55 54 54 54 55 55 56 54 54 55
30 23 24 31 24 21 42 41 32 35 38 40 41 42 41 43 44 45 46 45 45 45 45 46 44 43 44 46 45 44 44 49 52 54 53 53 52 53 55 53 56 55 53 51
30 32 27 30 28 37 39 38 41 40 40 41 42 43 43 42 42 43 43 43 43 42 41 42 41 41 42 42 42 40 43 46 49 51 52 51 52 53 53 53 53 51 50 53
41 39 28 33 36 35 38 40 41 42 42 43 44 44 44 41 42 42 43 42 40 39 39 39 38 37 38 41 42 41 42 44 45 45 48 51 51 52 53 54 54 52 50 50
36 35 33 32 35 37 38 41 42 43 43 44 45 45 43 43 42 41 40 41 38 37 38 38 37 38 39 42 43 44 41 42 41 44 44 46 50 50 51 53 53 52 54 52
35 35 28 26 33 34 36 43 45 43 42 44 43 42 44 44 40 41 40 40 37 35 37 38 40 40 42 44 42 43 42 41 42 42 42 45 47 50 50 50 50 45 47 45

GFSCGP_sfc_temp_081.txt.gz
Temp
62 59 55 59 60 59 56 53 52 58 64 58 60 61 64 69 68 69 72 74 72 72 77 76 76 76 77 77 77 77 76 76 76 74 72 73 75 75 77 79 79 79 77 79
59 55 62 61 59 57 55 53 54 58 62 58 60 59 65 66 68 71 71 72 74 74 76 77 75 75 74 75 75 76 77 77 76 77 78 77 77 75 77 76 75 77 79 78
55 59 60 59 57 55 56 53 54 54 59 61 59 57 62 67 67 70 72 73 74 73 73 74 75 75 74 73 75 76 76 76 75 76 77 75 75 75 75 75 76 75 77 78
58 63 59 57 55 58 52 59 57 54 53 48 57 44 57 63 64 67 69 71 73 74 74 74 75 75 75 75 75 75 76 76 75 76 75 73 74 73 77 79 80 77 76 75
57 57 57 56 58 59 56 59 56 55 52 50 52 46 54 61 58 63 67 70 73 74 71 72 73 75 76 75 74 74 74 75 77 75 77 76 75 77 79 79 77 77 77 77
59 63 62 61 59 59 58 56 55 52 51 41 50 48 49 56 59 62 67 69 70 69 69 70 72 71 72 75 75 73 72 73 75 75 76 75 74 75 75 76 77 78 79 78
57 57 62 61 56 57 55 50 42 41 41 39 50 45 50 59 62 63 63 65 66 66 67 68 69 70 70 72 73 74 73 72 72 73 75 75 75 75 74 75 77 76 77 77
45 45 53 57 56 52 50 49 40 30 35 39 48 40 50 59 61 62 63 63 65 65 67 68 68 67 69 69 72 72 73 73 71 71 72 73 73 76 76 75 77 77 77 77
46 45 55 56 57 56 47 44 48 38 42 37 44 49 56 59 58 59 60 61 62 64 66 66 69 69 68 68 69 70 72 72 70 71 71 71 72 73 74 73 73 75 75 77
51 43 51 53 57 53 51 53 39 41 26 28 41 41 44 51 52 57 59 58 59 62 64 66 68 68 68 68 69 67 69 70 70 70 71 71 71 72 72 72 72 72 73 73
52 47 46 51 49 48 46 44 44 41 34 30 31 41 52 50 53 54 57 58 59 60 62 64 66 69 71 72 70 69 68 66 66 69 71 71 72 73 72 72 72 72 72 73
50 46 40 45 52 53 50 47 46 36 34 37 36 38 59 55 55 57 57 59 60 60 62 64 66 68 69 68 70 72 69 71 70 69 68 70 72 71 71 72 72 73 72 73
49 44 38 41 46 48 46 48 48 43 39 34 30 39 57 57 57 59 56 58 59 59 61 63 64 65 66 67 65 66 68 69 70 70 71 70 70 69 69 71 72 72 73 73
53 45 44 38 43 45 41 45 47 45 36 39 40 43 51 54 54 56 56 57 58 59 60 61 63 64 65 64 65 64 64 66 67 68 66 68 70 69 70 71 71 71 73 73
50 43 45 46 48 46 45 45 46 43 44 37 43 44 50 53 53 53 55 56 56 57 59 60 60 61 63 63 63 63 65 66 64 64 65 64 66 68 69 68 69 71 71 73
46 42 42 41 46 47 43 46 46 46 46 45 45 45 53 53 54 53 54 54 54 56 58 59 59 60 60 61 61 61 61 60 61 59 61 63 64 66 66 67 68 69 70 71
44 43 40 36 41 42 39 46 46 46 48 47 41 50 54 51 50 50 51 52 53 55 56 57 57 58 59 60 60 60 61 63 63 62 63 63 64 65 66 65 67 67 66 67
43 43 41 36 40 30 44 50 49 46 48 50 50 51 51 50 52 53 55 53 53 55 55 56 57 57 58 59 59 60 61 61 61 61 63 65 65 64 65 65 64 65 66 65
48 45 38 34 35 41 44 45 45 42 44 50 45 47 49 51 50 50 55 56 54 54 55 57 56 55 56 57 59 59 59 59 59 60 61 63 64 64 64 63 63 63 64 64
45 47 40 34 29 28 41 47 51 49 39 46 47 46 45 45 35 43 52 52 51 50 50 52 54 54 53 51 52 50 52 55 57 59 61 63 63 63 62 63 63 63 64 65
35 36 34 35 32 40 46 49 51 35 39 46 46 45 44 39 43 47 50 48 47 48 49 49 48 47 46 50 49 47 48 48 54 56 59 61 62 61 61 62 63 63 63 64
37 34 34 36 32 30 48 49 39 44 47 46 46 45 43 44 45 45 44 44 45 44 43 44 44 42 43 44 42 41 42 46 49 50 51 55 59 60 62 60 61 62 62 62
36 42 38 39 39 46 49 46 48 48 45 44 44 45 45 43 42 43 43 43 42 42 42 43 41 40 41 41 41 39 41 44 45 45 46 48 52 56 60 59 59 61 61 62
45 45 41 42 44 45 47 47 50 49 46 47 47 46 46 41 43 42 41 40 40 40 40 40 39 39 39 41 42 41 42 43 43 42 43 46 48 51 54 56 59 59 60 61
46 46 42 43 47 48 46 49 48 48 48 47 48 47 45 44 42 41 39 39 39 38 38 39 40 40 41 43 43 45 44 43 41 41 41 44 47 48 52 52 54 58 61 62
47 44 40 39 43 43 44 48 49 46 45 46 45 44 45 44 41 40 38 38 37 36 39 39 40 40 41 43 45 44 43 42 43 40 41 43 45 46 48 51 52 46 49 46

GFSCGP_sfc_temp_084.txt.gz
Temp
72 67 63 68 69 68 65 63 62 66 72 68 67 68 72 77 78 78 80 81 82 83 87 88 89 89 87 85 84 84 83 81 83 82 82 83 84 86 88 89 87 87 86 85
66 62 70 70 68 65 64 62 62 67 70 68 67 66 72 75 76 77 78 79 81 83 85 87 88 89 86 84 82 83 84 84 82 83 81 83 83 85 86 88 86 85 85 85
64 67 69 66 65 62 64 61 62 61 67 69 66 63 68 76 78 78 79 80 82 81 82 84 86 86 87 85 83 82 82 84 84 85 85 82 84 84 81 84 84 83 83 83
66 72 67 65 63 65 59 68 64 62 60 56 67 52 64 70 72 75 77 79 80 81 83 84 85 84 85 85 86 85 82 82 85 83 84 79 80 79 83 84 86 84 82 82
64 64 64 63 65 66 62 66 64 63 60 59 60 57 63 70 67 71 74 76 78 81 81 80 81 81 83 83 83 83 81 81 82 83 82 83 79 84 86 87 85 82 82 82
67 73 68 68 67 67 67 64 64 64 61 50 58 57 60 63 65 68 71 74 76 76 76 78 80 81 81 83 84 84 81 79 81 82 80 81 81 82 86 84 86 86 86 84
65 67 71 68 63 67 64 59 50 49 51 50 61 55 58 65 66 67 67 70 72 74 75 76 77 78 79 79 80 80 81 79 81 81 81 80 80 81 81 83 85 85 87 86
53 52 61 65 63 61 60 58 48 36 43 49 57 48 59 67 67 68 68 70 71 72 74 75 76 76 78 78 78 78 78 79 82 82 78 78 79 81 84 83 87 87 89 88
52 51 61 62 64 63 58 52 59 47 49 45 53 58 65 65 65 66 67 68 69 70 72 73 75 76 76 77 77 76 76 77 80 82 80 77 79 80 83 83 82 85 85 88
58 49 59 61 63 61 59 62 46 52 32 35 49 51 54 60 60 64 65 66 68 70 71 73 74 74 75 77 78 77 75 74 78 80 79 79 79 80 81 80 79 82 82 83
61 54 53 57 56 55 55 53 52 50 45 35 37 49 61 60 63 61 65 67 68 68 70 72 73 74 76 77 77 76 76 76 76 77 78 78 78 79 80 79 80 80 80 80
60 54 47 53 61 61 59 55 55 42 41 44 43 45 65 64 65 65 66 68 69 69 70 72 73 73 74 75 76 75 74 76 77 76 75 74 76 78 78 78 79 80 79 80
58 50 43 48 53 56 53 56 56 53 49 41 37 45 65 66 65 67 66 67 67 68 69 71 72 72 72 73 73 74 73 73 74 74 77 74 74 75 76 77 78 79 80 80
58 51 48 44 50 53 48 52 56 54 44 47 49 52 59 62 62 64 65 66 67 68 68 69 70 71 72 71 72 72 72 74 71 72 73 72 75 75 73 77 78 79 80 80
55 46 50 53 55 55 53 52 54 52 53 47 51 52 58 61 62 62 64 65 65 65 67 67 67 68 69 69 70 71 72 73 72 68 70 70 71 73 75 75 76 78 79 80
55 45 50 47 53 54 50 54 55 55 55 54 54 53 64 66 66 63 62 62 61 62 64 66 66 67 66 66 67 68 68 70 71 68 63 69 70 72 72 73 74 73 76 78
50 47 45 41 51 49 45 53 54 55 58 56 50 58 63 61 59 59 59 60 60 61 62 63 63 64 63 64 65 64 66 68 68 68 67 66 67 69 71 72 72 73 73 76
48 48 48 42 47 35 52 58 56 52 55 58 58 59 60 59 61 61 61 59 59 59 58 57 57 58 59 59 60 62 61 63 65 67 68 68 62 63 63 69 69 68 71 70
53 49 42 38 41 49 52 52 51 49 50 58 56 57 58 58 58 55 61 59 55 54 55 55 54 54 53 53 55 55 58 61 59 61 66 68 67 64 59 57 60 65 66 67
52 51 43 41 32 32 48 53 57 57 47 54 55 54 53 54 40 47 54 53 52 51 50 48 49 48 48 47 49 49 49 53 54 56 58 65 68 68 67 68 65 62 66 68
40 43 38 39 35 46 52 54 57 39 44 54 54 53 50 44 47 51 53 51 49 47 46 46 46 44 45 47 46 44 44 43 48 52 58 56 57 60 67 68 69 68 67 68
41 37 37 40 34 32 54 55 45 51 54 54 54 52 48 47 49 50 51 48 46 43 43 44 43 43 44 45 44 42 41 44 46 45 46 50 54 59 63 65 67 67 67 66
40 47 42 45 45 52 57 53 56 55 53 54 50 51 48 47 49 51 48 45 43 42 41 42 41 40 42 43 43 40 41 43 43 43 43 44 47 52 57 58 62 66 66 68
51 54 46 47 52 54 56 57 56 56 54 54 52 49 50 50 50 48 43 41 40 40 40 40 39 39 40 43 42 42 43 44 43 41 42 43 45 46 48 53 58 60 65 66
53 53 49 50 56 55 55 56 56 55 56 53 53 54 53 51 48 44 40 39 39 39 39 40 39 39 40 41 42 45 45 44 42 42 42 42 43 45 47 48 49 58 64 67
56 51 45 43 52 52 54 56 57 54 52 52 52 51 53 51 47 41 39 39 38 37 39 39 39 39 40 43 44 47 46 45 42 41 40 42 42 44 45 48 49 48 49 48

GFSCGP_sfc_temp_087.txt.gz
Temp
76 71 68 73 75 75 72 70 69 74 78 73 72 73 77 81 82 81 83 84 85 87 91 93 93 93 92 91 89 85 83 80 89 89 87 83 84 87 89 90 90 90 87 86
72 66 75 77 75 71 70 67 67 73 76 73 71 70 76 79 80 82 81 82 84 86 88 90 91 92 91 89 89 88 86 85 84 86 84 85 84 89 90 91 89 90 89 88
68 73 75 72 70 67 68 66 67 67 72 74 70 67 72 79 82 83 84 84 85 84 84 86 88 89 90 89 87 87 87 86 84 85 88 85 85 85 85 86 87 86 86 86
71 77 71 70 68 70 63 73 70 66 64 59 72 56 68 75 77 80 82 83 84 84 85 86 86 87 86 86 88 87 86 84 86 83 85 81 83 82 86 86 88 88 86 85
69 70 70 67 69 72 66 73 68 67 64 63 64 61 67 75 72 75 77 79 80 82 83 82 83 84 85 85 85 85 84 83 84 83 83 85 79 84 88 89 84 84 83 83
72 78 73 72 73 72 73 68 67 68 65 54 63 62 64 70 69 71 74 76 77 79 80 81 83 84 83 85 85 83 82 81 84 83 82 80 80 78 86 85 86 87 86 84
67 69 76 76 67 73 69 62 53 52 52 50 66 61 64 71 71 70 70 73 76 77 78 79 80 81 79 82 82 82 81 79 81 83 82 82 79 79 78 78 78 84 87 86
53 53 67 71 66 64 66 63 53 41 46 54 64 54 65 72 73 72 73 72 75 74 75 75 77 78 80 80 80 81 79 78 79 81 83 83 80 78 77 77 83 87 86 88
53 52 66 67 69 68 62 58 65 53 55 50 57 63 71 72 70 70 72 72 72 74 75 76 77 78 79 78 79 79 79 78 78 79 81 82 80 77 76 79 78 86 85 88
59 49 64 67 67 68 63 68 51 56 38 39 53 55 59 64 65 69 70 70 73 75 76 76 77 78 78 78 79 79 78 78 79 78 80 83 81 78 78 78 75 75 81 86
60 54 57 63 59 58 58 57 58 57 51 38 40 52 67 64 66 67 70 72 73 74 75 75 77 78 79 79 80 78 78 77 78 79 79 79 81 82 76 71 69 73 78 84
62 55 49 53 65 67 64 59 59 46 45 51 49 50 70 67 70 70 71 73 75 74 74 76 76 77 77 78 79 77 76 77 78 79 77 78 77 80 79 75 66 71 81 82
58 52 44 48 56 63 57 60 61 59 56 46 41 49 71 71 71 72 71 73 72 72 74 74 75 76 76 76 77 76 76 77 78 77 76 71 75 75 75 79 80 81 81 80
58 54 49 44 47 55 52 57 61 58 47 50 52 56 64 67 67 70 71 71 72 72 71 72 73 75 75 75 75 75 75 76 76 77 75 73 70 75 74 76 77 80 81 80
55 46 52 54 56 57 57 58 59 56 57 51 56 57 63 66 68 69 70 71 70 70 71 70 70 71 73 73 73 73 74 74 74 74 73 72 73 73 74 77 78 79 77 79
54 45 50 46 55 57 55 59 59 59 59 59 59 58 69 70 70 69 67 68 67 66 67 68 68 68 67 67 67 68 68 69 72 71 71 73 73 73 73 73 72 77 78 79
49 47 45 41 51 55 48 56 58 60 62 61 55 62 68 66 65 64 64 64 63 63 64 62 61 60 60 61 61 59 61 63 63 65 70 71 72 70 70 72 73 74 75 77
45 47 46 42 48 37 57 63 61 58 60 63 63 64 65 64 66 66 67 64 61 60 59 56 54 53 53 54 53 54 55 56 57 56 61 67 71 72 67 63 64 70 71 71
53 48 40 40 41 51 55 55 57 54 54 63 61 61 62 63 63 61 65 62 58 56 52 51 50 48 47 47 48 49 48 51 49 52 56 59 64 66 70 64 58 65 70 69
53 55 46 43 35 35 50 56 62 61 49 59 58 58 58 59 50 55 58 58 57 53 50 47 48 47 46 46 47 46 46 46 47 47 49 55 58 60 57 65 62 59 67 69
44 46 40 41 38 46 56 60 62 44 46 58 59 59 57 53 55 56 59 57 56 51 48 47 45 44 44 44 44 43 44 43 47 49 51 50 51 57 57 56 63 64 58 62
43 39 39 42 36 34 59 59 48 54 58 58 60 59 56 55 56 55 57 54 51 45 44 44 42 41 43 43 42 40 40 44 45 46 46 47 50 51 54 55 57 61 63 56
39 44 42 46 46 56 61 59 62 60 58 59 58 59 57 55 55 56 55 51 44 42 41 42 41 40 42 43 43 40 42 43 43 43 43 44 46 49 49 49 55 61 61 63
52 59 48 51 57 56 59 62 61 62 59 60 61 59 58 54 55 55 53 44 41 40 39 40 40 40 40 43 43 43 44 44 44 42 41 42 42 44 47 46 51 59 63 64
57 56 52 53 57 58 60 59 61 61 61 60 61 59 57 54 54 53 45 41 40 39 39 40 39 39 40 42 43 47 48 48 43 43 43 43 42 43 43 45 47 51 62 63
59 55 48 46 55 55 58 61 62 60 59 60 58 57 57 55 54 51 42 40 39 37 39 39 39 38 41 43 45 50 51 50 45 43 42 41 42 42 43 44 46 44 44 43

GFSCGP_sfc_temp_090.txt.gz
Temp
74 68 64 70 73 74 73 70 69 76 81 76 73 73 76 81 81 81 82 83 83 84 89 88 88 88 88 86 81 79 79 78 76 77 76 79 78 80 82 83 83 83 81 81
71 64 74 78 78 74 71 67 67 73 77 74 71 70 75 78 79 80 80 81 83 84 86 88 87 88 86 82 81 82 80 79 79 79 78 77 80 80 82 82 82 83 82 81
66 73 78 74 72 68 68 65 66 67 73 75 70 65 70 77 80 81 83 84 84 82 82 84 85 84 83 80 77 78 78 79 80 80 78 79 78 77 75 76 76 82 83 81
71 77 73 70 68 71 62 73 71 68 65 57 71 54 66 73 76 79 81 82 80 80 81 82 81 80 80 80 81 80 79 78 80 78 77 73 75 75 79 76 78 79 83 81
67 71 70 67 69 74 67 74 69 68 63 61 62 58 64 74 71 75 74 76 78 79 79 79 80 81 82 82 80 80 78 75 75 75 76 76 74 77 77 75 76 76 77 80
69 78 75 73 75 74 74 68 67 66 62 51 60 60 61 67 68 71 73 75 76 78 78 80 81 81 81 81 80 78 77 76 75 74 74 73 73 74 73 75 74 75 74 78
64 66 73 76 68 73 70 62 50 49 50 49 65 58 63 71 72 72 71 73 75 76 76 77 77 78 77 78 78 77 76 74 76 75 73 73 74 74 74 75 73 74 77 77
55 53 64 70 68 63 64 62 51 40 44 51 62 50 62 73 75 74 74 74 74 75 76 76 77 77 78 77 77 76 75 74 74 74 74 73 73 78 74 76 73 73 79 77
55 55 69 68 70 66 60 55 64 52 55 49 55 61 70 73 71 71 70 72 72 74 76 76 77 77 77 76 75 75 75 74 74 74 73 72 73 73 74 74 73 73 75 72
61 50 63 67 69 68 63 66 50 54 38 38 50 54 57 63 64 68 69 71 73 75 76 77 77 77 76 76 76 75 73 74 74 73 73 74 73 74 73 74 73 73 74 70
63 55 54 62 57 55 58 55 57 56 50 38 39 49 67 64 66 66 69 71 73 74 76 76 77 77 78 78 77 74 75 74 73 73 73 72 72 73 70 70 72 72 62 60
61 52 47 54 65 68 63 58 56 43 44 50 47 47 69 69 69 70 71 73 75 75 76 76 77 77 77 76 77 76 74 74 74 74 72 71 71 70 71 69 70 63 61 61
61 51 43 48 57 62 56 60 59 57 54 45 41 46 69 70 70 72 71 73 74 74 75 75 75 75 75 75 75 75 74 74 75 73 72 70 69 69 67 68 68 63 63 59
58 53 46 41 45 52 51 56 59 56 47 49 51 54 62 66 67 70 71 72 72 72 72 71 71 72 72 71 69 69 69 71 71 72 71 68 68 68 68 69 64 62 66 65
58 47 51 53 56 53 51 52 56 55 56 50 55 57 62 66 67 68 69 69 68 68 69 69 68 67 66 64 62 62 62 62 63 63 64 63 65 68 69 67 67 61 65 66
57 46 50 46 53 55 52 56 57 58 59 58 59 58 69 69 70 66 66 66 65 65 66 64 63 62 59 58 57 56 56 56 58 57 58 61 63 64 65 67 66 65 61 68
46 47 45 40 52 52 45 54 56 59 61 60 54 60 66 62 63 62 63 64 63 61 61 60 59 56 55 55 55 52 53 53 53 52 54 58 60 63 62 66 67 67 63 62
47 45 42 39 46 33 53 64 63 59 61 63 62 63 62 61 63 64 66 61 59 59 59 58 56 54 51 51 49 50 51 50 51 50 53 54 56 59 60 60 63 64 64 62
52 45 37 37 39 47 54 57 55 53 55 60 57 59 60 62 61 61 64 61 59 59 58 56 52 48 47 47 47 47 46 46 47 48 50 51 54 51 54 57 58 61 63 62
51 47 39 40 32 33 49 58 64 61 47 58 58 57 57 58 49 54 59 60 60 58 54 48 46 45 45 44 45 44 44 44 44 47 49 51 52 51 51 54 57 58 60 62
41 40 36 37 35 45 54 56 63 43 44 58 59 58 56 52 54 56 60 59 57 54 49 46 44 42 42 44 43 40 41 41 44 45 45 46 48 50 50 49 52 56 58 60
42 40 39 43 37 34 60 59 48 53 58 59 59 58 56 56 57 58 57 55 53 47 45 44 42 41 42 43 42 41 41 44 45 44 44 44 44 46 50 50 49 52 53 56
40 45 40 42 43 55 60 58 62 61 60 59 58 59 57 56 56 56 53 54 46 44 42 42 40 40 42 43 43 40 42 44 45 44 43 43 43 44 45 46 47 46 48 51
51 54 43 45 50 51 56 60 62 62 60 61 61 60 58 55 55 52 52 47 43 41 40 40 39 39 39 41 42 43 45 47 46 45 44 44 43 42 43 44 48 46 45 49
53 54 51 51 57 57 56 58 61 62 62 61 62 60 58 56 53 52 48 43 41 40 39 39 38 38 38 40 42 45 48 48 46 45 44 44 43 43 42 43 44 46 47 49
59 54 47 45 55 54 55 57 63 60 59 60 58 57 59 55 52 49 45 42 39 38 38 38 37 38 39 41 42 45 49 50 47 45 44 42 42 42 42 42 43 42 44 42

GFSCGP_sfc_temp_093.txt.gz
Temp
64 53 49 56 61 64 63 59 58 63 70 66 63 62 66 68 67 68 68 69 70 72 77 77 77 77 76 73 72 73 74 73 72 69 70 72 70 72 72 73 76 76 75 76
57 52 63 69 69 66 63 58 56 63 70 63 61 60 63 66 67 68 69 69 69 69 72 75 74 72 71 69 69 71 71 71 70 68 68 70 71 73 74 74 74 76 77 78
55 63 71 69 65 64 58 56 57 57 64 64 60 54 60 68 69 72 71 71 70 69 67 69 70 68 69 69 69 69 68 69 69 69 69 67 68 70 70 72 72 75 76 78
61 69 69 63 64 64 54 66 66 63 55 45 59 40 54 61 63 70 68 65 65 66 68 68 68 67 68 69 69 68 68 67 69 68 66 64 63 66 73 70 72 73 76 76
59 63 64 62 64 68 60 66 62 60 52 49 52 43 51 60 61 61 62 65 64 65 67 67 68 70 68 69 67 67 67 67 67 66 65 63 63 67 70 68 70 71 73 75
63 71 68 67 71 70 69 61 58 54 49 37 50 47 49 57 59 60 63 65 67 66 67 67 68 69 67 68 67 66 66 65 67 66 66 63 63 65 68 71 67 70 71 75
58 60 68 72 63 66 61 49 36 34 34 36 54 48 51 62 63 63 62 63 64 65 65 64 62 65 64 63 65 67 66 65 66 66 66 66 65 63 65 69 71 71 70 70
47 46 63 67 62 56 57 53 40 29 31 39 55 43 53 63 64 65 65 63 65 61 64 63 62 66 65 65 66 65 65 64 64 64 64 63 64 64 68 67 68 67 70 70
46 48 67 68 67 62 55 49 55 43 45 37 43 52 62 64 61 63 62 63 61 63 64 65 65 65 65 65 65 65 65 64 64 64 64 63 63 63 63 64 65 66 68 71
52 43 59 64 67 64 56 61 42 42 31 29 43 47 48 53 55 60 58 57 58 61 62 62 64 65 65 65 66 65 64 64 64 63 63 65 63 63 62 61 63 65 67 65
53 46 48 56 51 48 51 48 50 48 41 28 28 41 58 54 57 56 57 61 61 61 60 63 64 65 65 64 63 64 63 63 63 63 63 62 62 63 61 59 61 64 62 58
52 44 37 46 58 63 59 51 50 35 37 39 36 40 60 58 59 59 59 61 60 59 62 61 61 62 62 62 62 60 59 60 60 61 62 62 61 61 60 60 60 60 59 58
51 40 32 39 47 55 53 55 54 45 45 38 32 36 62 64 60 59 57 59 60 60 60 59 60 60 60 59 59 58 58 58 58 58 58 58 59 60 61 59 60 59 59 57
55 44 39 33 41 45 42 48 55 49 34 41 43 47 56 59 58 59 55 57 57 57 60 58 55 54 55 57 56 57 57 58 58 57 56 55 56 57 59 60 59 59 60 58
47 38 43 46 51 51 47 47 47 48 48 42 47 50 56 56 54 53 55 58 58 57 57 57 56 54 54 55 56 57 56 56 56 54 53 53 55 56 57 58 57 57 60 62
45 36 42 41 50 50 47 52 49 51 52 52 54 53 56 55 56 55 55 56 53 55 56 56 57 55 54 54 53 54 52 52 52 51 50 52 52 53 54 56 57 56 56 59
41 39 37 32 47 45 38 49 52 54 56 56 47 50 52 51 53 52 50 51 51 52 54 54 53 50 49 48 49 48 49 50 50 50 50 51 51 51 52 55 55 57 54 54
43 41 38 32 40 27 47 58 60 56 55 54 54 52 53 51 52 53 51 47 50 52 52 48 45 46 48 49 47 47 48 47 47 48 49 49 48 49 51 52 51 53 54 52
46 42 35 32 32 40 48 55 53 50 45 51 50 52 52 52 51 47 54 55 51 50 47 44 47 47 45 45 45 44 44 44 45 45 46 48 48 48 49 49 49 49 50 51
49 46 36 34 29 29 44 52 56 56 40 52 52 50 48 48 38 42 51 51 52 46 45 45 45 45 44 44 43 42 42 42 42 44 45 47 47 46 45 46 47 49 51 51
38 38 33 32 28 37 53 54 53 37 37 51 51 49 47 41 43 47 51 50 50 45 45 46 44 42 42 43 42 40 41 41 44 45 46 46 46 45 45 45 47 49 49 52
36 34 33 34 31 27 54 54 43 45 49 51 51 49 46 46 48 49 49 49 44 43 44 43 41 40 42 42 41 40 40 43 44 44 44 45 45 45 46 44 44 45 48 50
36 40 35 38 36 47 52 49 54 54 50 50 48 49 48 46 47 48 47 45 43 43 42 42 40 39 41 42 41 39 40 43 44 44 44 45 45 45 45 42 42 43 45 48
47 49 37 42 47 49 51 51 54 54 52 52 52 50 49 45 47 44 44 43 41 41 40 40 38 38 38 40 41 41 43 44 43 44 45 46 46 44 44 43 43 42 44 45
48 47 43 42 47 49 50 54 54 55 55 53 53 51 48 47 44 42 41 40 40 39 38 38 37 37 37 39 40 42 42 43 43 45 46 45 44 43 43 43 43 43 45 46
51 46 38 37 48 48 49 51 57 54 52 52 51 48 49 46 42 42 40 40 38 37 37 37 37 37 38 39 39 41 43 44 43 43 46 43 42 42 43 42 42 41 42 41

GFSCGP_sfc_temp_096.txt.gz
Temp
59 51 47 53 56 58 56 55 53 57 66 62 61 61 64 65 65 63 65 65 67 71 73 71 71 71 69 67 68 68 68 67 67 67 65 68 69 70 71 71 72 72 71 73
54 48 58 63 62 60 58 53 53 59 64 58 56 57 62 64 64 65 66 66 67 64 66 67 67 67 67 66 66 66 68 68 67 67 65 66 65 68 70 72 73 72 71 71
50 58 65 63 60 58 57 54 54 55 60 60 56 52 56 64 65 67 66 63 64 64 63 64 66 65 66 65 65 66 66 66 66 67 66 65 62 62 63 66 68 71 72 73
55 65 63 61 59 60 50 62 61 58 51 44 55 39 49 57 60 61 60 59 61 62 63 64 64 63 65 64 65 65 65 65 66 65 63 62 61 60 63 61 64 66 70 72
54 59 59 57 60 64 56 63 59 56 48 44 48 41 48 53 53 55 57 59 60 62 63 63 63 65 65 65 64 64 64 64 64 63 63 61 60 60 62 61 62 62 64 69
57 66 64 61 66 65 65 57 52 48 44 36 45 44 43 49 54 55 57 60 62 61 62 64 64 65 64 63 63 63 64 64 64 64 63 62 61 60 58 60 60 64 69 68
55 56 63 67 57 61 57 46 34 33 33 34 48 44 46 54 58 59 57 59 61 63 62 63 63 64 61 61 63 64 64 64 64 63 64 64 63 61 60 60 60 61 64 67
44 44 59 64 59 53 51 48 35 30 30 35 48 40 49 58 60 62 64 62 61 61 62 63 64 64 63 64 63 62 62 62 62 62 62 61 61 59 60 60 60 60 60 65
46 48 62 64 65 60 51 44 51 41 41 35 40 48 55 60 60 61 60 60 59 59 60 61 61 61 61 61 63 62 61 61 61 61 60 59 60 59 58 59 59 59 60 63
50 42 57 60 63 60 55 59 41 39 31 28 40 46 46 50 54 58 57 57 58 59 59 58 60 60 59 57 57 57 57 56 56 57 57 59 59 60 59 57 57 58 59 60
51 45 46 53 49 46 48 46 48 44 39 27 26 39 54 54 53 55 57 60 56 54 55 56 56 56 55 54 54 53 54 54 54 55 55 56 57 58 57 56 57 57 58 59
49 43 38 44 53 57 51 47 45 33 35 37 34 37 58 59 58 56 55 56 54 54 53 53 52 53 53 52 52 52 52 52 53 53 55 55 56 56 56 56 55 55 57 59
49 39 32 38 44 48 45 50 48 43 38 36 33 35 60 61 59 57 51 52 54 54 52 52 51 52 53 52 53 52 52 52 53 55 55 54 54 54 54 55 56 54 55 57
53 41 37 32 39 42 40 46 48 41 32 35 37 42 53 56 53 51 51 52 50 51 53 52 49 49 50 52 52 52 53 55 55 55 54 52 52 52 53 54 54 53 55 56
45 37 40 44 47 47 45 47 48 45 42 35 41 42 50 49 49 49 49 51 52 50 51 51 50 49 49 48 49 51 52 53 52 50 49 49 50 51 51 51 52 52 53 55
42 35 38 39 46 46 44 47 47 49 47 47 49 46 49 49 48 48 49 50 49 50 51 51 51 49 47 47 49 50 50 48 48 47 48 49 50 50 50 50 50 51 53 52
38 37 37 31 43 43 35 44 47 49 51 52 44 46 46 45 47 46 45 47 48 48 49 48 46 45 46 47 48 45 46 46 46 47 47 48 49 50 50 49 49 49 51 50
38 37 38 34 37 27 42 52 53 49 49 52 48 48 47 45 47 47 46 43 45 46 46 44 42 44 45 45 44 45 45 44 45 45 46 47 47 48 49 48 48 47 48 47
47 41 35 31 28 37 45 47 47 44 42 49 48 47 49 49 48 43 50 48 45 43 42 41 43 44 43 43 44 44 43 43 44 44 45 47 47 47 46 46 46 47 47 46
47 45 36 33 28 25 41 51 54 53 37 49 49 47 46 44 36 39 44 45 44 42 41 43 42 44 44 43 43 42 41 42 42 43 45 46 46 46 45 46 46 47 46 47
36 36 33 33 30 33 48 51 54 36 37 49 50 47 44 41 42 45 45 44 42 42 43 44 43 42 42 43 42 40 40 40 42 44 44 45 45 45 46 45 45 45 44 45
33 32 32 34 31 28 51 50 41 44 48 48 49 47 45 44 45 44 43 42 42 41 42 42 40 40 41 41 40 39 39 42 43 43 43 44 45 46 47 45 45 44 44 43
36 38 34 36 33 44 48 48 49 51 50 47 47 47 46 43 40 40 40 40 40 41 40 41 39 38 40 41 40 38 40 42 42 42 41 43 46 46 47 45 44 42 42 42
45 48 38 40 45 47 48 51 51 52 52 49 49 46 44 39 39 38 39 40 39 39 38 39 38 37 37 39 40 40 41 42 41 40 42 44 44 44 44 44 44 43 42 42
43 46 43 41 43 47 49 49 52 54 51 50 48 46 42 40 38 38 39 39 39 38 38 39 37 37 37 39 39 40 41 41 40 40 41 42 44 43 42 44 44 43 44 43
45 41 37 34 45 44 46 49 53 50 48 47 45 42 42 40 38 39 39 39 39 38 39 38 37 37 37 38 38 39 41 40 39 38 40 42 43 43 43 42 42 41 41 41

GFSCGP_sfc_temp_102.txt.gz
Temp
51 44 40 47 50 51 50 47 46 52 58 53 51 52 59 61 60 59 65 68 69 69 69 68 68 68 67 65 65 66 66 64 66 65 65 65 65 66 68 70 72 72 71 71
48 43 52 55 54 52 50 46 46 53 56 53 51 52 55 56 60 60 63 64 63 61 64 64 64 64 66 64 64 65 65 65 64 63 63 62 63 63 66 66 69 71 71 71
45 52 58 55 52 51 49 46 47 50 54 53 49 47 48 56 58 61 59 61 62 62 61 61 63 61 61 62 63 63 63 63 63 63 62 61 60 61 61 62 64 67 69 70
50 56 56 52 51 52 45 54 54 52 47 41 48 38 46 50 52 55 56 56 59 61 61 61 61 60 61 61 62 63 63 64 65 64 64 63 62 61 61 60 61 63 65 66
50 52 51 50 53 56 51 56 52 49 43 40 45 40 45 47 48 50 52 54 54 56 58 59 61 61 61 61 61 62 62 62 63 62 62 62 60 60 60 60 61 60 61 63
54 59 57 55 59 58 58 51 47 42 39 35 40 41 41 46 49 49 51 54 56 57 59 60 61 61 61 61 60 59 59 56 57 58 58 57 56 56 57 57 57 58 59 61
48 52 58 60 52 54 51 43 32 32 32 33 42 39 44 48 54 54 52 54 56 57 56 58 59 59 59 57 56 58 55 53 54 54 54 54 54 54 55 55 55 55 57 59
41 40 54 60 56 50 47 45 33 29 29 33 42 36 45 52 54 56 56 55 55 55 55 55 56 56 55 54 53 53 53 52 53 53 53 53 54 54 54 55 55 55 56 58
41 44 57 59 59 56 47 41 46 35 34 31 35 42 50 53 52 54 54 55 54 52 54 55 52 51 51 51 51 52 53 53 54 54 53 53 53 53 52 52 52 54 55 59
49 43 53 57 59 58 52 53 38 35 28 27 34 37 40 46 49 52 51 50 53 52 50 49 50 50 51 51 51 52 52 53 53 52 51 53 52 52 51 50 51 51 53 55
49 45 44 50 47 47 49 44 41 39 33 27 25 35 47 49 49 49 52 50 48 46 47 48 49 50 51 51 51 51 51 51 50 51 50 50 51 51 52 50 49 50 50 52
48 43 37 44 49 51 47 44 41 33 34 33 31 35 53 53 53 50 48 48 46 47 47 48 49 50 50 50 50 50 50 50 50 50 50 50 49 50 50 50 51 50 49 51
49 40 33 36 45 48 43 44 42 38 34 31 28 34 54 51 49 49 47 48 48 48 49 49 49 49 49 49 49 49 48 48 49 50 50 48 48 48 48 49 50 50 50 50
52 40 39 33 36 39 39 43 43 39 30 33 33 37 45 47 50 50 46 47 47 48 49 49 49 48 47 48 48 49 49 49 48 48 47 46 46 47 47 48 48 48 50 50
45 38 40 42 45 43 41 42 43 40 39 35 39 39 44 47 48 45 46 47 48 47 48 48 48 46 46 46 47 48 48 48 47 46 46 45 46 47 48 47 48 48 49 50
41 34 38 37 43 43 40 43 43 43 42 40 42 40 48 45 46 46 46 47 46 46 48 48 48 46 45 45 45 46 45 47 47 44 44 46 47 48 48 48 47 47 47 48
36 34 33 31 38 38 33 41 42 42 45 44 36 43 45 43 45 44 45 46 45 45 45 45 44 43 43 43 45 45 46 47 45 45 46 47 48 47 48 48 47 47 46 47
35 32 31 28 32 23 39 47 48 44 44 44 44 45 45 47 46 46 46 43 43 43 43 42 41 41 42 46 46 46 46 45 45 45 45 47 47 46 47 46 45 45 46 46
39 34 32 28 30 34 40 45 43 40 38 43 41 43 45 44 44 41 46 45 41 41 40 39 40 43 45 44 44 42 42 43 43 43 44 45 46 45 45 44 45 46 47 47
40 39 31 32 28 25 36 46 50 47 34 46 46 45 44 44 41 42 43 42 40 39 39 39 43 43 43 43 43 41 40 41 41 43 43 45 45 44 44 44 45 46 47 46
33 35 32 31 23 31 42 47 49 32 34 44 45 45 45 43 42 41 40 39 39 38 41 43 42 41 41 42 42 39 40 39 42 43 43 43 44 43 43 44 46 45 45 46
34 32 32 33 27 25 46 46 38 40 41 45 46 45 44 41 40 39 39 37 40 41 41 42 40 40 42 42 41 39 38 41 42 42 42 42 43 43 44 43 44 45 45 43
34 36 30 33 31 40 44 43 45 45 44 45 44 44 43 40 39 38 36 41 39 39 39 40 40 39 40 41 40 37 39 40 40 40 40 41 42 42 43 43 43 44 44 43
43 46 37 39 40 42 44 46 48 50 48 48 48 45 43 38 38 37 39 37 37 38 37 39 38 38 38 40 40 39 40 40 40 39 39 40 40 41 43 44 45 44 43 42
42 45 41 40 43 45 45 46 47 47 48 46 44 42 40 38 37 37 37 37 36 37 37 39 38 37 38 39 39 40 40 40 38 38 39 39 40 41 42 44 45 44 44 43
38 37 35 34 42 42 43 46 47 45 43 42 40 39 40 39 38 37 37 36 36 36 38 39 38 38 39 39 39 39 40 39 37 37 38 38 39 41 41 43 44 43 41 41

GFSCGP_sfc_temp_105.txt.gz
Temp
59 56 53 58 60 61 58 57 56 63 67 63 62 63 68 73 73 74 77 77 77 79 86 86 78 76 77 74 73 75 73 73 73 73 74 76 78 77 80 81 80 80 80 80
54 51 60 63 62 58 57 55 57 63 66 62 62 61 68 69 71 75 72 74 75 78 80 80 77 74 75 72 71 72 72 72 75 73 73 74 74 75 77 77 78 80 81 81
54 59 64 59 59 56 57 56 57 58 63 64 60 59 62 69 69 73 73 77 77 77 74 73 76 73 70 71 71 70 70 72 75 74 73 73 74 73 75 75 77 78 79 80
58 64 60 59 58 60 54 63 61 60 58 55 60 54 60 62 66 67 71 73 76 76 74 71 72 71 69 70 71 72 72 74 75 75 76 75 78 77 78 77 78 78 77 78
57 59 58 57 60 62 59 64 62 61 59 56 57 57 60 62 62 66 67 70 72 72 71 70 72 69 72 70 71 71 71 68 69 69 70 74 73 74 73 74 71 71 73 73
62 66 64 63 65 64 64 60 58 57 57 50 55 56 59 62 64 66 66 66 67 70 71 72 73 72 72 70 71 68 68 66 67 68 68 67 67 67 70 70 69 72 72 73
57 59 65 66 61 63 61 57 49 47 47 48 53 54 60 62 64 66 69 66 68 70 71 72 72 71 71 69 68 67 66 64 65 66 66 66 65 65 66 66 68 65 69 71
48 46 59 66 62 59 57 58 51 39 43 49 52 50 60 63 65 66 68 68 69 68 69 70 70 70 69 66 66 67 65 64 66 65 65 65 65 68 67 66 66 67 68 69
49 50 62 64 65 65 55 53 59 49 47 49 53 55 63 63 62 64 64 66 66 67 68 67 66 66 66 65 64 65 65 65 64 64 64 63 64 63 63 62 62 65 64 66
57 49 59 61 65 62 60 61 50 53 40 39 47 48 56 58 59 62 63 64 64 64 64 63 63 63 64 64 64 64 63 62 62 63 64 64 62 62 61 61 60 60 61 61
62 54 52 57 57 56 56 55 52 53 49 42 42 49 60 62 63 63 64 66 65 64 64 63 63 64 64 64 64 62 63 63 63 63 62 61 61 61 60 60 60 59 59 59
55 53 48 50 55 58 58 55 55 48 45 48 49 50 60 61 64 65 65 63 62 62 62 63 64 63 64 63 63 63 62 62 62 61 60 60 59 59 58 58 58 58 57 58
54 45 39 46 52 54 54 54 51 51 50 46 43 48 59 60 60 61 59 59 58 59 60 61 62 62 62 61 62 62 61 61 61 59 59 58 57 57 56 56 57 57 57 57
53 45 44 37 42 51 48 51 52 53 46 48 48 52 55 57 59 59 58 58 58 59 58 59 60 61 60 59 59 59 59 59 58 57 56 55 55 55 55 55 56 56 57 57
53 45 47 48 51 50 50 49 50 49 51 46 51 50 57 59 60 60 58 59 58 58 58 58 58 58 59 58 57 57 57 56 56 55 53 53 54 55 55 55 54 55 56 56
49 44 47 44 49 49 47 50 51 51 51 51 51 51 60 58 60 56 56 57 57 56 56 57 56 56 55 54 54 54 54 55 55 53 52 52 52 52 52 52 53 55 55 56
46 46 44 40 43 45 42 49 51 52 54 53 48 56 57 53 56 55 55 56 54 54 54 54 53 53 52 52 52 52 52 53 52 52 53 53 51 50 51 52 54 54 53 52
45 45 44 39 42 31 48 54 53 51 53 56 56 58 59 59 57 56 56 55 53 52 53 52 52 51 51 51 51 49 49 48 47 49 51 49 49 49 51 52 51 50 51 52
48 44 37 36 37 43 47 49 49 49 49 54 53 54 55 55 56 51 53 52 51 51 51 50 50 49 48 47 47 45 44 45 45 47 48 47 48 48 50 48 48 50 52 53
48 48 41 38 32 31 45 51 55 55 46 52 54 53 53 56 51 52 51 50 49 49 49 49 48 47 46 47 46 44 43 44 45 45 45 46 47 47 46 47 49 51 52 51
39 40 36 35 35 42 50 53 56 41 44 54 56 55 53 51 46 49 50 49 49 49 49 49 47 46 46 47 45 42 41 42 44 44 44 45 46 46 46 49 51 49 47 46
38 35 35 35 33 31 52 53 47 50 53 55 55 51 47 48 49 49 48 48 48 48 48 48 45 45 47 45 42 40 40 42 42 42 42 43 45 47 50 47 46 46 45 44
38 44 39 42 42 49 53 52 54 56 54 53 53 53 52 50 48 47 47 47 47 47 47 48 45 44 44 42 42 39 40 41 41 41 41 42 45 47 48 46 43 43 44 44
46 48 44 45 47 49 53 54 56 58 54 55 54 48 50 48 47 46 47 46 46 46 46 46 43 40 39 41 40 40 41 41 40 39 40 42 42 44 48 46 44 43 44 44
46 46 44 45 49 51 53 55 55 53 51 47 49 51 49 48 46 46 45 45 45 45 46 46 42 39 38 39 39 41 41 41 39 39 39 40 42 43 45 44 43 44 47 47
51 47 45 44 52 53 53 55 55 53 50 50 50 48 48 48 46 46 45 45 44 44 46 45 42 39 38 37 39 40 41 41 39 37 38 38 40 40 41 41 42 44 42 42

GFSCGP_sfc_temp_108.txt.gz
Temp
69 64 60 66 69 71 67 64 63 70 75 71 70 72 76 80 80 79 81 83 85 86 90 91 93 94 90 89 83 80 83 83 84 82 84 82 82 86 84 85 85 85 84 84
63 60 70 72 71 67 66 63 64 70 73 70 71 70 76 79 79 80 81 84 85 87 89 87 82 83 85 81 84 83 82 80 80 82 81 82 84 83 87 87 85 85 85 87
63 67 71 68 65 63 64 63 64 65 70 73 70 67 72 77 80 81 83 86 87 86 87 87 87 85 88 82 81 79 79 80 81 82 79 76 78 80 81 80 82 85 85 85
67 73 67 66 63 66 59 70 67 65 64 60 71 59 69 74 75 78 81 83 85 87 87 87 86 84 82 82 83 80 80 78 80 80 80 76 81 81 84 83 87 84 83 83
62 65 65 63 64 68 63 71 68 67 65 64 66 61 68 73 71 76 78 82 86 88 88 82 82 81 82 82 81 79 78 76 75 77 80 83 83 84 85 85 78 79 80 80
67 74 72 69 71 71 72 67 67 68 66 55 63 63 66 70 71 74 78 79 79 81 83 83 80 78 79 82 81 78 74 72 73 75 76 75 73 75 79 80 79 82 83 83
63 66 71 73 66 71 68 62 53 51 53 52 65 61 65 71 75 77 78 78 79 80 81 81 80 79 77 79 79 78 76 73 73 73 71 71 71 71 73 73 78 74 79 80
55 52 65 71 67 64 63 62 55 45 49 55 63 56 67 75 75 77 78 79 78 78 80 80 80 80 80 78 77 75 75 73 74 73 72 71 70 75 74 75 73 74 76 76
56 56 71 71 72 71 64 58 68 58 59 55 60 65 70 73 72 74 75 75 75 77 78 78 78 79 78 75 74 75 74 73 72 72 72 71 71 70 69 69 69 73 72 74
63 54 66 69 73 71 67 71 55 59 44 45 56 59 63 67 69 73 72 74 75 76 75 75 75 74 74 74 73 72 71 71 71 71 72 73 70 70 70 69 68 67 68 68
67 62 58 66 62 62 62 61 62 61 58 47 47 53 71 69 72 72 74 75 74 75 75 75 74 73 74 74 74 71 73 71 72 71 71 70 70 69 69 68 68 67 67 66
67 61 52 57 65 66 68 64 63 53 50 57 55 53 69 70 73 75 75 75 76 77 76 75 74 74 74 73 73 73 71 71 72 71 70 69 68 68 67 67 66 66 65 66
66 57 48 51 59 62 61 64 65 61 59 49 45 51 67 70 71 74 73 73 72 72 72 72 72 72 71 72 72 72 71 71 71 70 69 67 67 66 65 65 65 65 64 64
64 57 53 47 51 58 55 59 62 61 52 54 57 59 62 66 67 69 69 70 69 68 67 68 69 70 70 69 68 69 69 70 69 68 67 65 64 64 64 64 63 64 64 64
61 52 53 54 53 53 51 56 60 57 59 52 58 58 64 67 68 69 69 69 68 67 67 66 67 67 67 66 66 66 67 67 66 65 64 63 63 63 63 62 62 62 62 63
57 51 53 46 54 54 51 59 60 59 59 59 60 58 68 71 71 69 67 67 66 66 64 65 64 63 63 64 63 64 64 64 64 62 62 63 63 62 60 60 60 61 62 63
49 53 50 45 54 54 49 57 58 60 62 60 55 62 69 65 66 66 65 66 65 64 63 63 62 62 61 62 61 60 61 61 60 59 60 61 61 59 58 59 60 61 59 59
53 54 55 49 49 38 55 60 60 58 61 64 64 65 67 67 68 67 68 65 62 62 61 61 62 61 59 60 60 59 58 57 56 56 57 58 58 56 56 55 59 58 58 57
60 56 47 43 44 50 53 55 56 56 56 62 61 64 65 66 63 59 62 62 60 60 61 61 61 59 58 57 57 55 55 53 52 52 53 54 53 51 53 55 57 57 57 54
55 57 49 44 37 38 51 57 62 62 49 61 62 61 61 62 54 56 60 60 59 60 60 59 58 58 56 55 54 52 51 51 50 49 50 48 47 49 50 53 55 57 52 53
45 47 44 45 41 50 58 59 62 45 45 62 64 62 60 54 55 57 60 59 59 59 58 58 58 56 53 53 51 49 46 46 48 48 46 45 46 48 50 52 55 52 52 49
44 42 41 44 38 36 59 58 50 55 62 62 62 61 59 58 59 58 58 57 57 56 57 57 55 51 50 50 47 43 42 46 46 44 43 44 45 49 52 51 50 51 49 47
43 51 44 47 46 56 60 58 62 64 62 61 61 61 60 59 58 57 57 56 56 55 56 55 50 48 48 45 43 40 41 43 43 43 42 43 47 49 50 48 49 50 48 46
52 56 49 50 54 56 58 61 64 64 62 62 62 60 61 57 57 55 55 55 55 55 55 55 52 46 44 43 42 42 42 41 41 41 41 42 44 46 48 49 50 47 46 45
51 55 52 50 56 58 59 61 62 61 60 58 59 60 58 57 55 55 54 53 53 54 54 55 52 48 43 39 39 40 40 41 40 40 40 41 42 44 45 45 46 45 48 45
58 48 49 47 57 57 56 61 62 58 57 57 58 57 58 57 54 54 53 52 52 52 53 53 51 50 45 38 37 37 40 41 39 39 39 40 41 42 42 42 44 44 42 41

GFSCGP_sfc_temp_111.txt.gz
Temp
71 66 63 69 72 73 75 73 70 75 80 75 74 74 79 84 85 83 83 84 85 88 93 93 94 87 93 92 88 88 85 86 87 88 88 87 82 83 81 88 87 84 80 82
67 62 72 75 75 73 72 69 69 74 78 75 73 73 79 83 83 84 83 84 85 88 91 91 90 90 91 89 89 88 85 84 84 90 87 90 82 91 87 86 85 85 85 83
64 69 75 74 72 69 69 67 68 68 75 76 73 69 74 82 84 85 85 86 88 88 88 90 90 88 88 88 87 87 87 87 85 84 86 85 85 82 80 83 84 85 87 87
69 75 72 71 69 71 63 73 71 69 67 61 75 60 73 77 78 81 83 85 87 89 91 92 92 88 89 85 85 85 83 84 84 85 84 80 83 82 84 83 87 86 84 84
66 68 68 68 69 73 67 75 71 70 66 66 67 64 71 78 74 78 82 85 87 89 91 91 91 89 89 89 89 83 82 78 78 79 81 81 83 85 87 87 81 82 82 82
71 79 76 72 75 75 75 71 69 69 66 56 65 65 67 71 75 79 83 85 87 89 91 92 91 90 87 85 85 82 78 76 78 79 79 79 77 79 81 79 82 83 86 81
66 69 76 76 70 74 71 64 54 52 53 53 68 65 67 73 78 81 80 85 86 86 86 86 83 84 84 81 80 78 76 74 76 76 76 75 74 74 75 74 81 77 79 82
55 55 69 75 71 67 67 65 57 46 49 57 68 58 67 79 82 82 84 84 85 84 86 84 83 82 84 82 80 80 78 76 76 76 74 75 75 80 78 77 76 77 78 79
56 57 73 74 75 74 67 62 71 60 61 55 55 66 74 76 78 80 81 81 81 83 83 84 83 82 82 79 78 79 78 76 76 76 75 75 75 74 74 73 72 75 75 76
64 55 69 72 76 75 71 74 58 62 46 43 51 55 58 69 74 78 78 79 80 82 82 82 82 81 79 79 78 77 77 75 75 76 76 77 74 74 73 73 71 71 72 71
68 61 61 70 66 65 67 65 65 64 60 48 47 55 70 67 75 75 78 79 79 80 80 79 79 78 78 79 77 76 77 77 76 77 76 74 74 74 73 72 71 71 70 70
67 58 47 62 73 75 72 67 66 56 48 57 56 51 73 70 75 79 80 80 80 80 80 80 79 79 79 79 79 77 75 77 78 77 75 73 73 72 71 71 70 70 69 69
66 57 47 45 58 69 65 67 68 66 58 53 43 50 70 73 75 77 77 79 79 79 79 79 78 78 77 76 76 76 76 76 76 75 74 72 71 70 69 69 69 69 68 68
68 61 56 48 53 63 60 63 64 56 42 48 51 54 59 63 67 70 75 77 77 76 75 75 76 76 75 73 73 73 74 75 74 73 72 70 69 69 68 67 67 67 68 67
66 56 59 53 61 60 58 64 62 61 62 54 60 57 53 62 71 74 76 75 74 73 72 71 72 71 72 71 70 71 71 71 71 69 68 67 68 68 68 67 66 65 64 65
63 53 55 47 59 59 56 61 62 63 62 63 64 59 66 72 73 70 70 73 72 72 72 71 69 69 68 67 68 68 68 69 69 67 66 67 67 67 67 66 63 61 62 63
56 52 50 47 57 53 48 59 59 63 66 65 60 67 74 71 71 72 70 71 69 70 69 68 67 67 66 66 66 65 66 66 65 64 65 65 65 65 65 64 62 62 61 61
54 54 56 46 52 39 59 68 67 66 67 69 68 69 71 72 74 74 74 69 66 68 67 67 67 65 64 65 65 64 64 63 63 62 62 62 62 60 60 59 58 59 60 60
56 51 42 44 48 55 57 60 61 60 60 67 67 69 71 72 69 66 69 69 67 66 67 66 66 64 63 63 62 61 61 61 60 59 58 58 57 55 54 53 53 58 58 57
57 56 53 52 44 42 57 63 68 68 50 66 67 66 67 67 59 59 65 66 65 65 65 63 64 63 61 60 58 57 57 56 55 55 54 54 53 51 50 48 51 55 55 56
51 53 49 50 45 54 62 64 66 49 48 64 65 62 56 56 57 61 66 64 65 64 62 63 62 59 56 55 53 52 51 51 51 51 50 50 50 49 48 48 51 53 54 55
50 46 47 50 44 40 65 63 53 56 63 62 62 64 62 62 63 64 63 62 62 61 61 61 59 56 53 52 50 48 47 48 47 45 46 47 47 47 48 50 51 52 53 52
46 53 50 51 50 59 64 62 64 63 59 62 63 65 65 63 63 63 62 61 61 60 61 61 59 55 51 49 47 44 44 44 42 42 44 44 45 47 47 49 50 51 52 49
56 61 49 54 57 60 62 64 64 64 61 62 63 64 64 61 62 61 61 60 60 60 60 60 58 55 50 44 42 39 40 41 41 40 42 43 43 44 46 49 50 48 47 47
57 60 55 55 57 60 61 61 61 62 64 65 66 65 63 61 60 60 58 58 58 59 59 58 56 55 52 45 39 38 38 39 38 39 41 42 43 43 44 46 45 45 48 46
63 57 51 49 60 57 56 60 64 63 62 64 63 61 62 61 59 59 57 57 57 57 57 56 55 53 52 49 44 39 39 39 38 38 40 41 42 43 42 43 44 44 42 42

GFSCGP_sfc_temp_114.txt.gz
Temp
70 62 59 64 68 70 70 68 66 71 77 76 73 73 77 82 82 82 83 83 84 85 88 90 90 88 84 83 82 82 80 78 75 75 73 73 76 78 72 66 68 70 73 75
65 58 67 71 72 70 69 66 68 74 79 75 73 71 77 80 81 83 83 83 83 84 86 88 87 85 83 81 82 81 80 80 82 80 80 77 75 77 77 78 80 78 78 79
60 66 71 70 69 67 67 65 67 69 75 77 72 67 71 79 83 85 85 85 86 84 83 85 85 83 84 80 79 81 80 80 82 82 79 79 78 77 77 77 77 81 83 83
65 72 70 67 67 69 62 73 72 70 67 59 72 55 69 75 77 80 82 82 84 85 86 86 86 83 83 82 82 82 80 80 80 81 81 77 75 75 77 75 79 78 79 80
62 65 67 65 67 72 67 75 71 70 66 64 65 60 67 76 73 76 80 82 84 86 86 87 87 84 85 84 83 82 79 80 81 80 80 77 76 78 76 76 75 76 77 78
67 75 73 71 74 75 76 71 70 69 65 53 61 61 63 68 74 77 81 83 85 87 88 89 87 86 86 87 86 82 78 75 76 75 76 73 71 73 73 73 73 74 75 75
64 66 73 75 69 73 71 63 53 50 51 50 65 61 65 71 77 80 81 82 85 86 83 86 83 84 82 83 81 77 75 74 74 73 72 71 70 69 70 70 71 70 71 72
54 52 67 74 69 65 66 63 54 43 46 53 65 57 65 77 80 83 84 85 85 83 84 82 83 83 82 78 77 76 74 72 72 71 71 71 71 71 72 67 67 67 68 70
54 55 71 72 74 72 65 60 69 57 59 51 59 66 69 77 77 79 80 81 80 82 81 80 81 81 80 77 76 75 74 73 73 72 71 70 68 69 68 69 68 69 71 70
61 51 66 70 74 74 69 73 57 60 45 43 54 58 56 66 71 76 76 77 79 81 80 78 79 78 77 77 77 74 74 73 73 71 73 72 71 72 70 70 68 68 68 68
64 56 52 61 63 62 64 61 63 62 59 46 43 48 58 62 65 61 77 78 78 79 79 79 77 76 76 75 74 73 73 73 73 73 72 71 71 71 71 69 68 68 68 67
64 57 43 52 67 73 70 64 62 50 50 59 52 48 56 61 67 64 63 78 79 79 78 78 76 76 76 75 75 74 74 75 75 75 73 72 71 71 69 68 67 67 66 66
60 54 42 44 57 66 65 68 67 63 60 55 47 41 59 68 64 59 57 66 76 77 77 76 76 76 76 76 76 75 75 74 74 73 73 71 70 68 67 66 66 66 65 65
54 53 47 41 52 61 59 64 67 64 52 52 54 54 61 65 66 67 62 68 61 61 74 74 75 74 73 72 72 72 72 72 71 70 69 66 66 65 65 66 66 65 66 64
53 49 52 45 52 54 62 64 61 55 57 50 53 54 61 62 61 65 67 66 64 60 70 73 71 70 71 69 69 70 69 70 69 67 66 65 65 65 65 64 64 64 63 63
56 50 55 49 51 48 59 65 60 54 55 55 57 49 61 61 58 57 66 68 69 70 71 70 70 69 68 67 66 66 67 66 66 64 64 65 65 65 64 63 63 62 61 61
56 54 52 41 48 50 51 61 61 61 63 60 57 59 66 59 57 58 70 72 69 67 68 67 67 65 64 64 64 63 63 64 64 63 64 64 63 62 61 61 60 58 57 58
54 54 48 39 41 33 57 68 68 65 62 66 69 68 68 64 65 64 70 67 66 66 66 66 64 63 62 63 62 61 62 62 62 61 61 61 59 58 57 56 54 54 55 55
59 53 43 37 44 52 58 62 63 61 61 69 68 71 71 67 64 61 66 67 65 65 65 64 64 62 61 59 58 57 58 58 57 57 55 55 54 53 52 51 50 51 52 53
57 55 47 43 42 41 56 66 71 70 51 67 69 69 67 68 55 56 64 64 63 63 62 62 62 59 56 54 53 53 53 52 51 51 50 51 51 50 48 49 48 50 50 51
43 46 42 39 44 49 62 66 69 50 49 63 64 65 63 58 59 61 64 62 63 62 60 61 59 54 52 52 51 49 49 47 48 48 47 46 47 48 48 48 48 48 50 51
40 41 46 50 44 37 65 64 55 57 64 64 63 61 59 60 62 62 62 61 61 60 61 61 57 53 51 50 48 45 44 45 46 45 44 44 46 46 48 47 47 48 50 50
46 54 47 51 47 59 64 60 64 65 63 63 63 64 64 62 62 62 60 60 60 60 59 60 58 55 52 49 45 41 41 42 42 41 41 43 45 45 46 45 45 47 49 46
56 61 51 53 54 58 57 61 62 64 62 64 64 62 62 61 61 60 60 59 59 59 58 58 56 54 51 49 44 40 39 39 39 39 39 41 42 43 44 45 46 45 44 43
59 59 55 52 55 55 57 59 62 63 64 64 65 65 63 61 59 59 57 57 58 57 57 56 54 52 51 51 48 42 39 38 37 37 38 39 41 42 42 43 43 43 45 44
59 56 49 48 55 54 53 62 64 63 63 64 62 61 62 61 58 58 56 57 56 55 55 54 53 52 52 51 48 46 41 39 37 36 36 37 39 40 40 40 41 42 41 41

GFSCGP_sfc_temp_117.txt.gz
Temp
64 53 50 55 60 60 60 58 57 62 70 67 65 65 69 73 72 70 70 71 71 72 76 76 76 74 73 71 67 67 65 67 65 65 64 64 63 66 67 65 69 70 68 70
57 51 60 64 64 61 60 57 57 64 71 67 64 63 68 71 71 71 71 69 71 70 72 76 71 73 74 70 69 68 68 70 66 65 66 65 65 67 71 66 68 68 68 70
53 58 65 63 60 59 58 56 57 58 67 71 63 57 62 72 72 74 73 71 71 71 70 73 72 72 72 73 74 72 73 69 69 71 71 70 70 70 70 69 67 68 70 72
57 64 62 59 58 61 53 65 65 63 61 50 63 43 58 66 67 72 71 70 72 72 71 72 73 72 73 75 76 76 77 76 77 76 72 75 73 70 72 70 70 68 71 73
54 59 58 57 59 64 59 68 65 63 58 53 56 47 54 63 66 69 67 70 70 71 71 70 74 74 76 74 72 72 72 71 71 71 71 69 69 65 65 68 68 68 67 71
59 69 66 63 68 67 69 65 64 60 51 40 50 49 49 56 63 66 69 71 73 72 72 72 76 75 74 73 69 68 67 65 65 67 65 65 65 65 67 64 64 65 67 67
57 59 67 70 62 67 64 56 43 40 39 38 55 50 51 61 69 73 71 70 71 68 71 69 72 71 70 68 69 68 66 63 63 63 63 64 63 63 62 62 63 64 64 63
45 45 60 68 63 59 59 53 42 32 35 41 57 46 55 66 70 76 77 73 69 70 72 70 70 69 68 67 66 66 64 62 62 62 62 61 62 61 60 61 60 61 62 62
46 47 66 68 70 67 57 53 59 48 47 42 47 54 61 66 67 69 72 71 65 67 70 69 69 68 67 65 65 64 62 61 62 62 61 60 60 60 60 60 61 59 60 64
54 45 62 67 70 70 64 65 50 49 35 34 45 50 46 55 59 65 61 65 66 68 68 68 67 66 65 66 65 63 63 62 62 61 61 61 60 61 60 60 59 59 59 60
49 50 50 55 57 54 58 56 54 50 42 34 33 39 54 50 57 59 59 58 61 66 66 66 65 64 66 65 64 62 63 63 62 62 61 61 60 61 60 59 58 58 58 59
51 49 41 47 59 62 57 56 55 38 41 46 40 39 56 54 60 59 56 54 57 56 64 65 66 63 63 62 62 62 62 62 62 62 61 60 60 59 58 58 58 58 57 57
50 43 34 41 49 56 51 58 56 53 47 40 34 37 57 59 56 57 56 52 55 57 62 62 65 64 63 62 62 62 61 60 60 61 59 57 57 56 56 56 57 58 57 57
50 44 42 36 44 50 49 56 58 55 36 42 45 43 51 55 55 54 53 54 55 56 60 63 62 62 62 62 61 60 60 59 59 59 57 56 55 56 56 56 56 57 57 55
48 41 47 49 51 51 54 58 59 55 51 44 47 48 50 55 56 53 54 56 57 58 61 62 60 60 60 58 58 59 57 57 57 57 55 54 55 55 55 55 55 55 55 55
47 41 47 45 52 51 49 55 59 57 55 51 47 49 56 55 58 57 56 58 58 61 63 61 60 59 58 57 56 56 56 55 56 55 55 56 55 55 53 52 52 51 50 51
42 42 41 37 44 45 41 50 54 54 56 54 44 51 56 55 55 54 57 61 61 61 59 57 56 55 55 54 54 51 52 54 54 53 55 55 53 52 51 51 50 48 47 47
44 43 42 34 35 32 46 53 60 58 57 54 53 53 56 54 55 56 58 58 58 56 55 55 54 52 50 50 50 50 51 51 51 50 50 50 49 49 48 47 45 45 49 51
47 44 39 34 33 46 46 53 57 53 51 60 55 58 57 56 56 55 59 57 55 54 54 51 50 48 47 47 47 47 46 47 47 46 46 46 46 45 46 47 47 48 48 45
44 51 41 38 33 31 51 62 66 60 41 59 58 55 54 55 43 46 55 55 55 54 52 49 48 48 45 43 44 43 44 47 44 45 45 46 43 42 45 46 46 48 43 45
40 42 39 37 35 44 56 63 63 40 40 54 55 56 53 48 49 52 55 53 53 52 51 49 47 44 43 43 42 40 41 39 43 45 44 44 43 45 45 45 46 47 46 47
39 37 36 40 35 33 60 57 45 49 54 54 55 55 53 53 54 53 53 52 51 50 51 49 45 43 41 41 39 37 38 40 41 42 41 42 42 45 46 44 44 45 45 47
39 45 39 43 39 51 56 53 55 57 54 55 55 56 56 54 53 53 51 49 50 50 50 49 45 42 40 39 39 38 38 40 39 40 40 40 42 43 44 44 43 43 44 44
51 55 45 45 49 51 53 56 57 58 56 57 57 56 55 52 52 50 50 49 48 49 47 47 45 42 40 40 40 40 40 39 38 38 38 39 39 40 42 42 42 42 42 42
50 51 47 47 51 53 54 55 57 57 58 58 58 56 54 52 50 49 48 48 47 46 45 45 43 42 41 40 38 37 41 40 37 36 36 36 37 39 40 41 40 41 42 42
51 47 43 42 50 51 52 56 60 56 55 55 54 53 53 52 49 48 46 46 45 44 45 44 43 42 41 41 40 40 40 42 38 35 35 35 36 38 38 38 39 41 40 40

GFSCGP_sfc_temp_120.txt.gz
Temp
56 49 45 50 54 55 55 52 50 56 63 61 60 61 62 68 65 66 65 65 67 69 76 72 70 70 68 68 66 66 65 66 65 64 64 63 65 65 66 65 68 69 70 69
50 46 55 59 58 57 55 52 51 57 63 60 59 58 65 68 66 69 70 66 66 66 68 70 68 68 68 66 66 66 66 67 67 64 63 64 63 63 66 65 69 69 69 70
49 54 61 59 57 54 53 51 51 52 59 62 57 55 60 65 70 72 70 69 66 67 67 65 67 67 67 66 65 65 67 68 67 65 66 66 65 66 67 64 64 65 69 70
53 60 59 56 54 56 48 59 59 57 54 43 58 44 52 61 64 66 67 65 66 67 66 65 68 66 68 69 69 67 68 68 66 67 67 67 65 65 66 66 66 66 67 68
51 55 55 54 55 60 53 62 59 59 55 47 54 44 50 57 57 61 65 66 65 67 68 64 68 70 71 71 69 69 68 66 68 68 68 66 65 64 65 64 64 63 64 67
56 65 61 59 63 63 64 59 58 58 54 39 50 47 46 51 60 62 65 69 68 68 65 66 70 72 66 66 67 68 65 63 66 67 67 67 65 63 63 61 61 62 62 63
52 53 62 65 56 62 59 52 39 37 34 37 51 46 48 57 63 65 63 65 68 68 63 65 68 65 65 64 63 63 62 59 60 61 60 61 60 60 59 59 59 59 59 60
41 39 55 63 58 54 55 53 36 29 30 37 52 42 51 63 65 65 68 68 64 62 65 66 65 65 65 63 61 61 61 59 61 60 59 59 58 59 57 57 57 58 58 58
41 42 62 63 64 63 55 49 55 43 44 41 44 51 59 61 59 61 62 62 58 62 64 63 63 63 62 60 59 60 59 58 59 58 57 57 57 57 57 57 57 56 57 61
46 41 56 60 65 65 60 60 46 45 34 31 41 43 43 50 52 54 52 52 56 60 61 62 62 61 61 60 59 58 58 58 58 58 58 58 57 57 57 57 56 56 56 58
48 42 47 55 51 53 54 53 52 48 42 32 32 38 50 50 52 50 51 53 54 55 56 57 59 60 59 58 58 57 58 58 57 58 57 57 56 57 56 56 56 56 56 56
48 43 36 43 54 57 51 49 49 43 37 41 42 39 53 54 54 51 52 54 55 56 57 57 58 57 59 59 59 59 59 58 56 56 56 55 55 55 54 54 55 55 55 56
49 41 33 39 47 54 48 52 52 46 42 39 34 37 55 57 51 53 51 54 55 55 55 56 57 58 60 60 59 58 57 55 56 56 54 53 53 53 52 53 54 54 54 54
47 44 39 34 39 47 45 51 52 49 36 38 40 42 48 50 50 52 52 54 55 54 53 54 56 57 58 58 57 56 56 55 55 55 53 52 51 51 51 51 51 52 52 52
44 39 43 47 52 53 52 54 54 48 47 42 43 46 49 50 49 50 52 54 53 53 55 56 56 56 55 53 54 54 54 54 53 53 52 50 50 50 49 49 48 49 49 49
45 40 47 45 49 48 50 54 53 55 52 50 48 45 51 52 52 51 53 55 55 57 56 56 56 54 51 51 50 51 51 51 51 50 49 50 49 49 47 47 46 46 46 46
42 41 39 36 43 46 42 48 51 53 54 52 45 47 52 51 51 52 54 57 54 54 54 52 49 48 46 46 48 46 47 48 48 47 48 48 47 47 45 45 45 44 43 43
43 42 37 34 38 31 45 51 54 52 52 52 51 50 51 50 51 53 54 52 52 51 48 46 45 44 44 44 44 45 46 45 45 44 45 45 44 43 43 43 42 41 42 44
47 43 36 33 33 42 48 47 53 50 48 56 49 50 50 51 50 49 53 51 48 46 46 45 46 43 42 42 43 43 42 42 42 42 42 43 43 41 41 41 42 46 47 47
44 43 38 35 32 31 45 51 54 55 42 56 53 51 51 54 40 43 51 51 48 49 48 46 45 42 40 39 40 38 37 37 37 40 41 41 41 39 41 42 43 45 46 46
40 41 37 36 34 42 50 51 56 40 41 54 54 53 50 43 46 48 51 49 49 48 47 44 41 38 37 37 37 37 38 37 37 41 41 39 39 39 43 44 45 45 44 45
38 36 36 38 33 33 56 54 47 47 50 52 51 50 48 48 48 48 48 47 47 45 45 43 39 37 36 36 37 36 37 38 38 39 40 41 41 43 44 43 44 44 44 43
38 43 39 41 40 47 53 50 53 54 51 51 51 52 52 50 48 48 46 46 46 45 43 42 39 37 36 36 36 34 38 40 39 39 36 38 40 41 42 41 41 41 42 42
47 51 44 45 47 48 50 53 54 55 52 53 53 52 51 47 48 46 46 45 44 44 42 41 39 37 35 36 37 34 38 41 39 37 37 38 38 39 41 41 41 40 40 40
47 49 46 44 48 50 52 52 53 52 53 52 52 51 49 48 46 46 44 43 43 41 41 40 38 37 36 36 36 36 38 41 37 36 36 35 37 38 39 39 39 40 42 40
50 47 43 41 49 49 49 52 54 51 50 51 49 47 48 47 45 45 42 42 42 40 40 39 38 37 38 38 37 37 38 40 37 35 34 35 36 37 38 37 38 41 40 40

GFSCGP_sfc_temp_126.txt.gz
Temp
49 43 38 43 47 50 46 44 45 48 55 52 53 51 55 59 58 57 59 61 61 63 67 66 66 68 68 67 66 67 66 65 65 64 67 66 65 66 66 69 71 70 70 69
42 39 48 51 50 48 47 43 43 50 55 52 50 50 55 58 57 59 59 60 61 60 61 64 64 67 70 67 68 67 66 64 65 65 64 66 65 66 66 66 68 68 69 70
41 46 53 50 47 44 44 43 43 46 52 52 50 47 51 58 57 61 60 61 61 62 60 60 62 67 70 70 69 69 66 65 65 64 64 63 65 64 65 64 65 67 69 70
44 52 49 47 45 47 40 51 51 50 46 38 50 35 45 53 56 57 61 59 60 61 60 60 63 64 68 68 68 70 66 64 64 64 64 63 62 62 64 64 65 66 67 68
44 47 46 44 47 51 45 54 50 50 44 39 42 37 42 49 52 56 58 58 60 61 60 59 62 65 66 66 66 65 62 63 63 64 64 63 63 64 65 65 65 65 65 67
47 56 53 50 53 54 55 52 49 47 43 33 41 40 39 46 53 55 58 60 62 61 60 60 62 64 64 62 61 61 63 61 62 63 64 65 65 65 64 64 63 62 63 64
45 47 54 57 49 55 53 45 30 30 31 31 41 39 42 50 53 54 55 56 57 59 57 58 61 62 62 62 62 62 61 61 62 63 63 64 64 64 63 62 61 60 60 59
36 34 48 57 51 47 48 46 30 25 27 30 44 36 43 50 52 54 54 53 55 56 58 60 63 64 63 63 61 60 58 58 58 59 58 58 59 58 57 58 58 58 59 58
37 35 53 55 57 54 47 44 46 37 35 33 38 42 48 50 51 55 54 55 57 59 57 58 59 59 58 57 57 56 56 56 57 57 57 57 57 57 55 56 57 57 58 60
42 36 49 54 56 58 54 55 41 41 28 28 35 39 40 44 48 52 53 53 55 57 56 56 55 55 56 56 56 57 57 56 57 57 57 57 57 57 56 55 56 56 57 58
41 41 41 50 45 44 48 47 48 42 35 28 28 33 44 49 52 51 52 54 53 53 53 53 53 54 54 55 55 55 55 55 55 54 54 54 55 55 55 54 54 54 55 55
44 41 35 41 46 51 50 47 43 37 32 35 34 34 47 52 52 53 52 52 52 52 52 52 53 53 53 53 54 54 54 53 54 54 53 52 52 53 52 51 51 52 52 53
44 39 33 34 41 47 44 48 47 42 40 37 32 35 50 52 52 52 50 51 51 52 52 52 52 52 52 53 55 55 54 53 53 53 51 50 49 49 48 48 49 50 50 50
47 41 37 32 35 41 37 47 52 45 34 36 36 40 46 49 50 50 50 51 51 52 51 50 50 50 51 51 52 52 51 51 51 50 48 46 46 46 46 47 48 48 48 48
43 34 41 44 49 48 48 49 51 47 44 40 39 42 46 49 50 50 51 51 50 50 51 51 49 48 48 48 48 49 49 49 48 47 46 45 45 46 46 46 46 46 47 47
42 35 41 41 49 51 49 52 52 52 48 45 45 41 52 53 53 51 51 51 50 49 49 49 49 48 47 47 46 47 46 46 46 45 44 45 44 45 43 44 44 44 44 45
40 34 37 35 45 45 42 48 52 51 50 48 42 44 50 49 51 50 50 50 48 46 46 44 44 43 43 44 44 43 43 44 43 43 44 44 43 43 42 42 43 43 42 43
39 33 36 34 40 29 42 49 54 48 48 48 47 49 51 51 52 52 51 46 44 43 43 42 41 41 41 42 41 41 41 41 41 40 41 41 41 41 41 41 41 41 41 42
43 35 35 30 30 39 44 47 48 48 42 50 49 51 47 47 46 43 47 46 42 41 41 40 40 39 39 40 40 40 38 38 38 38 39 40 40 39 39 39 39 41 41 44
44 41 36 32 29 26 41 50 53 54 39 49 49 47 47 51 41 40 44 44 42 43 42 41 41 39 38 38 39 39 39 39 39 40 39 39 39 39 39 40 41 44 45 45
36 39 33 31 32 38 48 52 54 40 39 50 49 49 50 44 44 43 45 43 44 43 41 41 39 37 37 37 38 38 39 38 40 41 41 39 38 38 41 41 43 43 43 44
38 35 33 33 34 30 51 52 45 45 50 50 50 46 43 43 43 42 42 41 41 41 41 41 39 37 35 36 38 39 39 40 41 40 39 39 40 41 43 42 42 42 43 42
37 39 38 39 37 46 49 48 51 53 47 46 46 46 45 43 42 43 43 43 42 41 40 40 37 35 35 35 36 36 36 39 39 39 38 39 40 41 41 41 40 41 41 41
46 47 40 41 42 44 46 48 50 50 48 49 48 47 46 42 43 43 43 41 41 40 37 37 36 35 34 35 36 35 38 39 38 37 37 38 38 39 40 40 40 39 39 38
45 45 40 38 42 44 46 47 48 48 48 48 48 48 45 44 43 43 41 40 38 37 37 37 35 35 35 36 35 36 38 39 37 36 36 36 37 38 37 39 38 39 40 38
45 42 38 38 45 42 41 46 49 47 47 47 45 44 44 44 40 39 37 38 37 36 36 36 35 35 36 36 35 36 37 38 36 35 35 36 36 37 37 36 37 40 39 39

GFSCGP_sfc_temp_129.txt.gz
Temp
51 43 41 49 53 57 57 53 53 58 64 61 60 62 64 71 70 71 73 75 75 76 83 82 80 80 79 78 77 77 75 74 74 74 72 74 76 75 74 76 78 78 78 78
48 41 52 55 54 53 54 51 52 58 63 60 62 60 66 69 70 73 73 75 76 77 78 79 78 78 76 76 76 76 76 73 74 76 74 75 75 75 76 73 73 74 75 74
45 51 55 52 50 48 50 50 50 54 60 63 60 58 62 68 70 73 75 77 78 78 78 76 77 77 78 76 75 75 75 73 73 74 72 71 71 72 72 69 69 70 71 72
48 56 53 50 49 51 45 55 55 56 55 50 62 50 58 66 67 69 73 73 76 78 77 79 77 77 77 78 79 78 75 72 71 73 71 71 72 73 72 71 71 71 74 75
46 49 49 46 50 54 50 56 54 56 54 53 55 51 60 62 63 68 72 75 76 78 78 77 77 78 79 80 78 77 73 70 70 72 72 71 70 73 74 73 72 71 71 74
49 59 55 54 56 56 59 54 54 55 54 44 53 52 55 60 65 70 74 75 76 77 77 78 79 79 78 74 72 70 67 68 71 73 72 72 72 73 74 73 72 71 72 73
41 48 55 58 51 55 54 50 40 38 40 42 55 50 57 64 63 65 67 68 69 74 73 73 73 74 72 67 67 68 68 66 70 71 72 73 74 73 73 73 74 72 69 70
36 32 49 54 54 48 50 51 44 33 37 44 51 46 56 63 59 62 63 64 68 69 71 72 72 71 69 66 66 67 65 63 67 68 68 68 69 72 71 71 73 70 70 70
39 39 55 55 58 59 51 47 60 49 51 46 50 53 55 57 58 60 61 64 64 61 61 63 64 62 60 61 64 65 64 63 65 65 64 64 65 65 65 66 68 69 69 69
42 37 49 55 58 60 56 60 47 52 38 38 47 50 54 53 54 55 56 57 57 57 57 57 56 57 58 61 64 65 65 63 63 63 62 62 62 62 61 62 62 64 64 66
44 35 37 53 42 49 52 50 54 53 50 44 40 48 55 56 57 55 55 54 53 53 53 53 55 57 59 64 65 64 64 63 62 62 59 58 57 59 60 60 61 62 63 64
44 37 35 43 48 57 59 52 55 47 43 49 52 45 53 58 56 55 51 51 52 53 53 54 56 58 62 63 63 61 61 62 61 58 54 54 53 57 57 59 59 60 60 61
38 35 34 35 41 47 51 53 57 56 53 47 45 40 52 55 52 51 49 50 52 53 54 54 57 60 60 60 61 62 61 61 59 56 56 54 53 55 55 56 56 58 59 59
44 37 42 39 40 40 42 51 55 55 48 48 50 42 47 49 49 49 50 53 53 53 53 55 58 58 59 59 59 59 58 59 58 55 53 53 53 52 53 55 56 57 57 58
44 35 44 48 47 45 47 51 53 52 55 51 49 49 49 50 48 49 52 52 53 53 55 54 53 53 54 53 54 55 56 55 57 55 54 51 53 55 55 55 55 55 56 56
42 34 41 42 48 48 44 53 54 55 52 49 51 46 54 52 51 51 53 53 50 49 50 51 51 53 53 53 53 54 54 54 55 54 53 53 52 52 52 53 53 54 54 54
37 35 41 37 46 45 38 50 55 55 57 53 49 50 51 49 49 50 50 49 47 48 48 50 50 52 51 52 52 51 52 53 52 52 53 52 52 52 52 52 53 52 52 53
38 35 39 37 44 32 50 56 60 52 53 55 53 52 53 50 49 49 50 49 47 47 49 50 50 50 49 50 51 50 51 49 49 49 49 50 50 50 51 51 51 51 53 52
42 36 37 35 37 43 49 53 57 56 46 56 52 52 47 46 45 42 48 49 49 49 49 49 49 48 48 48 48 49 49 49 48 46 46 47 48 48 49 49 50 51 52 51
43 41 37 41 36 33 50 54 58 60 42 55 52 46 45 49 40 38 44 46 46 48 46 45 46 46 46 46 48 48 47 47 45 45 46 47 47 47 48 49 49 50 49 48
36 37 38 40 39 43 52 55 59 46 48 54 51 49 51 50 46 43 45 44 46 45 42 42 42 42 45 47 48 46 45 44 46 47 48 48 48 48 49 49 49 49 49 50
37 38 38 42 39 35 53 55 52 53 54 53 51 46 44 45 45 45 44 42 41 41 41 42 42 44 46 48 48 45 40 43 44 46 47 46 46 48 49 47 47 46 45 44
39 43 40 41 39 46 53 52 55 57 53 49 46 46 46 46 44 44 43 43 43 42 45 44 43 44 46 47 47 42 40 42 44 46 46 45 47 48 47 45 44 43 42 42
47 51 42 43 42 44 49 52 54 54 51 50 49 47 49 48 47 46 43 42 44 43 43 48 47 46 45 46 46 43 42 42 43 41 42 46 46 44 45 46 43 41 39 38
45 48 41 39 42 45 45 49 51 51 52 51 51 50 51 49 47 45 45 45 44 46 47 48 46 46 45 46 46 46 45 43 42 40 39 41 41 44 41 41 40 39 40 38
42 45 41 38 44 42 41 46 49 47 47 49 49 48 48 48 46 45 42 45 47 46 47 46 46 46 46 46 46 46 46 44 41 40 38 38 39 39 39 38 39 39 39 39